[[{"header":{"parameterUnit":"m.s-1","parameterCategory":1,"la1":30.6,"la2":28.766,"lo1":-90.7593,"lo2":-88.6598,"dy":0.0162,"dx":0.0183,"nx":116,"ny":114,"refTime":"2023-04-17T12:00:00:Z","depth":0,"parameterNumber":2,"parameterNumberName":"U-component_of_WINDS"},"data":[0.0,0.0,0.0,0.0,0.0,0.0,0.0,0.0,0.0,0.0,0.0,0.0,0.0,0.0,0.0,0.0,0.0,0.0,0.0,0.0,0.0,0.0,0.0,0.0,0.0,0.0,0.0,0.0,0.0,0.0,0.0,0.0,0.0,0.0,0.0,0.0,0.0,0.0,0.0,0.0,0.0,0.0,0.0,0.0,0.0,0.0,0.0,0.0,0.0,0.0,0.0,0.0,0.0,0.0,0.0,0.0,0.0,0.0,0.0,0.0,0.0,0.0,0.0,0.0,0.0,0.0,0.0,0.0,0.0,0.0,0.0,0.0,0.0,0.0,0.0,0.0,0.0,0.0,0.0,0.0,0.0,0.0,0.0,0.0,0.0,0.0,0.0,0.0,0.0,0.0,0.0,0.0,0.0,0.0,0.0,0.0,0.0,0.0,0.0,0.0,0.0,0.0,0.0,0.0,0.0,0.0,0.0,0.0,0.0,0.0,0.0,0.0,0.0,0.0,0.0,0.0,0.0,0.0,0.0,0.0,0.0,0.0,0.0,0.0,0.0,0.0,0.0,0.0,0.0,0.0,0.0,0.0,0.0,0.0,0.0,0.0,0.0,0.0,0.0,0.0,0.0,0.0,0.0,0.0,0.0,0.0,0.0,0.0,0.0,0.0,0.0,0.0,0.0,0.0,0.0,0.0,0.0,0.0,0.0,0.0,0.0,0.0,0.0,0.0,0.0,0.0,0.0,0.0,0.0,0.0,0.0,0.0,0.0,0.0,0.0,0.0,0.0,0.0,0.0,0.0,0.0,0.0,0.0,0.0,0.0,0.0,0.0,0.0,0.0,0.0,0.0,0.0,0.0,0.0,0.0,0.0,0.0,0.0,0.0,0.0,0.0,0.0,0.0,0.0,0.0,0.0,0.0,0.0,0.0,0.0,0.0,0.0,0.0,0.0,0.0,0.0,0.0,0.0,0.0,0.0,0.0,0.0,0.0,0.0,0.0,0.0,0.0,0.0,0.0,0.0,0.0,0.0,0.0,0.0,0.0,0.0,0.0,0.0,0.0,0.0,0.0,0.0,0.0,0.0,0.0,0.0,0.0,0.0,0.0,0.0,0.0,0.0,0.0,0.0,0.0,0.0,0.0,0.0,0.0,0.0,0.0,0.0,0.0,0.0,0.0,0.0,0.0,0.0,0.0,0.0,0.0,0.0,0.0,0.0,0.0,0.0,0.0,0.0,0.0,0.0,0.0,0.0,0.0,0.0,0.0,0.0,0.0,0.0,0.0,0.0,0.0,0.0,0.0,0.0,0.0,0.0,0.0,0.0,0.0,0.0,0.0,0.0,0.0,0.0,0.0,0.0,0.0,0.0,0.0,0.0,0.0,0.0,0.0,0.0,0.0,0.0,0.0,0.0,0.0,0.0,0.0,0.0,0.0,0.0,0.0,0.0,0.0,0.0,0.0,0.0,0.0,0.0,0.0,0.0,0.0,0.0,0.0,0.0,0.0,0.0,0.0,0.0,0.0,0.0,0.0,0.0,0.0,0.0,0.0,0.0,0.0,0.0,0.0,0.0,0.0,0.0,0.0,0.0,0.0,0.0,0.0,0.0,0.0,0.0,0.0,0.0,0.0,0.0,0.0,0.0,0.0,0.0,0.0,0.0,0.0,0.0,0.0,0.0,0.0,0.0,0.0,0.0,0.0,0.0,0.0,0.0,0.0,0.0,0.0,0.0,0.0,0.0,0.0,0.0,0.0,0.0,0.0,0.0,0.0,0.0,0.0,0.0,0.0,0.0,0.0,0.0,0.0,0.0,0.0,0.0,0.0,0.0,0.0,0.0,0.0,0.0,0.0,0.0,0.0,0.0,0.0,0.0,0.0,0.0,0.0,0.0,0.0,0.0,0.0,0.0,0.0,0.0,0.0,0.0,0.0,0.0,0.0,0.0,0.0,0.0,0.0,0.0,0.0,0.0,0.0,0.0,0.0,0.0,0.0,0.0,0.0,0.0,0.0,0.0,0.0,0.0,0.0,0.0,0.0,0.0,0.0,0.0,0.0,0.0,0.0,0.0,0.0,0.0,0.0,0.0,0.0,0.0,0.0,0.0,0.0,0.0,0.0,0.0,0.0,0.0,0.0,0.0,0.0,0.0,0.0,0.0,0.0,0.0,0.0,0.0,0.0,0.0,0.0,0.0,0.0,0.0,0.0,0.0,0.0,0.0,0.0,0.0,0.0,0.0,0.0,0.0,0.0,0.0,0.0,0.0,0.0,0.0,0.0,0.0,0.0,0.0,0.0,0.0,0.0,0.0,0.0,0.0,0.0,0.0,0.0,0.0,0.0,0.0,0.0,0.0,0.0,0.0,0.0,0.0,0.0,0.0,0.0,0.0,0.0,0.0,0.0,0.0,0.0,0.0,0.0,0.0,0.0,0.0,0.0,0.0,0.0,0.0,0.0,0.0,0.0,0.0,0.0,0.0,0.0,0.0,0.0,0.0,0.0,0.0,0.0,0.0,0.0,0.0,0.0,0.0,0.0,0.0,0.0,0.0,0.0,0.0,0.0,0.0,0.0,0.0,0.0,0.0,0.0,0.0,0.0,0.0,0.0,0.0,0.0,0.0,0.0,0.0,0.0,0.0,0.0,0.0,0.0,0.0,0.0,0.0,0.0,0.0,0.0,0.0,0.0,0.0,0.0,0.0,0.0,0.0,0.0,0.0,0.0,0.0,0.0,0.0,0.0,0.0,0.0,0.0,0.0,0.0,0.0,0.0,0.0,0.0,0.0,0.0,0.0,0.0,0.0,0.0,0.0,0.0,0.0,0.0,0.0,0.0,0.0,0.0,0.0,0.0,0.0,0.0,0.0,0.0,0.0,0.0,0.0,0.0,0.0,0.0,0.0,0.0,0.0,0.0,0.0,0.0,0.0,0.0,0.0,0.0,0.0,0.0,0.0,0.0,0.0,0.0,0.0,0.0,0.0,0.0,0.0,0.0,0.0,0.0,0.0,0.0,0.0,0.0,0.0,0.0,0.0,0.0,0.0,0.0,0.0,0.0,0.0,0.0,0.0,0.0,0.0,0.0,0.0,0.0,0.0,0.0,0.0,0.0,0.0,0.0,0.0,0.0,0.0,0.0,0.0,0.0,0.0,0.0,0.0,0.0,0.0,0.0,0.0,0.0,0.0,0.0,0.0,0.0,0.0,0.0,0.0,0.0,0.0,0.0,0.0,0.0,0.0,0.0,0.0,0.0,0.0,0.0,0.0,0.0,0.0,0.0,0.0,0.0,0.0,0.0,0.0,0.0,0.0,0.0,0.0,0.0,0.0,0.0,0.0,0.0,0.0,0.0,0.0,0.0,0.0,0.0,0.0,0.0,0.0,0.0,0.0,0.0,0.0,0.0,0.0,0.0,0.0,0.0,0.0,0.0,0.0,0.0,0.0,0.0,0.0,0.0,0.0,0.0,0.0,0.0,0.0,0.0,0.0,0.0,0.0,0.0,0.0,0.0,0.0,0.0,0.0,0.0,0.0,0.0,0.0,0.0,0.0,0.0,0.0,0.0,0.0,0.0,0.0,0.0,0.0,0.0,0.0,0.0,0.0,0.0,0.0,0.0,0.0,0.0,0.0,0.0,0.0,0.0,0.0,0.0,0.0,0.0,0.0,0.0,0.0,0.0,0.0,0.0,0.0,0.0,0.0,0.0,0.0,0.0,0.0,0.0,0.0,0.0,0.0,0.0,0.0,0.0,0.0,0.0,0.0,0.0,0.0,0.0,0.0,0.0,0.0,0.0,0.0,0.0,0.0,0.0,0.0,0.0,0.0,0.0,0.0,0.0,0.0,0.0,0.0,0.0,0.0,0.0,0.0,0.0,0.0,0.0,0.0,0.0,0.0,0.0,0.0,0.0,0.0,0.0,0.0,0.0,0.0,0.0,0.0,0.0,0.0,0.0,0.0,0.0,0.0,0.0,0.0,0.0,0.0,0.0,0.0,0.0,0.0,0.0,0.0,0.0,0.0,0.0,0.0,0.0,0.0,0.0,0.0,0.0,0.0,0.0,0.0,0.0,0.0,0.0,0.0,0.0,0.0,0.0,0.0,0.0,0.0,0.0,0.0,0.0,0.0,0.0,0.0,0.0,0.0,0.0,0.0,0.0,0.0,0.0,0.0,0.0,0.0,0.0,0.0,0.0,0.0,0.0,0.0,0.0,0.0,0.0,0.0,0.0,0.0,0.0,0.0,0.0,0.0,0.0,0.0,0.0,0.0,0.0,0.0,0.0,0.0,0.0,0.0,0.0,0.0,0.0,0.0,0.0,0.0,0.0,0.0,0.0,0.0,0.0,0.0,0.0,0.0,0.0,0.0,0.0,0.0,0.0,0.0,0.0,0.0,0.0,0.0,0.0,0.0,0.0,0.0,0.0,0.0,0.0,0.0,0.0,0.0,0.0,0.0,0.0,0.0,0.0,0.0,0.0,0.0,0.0,0.0,0.0,0.0,0.0,0.0,0.0,0.0,0.0,0.0,0.0,0.0,0.0,0.0,0.0,0.0,0.0,0.0,0.0,0.0,0.0,0.0,0.0,0.0,0.0,0.0,0.0,0.0,0.0,0.0,0.0,0.0,0.0,0.0,0.0,0.0,0.0,0.0,0.0,0.0,0.0,0.0,0.0,0.0,0.0,0.0,0.0,0.0,0.0,0.0,0.0,0.0,0.0,0.0,0.0,0.0,0.0,0.0,0.0,0.0,0.0,0.0,0.0,0.0,0.0,0.0,0.0,0.0,0.0,0.0,0.0,0.0,0.0,0.0,0.0,0.0,0.0,0.0,0.0,0.0,0.0,0.0,0.0,0.0,0.0,0.0,0.0,0.0,0.0,0.0,0.0,0.0,0.0,0.0,0.0,0.0,0.0,0.0,0.0,0.0,0.0,0.0,0.0,0.0,0.0,0.0,0.0,0.0,0.0,0.0,0.0,0.0,0.0,0.0,0.0,0.0,0.0,0.0,0.0,0.0,0.0,0.0,0.0,0.0,0.0,0.0,0.0,0.0,0.0,0.0,0.0,0.0,0.0,0.0,0.0,0.0,0.0,0.0,0.0,0.0,0.0,0.0,0.0,0.0,0.0,0.0,0.0,0.0,0.0,0.0,0.0,0.0,0.0,0.0,0.0,0.0,0.0,0.0,0.0,0.0,0.0,0.0,0.0,0.0,0.0,0.0,0.0,0.0,0.0,0.0,0.0,0.0,0.0,0.0,0.0,0.0,0.0,0.0,0.0,0.0,0.0,0.0,0.0,0.0,0.0,0.0,0.0,0.0,0.0,0.0,0.0,0.0,0.0,0.0,0.0,0.0,0.0,0.0,0.0,0.0,0.0,0.0,0.0,0.0,0.0,0.0,0.0,0.0,0.0,0.0,0.0,0.0,0.0,0.0,0.0,0.0,0.0,0.0,0.0,0.0,0.0,0.0,0.0,0.0,0.0,0.0,0.0,0.0,0.0,0.0,0.0,0.0,0.0,0.0,0.0,0.0,0.0,0.0,0.0,0.0,0.0,0.0,0.0,0.0,0.0,0.0,0.0,0.0,0.0,0.0,0.0,0.0,0.0,0.0,0.0,0.0,0.0,0.0,0.0,0.0,0.0,0.0,0.0,0.0,0.0,0.0,0.0,0.0,0.0,0.0,0.0,0.0,0.0,0.0,0.0,0.0,0.0,0.0,0.0,0.0,0.0,0.0,0.0,0.0,0.0,0.0,0.0,0.0,0.0,0.0,0.0,0.0,0.0,0.0,0.0,0.0,0.0,0.0,0.0,0.0,0.0,0.0,0.0,0.0,0.0,0.0,0.0,0.0,0.0,0.0,0.0,0.0,0.0,0.0,0.0,0.0,0.0,0.0,0.0,0.0,0.0,0.0,0.0,0.0,0.0,0.0,0.0,0.0,0.0,0.0,0.0,0.0,0.0,0.0,0.0,0.0,0.0,0.0,0.0,0.0,0.0,0.0,0.0,0.0,0.0,0.0,0.0,0.0,0.0,0.0,0.0,0.0,0.0,0.0,0.0,0.0,0.0,0.0,0.0,0.0,0.0,0.0,0.0,0.0,0.0,0.0,0.0,0.0,0.0,0.0,0.0,-2.4285,0.0,0.0,0.0,0.0,0.0,0.0,0.0,0.0,0.0,0.0,0.0,0.0,0.0,0.0,0.0,0.0,0.0,0.0,0.0,0.0,0.0,0.0,0.0,0.0,0.0,0.0,0.0,0.0,0.0,0.0,0.0,0.0,0.0,0.0,0.0,0.0,0.0,0.0,0.0,-2.8649,-2.88,-2.9352,-2.9352,-2.9503,-2.9804,0.0,0.0,0.0,0.0,0.0,0.0,0.0,0.0,0.0,0.0,0.0,0.0,0.0,0.0,0.0,0.0,0.0,0.0,0.0,0.0,0.0,0.0,0.0,0.0,0.0,0.0,0.0,0.0,0.0,0.0,0.0,0.0,0.0,0.0,0.0,0.0,0.0,0.0,0.0,0.0,0.0,0.0,0.0,0.0,0.0,0.0,0.0,0.0,0.0,0.0,0.0,0.0,0.0,0.0,0.0,0.0,0.0,0.0,0.0,0.0,0.0,0.0,0.0,0.0,0.0,0.0,0.0,0.0,0.0,0.0,0.0,-2.5428,0.0,0.0,0.0,0.0,0.0,0.0,0.0,0.0,0.0,0.0,0.0,0.0,0.0,0.0,0.0,0.0,0.0,0.0,0.0,0.0,0.0,0.0,0.0,0.0,-2.6779,-2.6958,-2.688,0.0,0.0,0.0,0.0,0.0,0.0,0.0,0.0,-2.8624,-2.885,-2.9804,-2.9603,-2.9854,-3.0507,-3.0608,-3.0658,-3.0633,-3.0156,0.0,0.0,0.0,0.0,0.0,0.0,0.0,0.0,0.0,0.0,0.0,0.0,0.0,0.0,0.0,0.0,0.0,0.0,0.0,0.0,0.0,0.0,0.0,0.0,0.0,0.0,0.0,0.0,0.0,0.0,0.0,0.0,0.0,0.0,0.0,0.0,0.0,0.0,0.0,0.0,0.0,0.0,0.0,0.0,0.0,0.0,0.0,0.0,0.0,0.0,0.0,0.0,0.0,0.0,0.0,0.0,0.0,0.0,0.0,0.0,0.0,0.0,0.0,-3.4124,-3.4732,-3.527,-3.5739,-3.5382,-3.422,-3.1143,-2.9107,-2.7818,-2.5495,0.0,0.0,0.0,0.0,0.0,0.0,0.0,0.0,0.0,0.0,0.0,0.0,0.0,0.0,0.0,0.0,0.0,0.0,0.0,0.0,0.0,-2.7685,-2.7652,-2.8109,-2.7979,-2.7921,0.0,0.0,0.0,0.0,0.0,0.0,-2.9654,-2.9603,-2.9654,-2.9804,-3.1135,-3.2315,-3.337,-3.3847,-3.4073,-3.3972,-3.1562,-3.0758,-3.116,0.0,0.0,0.0,0.0,0.0,0.0,0.0,0.0,0.0,0.0,0.0,0.0,0.0,0.0,0.0,0.0,0.0,0.0,0.0,0.0,0.0,0.0,0.0,0.0,0.0,0.0,0.0,0.0,0.0,0.0,0.0,0.0,0.0,0.0,0.0,0.0,0.0,0.0,0.0,0.0,0.0,-3.0182,-2.9648,0.0,0.0,0.0,0.0,0.0,0.0,0.0,0.0,0.0,0.0,0.0,0.0,0.0,-3.3532,-3.4637,-3.5674,-3.6396,-3.6693,-3.7758,-3.8367,-3.8542,-3.8303,-3.809,-3.7817,-3.5793,0.0,-2.9114,-2.7275,0.0,0.0,0.0,0.0,0.0,0.0,0.0,0.0,0.0,0.0,0.0,0.0,0.0,0.0,0.0,0.0,0.0,0.0,0.0,0.0,0.0,-2.8703,-2.902,-2.9017,-2.9858,-3.003,-2.9126,0.0,0.0,0.0,0.0,-2.9528,-2.9779,-2.9804,-3.0407,-3.1637,-3.3294,-3.465,-3.5755,-3.568,-3.5805,-3.6056,-3.4851,-3.3571,-3.229,-3.1411,0.0,0.0,0.0,0.0,0.0,0.0,0.0,0.0,0.0,0.0,0.0,0.0,0.0,0.0,0.0,0.0,0.0,0.0,0.0,0.0,0.0,0.0,0.0,0.0,0.0,0.0,0.0,0.0,0.0,0.0,0.0,0.0,0.0,0.0,0.0,0.0,0.0,0.0,0.0,-3.1168,-3.1951,-3.132,-3.1897,-3.2051,0.0,0.0,0.0,0.0,0.0,0.0,0.0,0.0,0.0,-3.6228,-3.6867,-3.7688,-3.858,-3.9456,-4.0291,-4.1076,-4.1558,-4.2234,-4.2963,-4.2395,-4.2124,-4.2053,-4.0546,-3.7868,-3.4256,-3.0522,-2.8206,-2.6866,0.0,0.0,0.0,0.0,-2.5511,-2.6163,0.0,0.0,0.0,0.0,0.0,0.0,0.0,0.0,0.0,0.0,0.0,0.0,-2.9196,-3.0237,-3.0957,-3.0996,-3.1924,-3.2047,-3.0909,-3.0934,0.0,0.0,0.0,-2.9804,-2.9804,-3.0482,-3.1989,-3.4349,-3.611,-3.7588,-3.8668,-3.8441,-3.8417,-3.8642,-3.8366,-3.6709,-3.4048,-3.2792,-3.1938,-3.132,0.0,0.0,0.0,0.0,0.0,0.0,0.0,0.0,0.0,0.0,0.0,0.0,0.0,0.0,0.0,0.0,0.0,0.0,0.0,0.0,0.0,0.0,0.0,0.0,0.0,0.0,0.0,0.0,0.0,0.0,0.0,0.0,0.0,0.0,0.0,0.0,0.0,-3.3227,-3.4055,-3.289,-3.4457,-3.4893,0.0,0.0,0.0,0.0,0.0,0.0,-3.6816,-3.7593,-3.8899,-4.0844,-4.1512,-4.2208,-4.305,-4.3544,-4.4269,-4.5198,-4.5024,-4.5459,-4.633,-4.5438,-4.5014,-4.4912,-4.3275,-4.1091,-3.8414,-3.3834,-3.0879,-2.9026,-2.7645,-2.7379,-2.7681,-2.7128,-2.7454,-2.8097,0.0,0.0,0.0,0.0,0.0,0.0,0.0,0.0,0.0,0.0,0.0,-2.9222,-3.138,-3.2526,-3.3669,-3.5007,-3.4091,-3.3495,-3.3671,-3.1286,-3.008,-3.0557,-3.008,-2.9804,-2.9804,-3.2365,-3.5027,-3.7764,-3.9921,-4.1605,-4.271,-4.3187,-4.3162,-4.2635,-4.1605,-3.9597,-3.6885,-3.5253,-3.4223,-3.3545,-3.1395,0.0,0.0,0.0,0.0,0.0,0.0,0.0,0.0,0.0,0.0,0.0,0.0,0.0,0.0,0.0,0.0,0.0,0.0,0.0,0.0,0.0,0.0,0.0,0.0,0.0,0.0,0.0,0.0,0.0,0.0,0.0,0.0,0.0,0.0,0.0,0.0,0.0,0.0,-3.3736,-3.6693,0.0,0.0,0.0,0.0,-3.617,-3.8376,-4.006,-4.0757,-4.1976,-4.3544,-4.5488,-4.6156,-4.7039,-4.8333,-4.8362,-4.8373,-4.8478,-4.7869,-4.7637,-4.7666,-4.5988,-4.5279,-4.5155,-4.244,-4.0631,-3.9339,-3.6718,-3.4216,-3.1788,-2.9615,-2.9754,-3.0884,-2.88,-2.9051,-3.0306,0.0,0.0,0.0,0.0,0.0,0.0,0.0,0.0,0.0,-2.8307,-2.9388,-3.0921,-3.3221,-3.5349,-3.6974,-3.8005,-3.7916,-3.7143,-3.5604,-3.3571,-3.219,-3.1662,-3.0809,-3.116,-3.2918,-3.5303,-3.7889,-4.0729,-4.2911,-4.4568,-4.5648,-4.5497,-4.5497,-4.5623,-4.4869,-4.379,-4.2258,-3.8065,-3.578,-3.4731,-3.2541,-3.1311,0.0,0.0,0.0,0.0,0.0,0.0,0.0,0.0,0.0,0.0,0.0,0.0,0.0,0.0,0.0,0.0,0.0,0.0,0.0,0.0,0.0,0.0,0.0,0.0,0.0,0.0,0.0,0.0,0.0,0.0,0.0,0.0,0.0,0.0,0.0,0.0,0.0,-3.9015,-4.1279,0.0,-3.9828,-4.0437,-4.1047,-4.125,-4.2847,-4.4472,-4.5924,-4.6824,-4.7985,-4.9524,-4.9785,-4.993,-4.9988,-4.9988,-4.9756,-4.932,-4.9117,-4.9001,-4.8972,-4.7567,-4.6529,-4.5774,-4.3973,-4.2399,-4.1018,-3.9481,-3.6831,-3.3671,-3.219,-3.1964,-3.2432,-3.1587,-3.1913,-3.2616,0.0,0.0,0.0,0.0,0.0,0.0,0.0,0.0,-2.7777,-2.8595,-3.0189,-3.2306,-3.4972,-3.7736,-3.9809,-4.0927,-4.044,-3.9169,-3.7061,-3.45,-3.2641,-3.1712,-3.1537,-3.2742,-3.5504,-3.8266,-4.1053,-4.384,-4.6075,-4.7531,-4.8234,-4.7857,-4.7782,-4.7933,-4.738,-4.6928,-4.6301,-4.2057,-3.9094,-3.6962,-3.46,-3.3395,-3.2792,0.0,0.0,0.0,0.0,0.0,0.0,0.0,0.0,0.0,0.0,0.0,0.0,0.0,0.0,0.0,0.0,0.0,0.0,0.0,0.0,0.0,0.0,0.0,0.0,0.0,0.0,0.0,0.0,0.0,0.0,0.0,0.0,0.0,0.0,0.0,-4.2207,-4.324,-4.5605,-4.6388,-4.4472,-4.5082,-4.5663,-4.5895,-4.7288,-4.8798,-5.0249,-5.0946,-5.1701,-5.2572,-5.2601,-5.2281,-5.1643,-5.141,-5.1141,-5.0705,-5.022,-5.0066,-5.0008,-4.8449,-4.7423,-4.6642,-4.4988,-4.3526,-4.2195,-4.0923,-3.8582,-3.573,-3.4625,-3.4218,-3.4192,-3.3771,-3.3972,-3.4374,0.0,0.0,0.0,0.0,0.0,0.0,0.0,-2.749,-2.7907,-2.9118,-3.0817,-3.3181,-3.6698,-3.9651,-4.206,-4.372,-4.1363,-3.9341,-3.8089,-3.3847,-3.1185,-3.0708,-3.2315,-3.45,-3.7312,-4.1128,-4.4443,-4.7168,-4.9389,-5.0444,-5.0444,-5.0444,-5.0167,-4.9615,-4.9088,-4.8837,-4.8736,-4.7129,-4.4242,-4.0526,-3.7688,-3.6508,-3.6128,0.0,0.0,0.0,0.0,0.0,0.0,0.0,0.0,0.0,0.0,0.0,0.0,0.0,0.0,0.0,0.0,0.0,0.0,0.0,0.0,0.0,0.0,0.0,0.0,0.0,0.0,0.0,0.0,0.0,0.0,0.0,0.0,0.0,-3.8263,-4.2495,-4.5638,-4.6078,-4.9417,-5.054,-4.7387,-4.9378,-5.0598,-4.9979,-5.1693,-5.2978,-5.3588,-5.4255,-5.4575,-5.4546,-5.4546,-5.4197,-5.35,-5.2862,-5.2594,-5.2536,-5.1316,-5.0705,-5.0618,-4.8653,-4.7782,-4.7601,-4.5298,-4.3701,-4.2689,-4.1108,-3.9483,-3.7964,-3.6857,-3.643,-3.6279,-3.5152,-3.5056,-3.5433,0.0,0.0,0.0,0.0,0.0,0.0,0.0,-2.749,-2.7907,-2.9118,-3.1522,-3.458,-3.8475,-4.1455,-4.3724,-4.5007,-4.2184,-3.97,-3.8114,-3.3847,-3.1687,-3.2365,-3.4751,-3.7739,-4.1304,-4.4016,-4.6753,-4.9515,-5.0544,-5.1046,-5.1046,-5.1046,-5.0971,-5.082,-5.067,-5.0594,-5.0544,-4.9665,-4.8209,-4.6075,-4.1304,-3.8894,-3.7913,0.0,0.0,0.0,0.0,0.0,0.0,0.0,0.0,0.0,0.0,0.0,0.0,0.0,0.0,0.0,0.0,0.0,0.0,0.0,0.0,0.0,0.0,0.0,0.0,0.0,0.0,0.0,0.0,0.0,0.0,0.0,0.0,-4.0495,-4.2091,-4.631,-4.9595,-5.0578,-5.3288,-5.4749,-5.3849,-5.44,-5.4749,-5.4575,-5.5445,-5.6084,-5.6258,-5.6432,-5.6113,-5.5184,-5.5155,-5.44,-5.2833,-5.271,-5.2158,-5.1228,-5.088,-5.0473,-4.995,-4.8449,-4.7376,-4.6517,-4.4228,-4.3081,-4.2716,-4.1482,-4.0496,-3.9556,-3.7701,-3.6757,-3.638,-3.6078,-3.6053,-3.6056,0.0,0.0,0.0,0.0,0.0,0.0,0.0,-2.7382,-2.784,-2.9012,-3.1876,-3.5122,-3.8527,-4.1354,-4.3358,-4.4108,-4.126,-3.8607,-3.6709,-3.3796,-3.2893,-3.4726,-3.7663,-4.0877,-4.4292,-4.6778,-4.9038,-5.1122,-5.1699,-5.1975,-5.1975,-5.1975,-5.1975,-5.1975,-5.1975,-5.1975,-5.1925,-5.1373,-5.0745,-4.9816,-4.5899,-4.3388,-4.163,-3.8391,-3.7236,-3.7086,-3.5027,-3.4776,-3.5152,-3.337,0.0,0.0,0.0,0.0,0.0,0.0,0.0,0.0,0.0,0.0,0.0,0.0,0.0,0.0,0.0,0.0,0.0,0.0,0.0,0.0,0.0,0.0,0.0,0.0,-4.1979,-4.4718,-4.7144,-4.9864,-5.2394,-5.4628,-5.6505,-5.7623,-5.7623,-5.7623,-5.7623,-5.7623,-5.7942,-5.8029,-5.7739,-5.771,-5.7013,-5.5445,-5.5416,-5.4633,-5.2978,-5.2978,-5.2601,-5.1846,-5.1323,-5.0859,-5.0423,-4.8595,-4.747,-4.6785,-4.4922,-4.3606,-4.2792,-4.2571,-4.1506,0.0,0.0,0.0,0.0,0.0,-3.6405,-3.6329,0.0,0.0,0.0,0.0,0.0,0.0,0.0,-2.718,-2.7669,-2.8879,-3.1941,-3.4916,-3.7332,-3.9878,-4.1518,-4.1799,-3.9113,-3.6561,-3.465,-3.3796,-3.4575,-3.7337,-4.083,-4.3865,-4.6527,-4.9238,-5.1122,-5.2201,-5.2678,-5.2929,-5.2929,-5.298,-5.298,-5.2929,-5.298,-5.298,-5.2904,-5.2402,-5.2176,-5.1975,-5.0469,-4.851,-4.61,-4.2459,-4.1605,-4.1986,-3.8843,-3.7561,-3.7059,-3.578,0.0,0.0,0.0,0.0,0.0,0.0,0.0,0.0,0.0,0.0,0.0,0.0,0.0,0.0,0.0,0.0,0.0,0.0,0.0,0.0,0.0,0.0,0.0,0.0,-4.6417,-4.9254,-5.2279,-5.3082,-5.4442,-5.7656,-5.8929,-5.951,-5.951,-5.951,-5.948,-5.9422,-5.9335,-5.8987,-5.8232,0.0,0.0,0.0,0.0,-5.4807,-5.353,-5.35,-5.3442,-5.3297,-5.2165,-5.1527,-5.1323,-4.8972,-4.7793,-4.7554,-4.6229,-4.449,-4.2695,-4.3579,-4.2154,-3.942,-3.9411,-3.8453,-3.7036,-3.6581,-3.6405,-3.6329,0.0,0.0,0.0,0.0,0.0,0.0,0.0,-2.7146,-2.7593,-2.9047,-3.1279,-3.3539,-3.5557,-3.7768,-3.9191,-3.9438,-3.7147,-3.506,-3.3514,-3.4449,-3.6307,-3.9094,-4.3263,-4.6376,-4.8259,-5.0594,-5.2101,-5.2779,-5.2879,-5.2929,-5.2929,-5.3356,-5.3331,-5.2955,-5.3356,-5.3331,-5.2929,-5.2804,-5.2503,-5.2076,-5.1749,-5.0017,-4.738,-4.5321,-4.4091,-4.3288,-4.181,-4.1706,-4.2057,-4.0074,-3.9546,-3.932,-3.6835,0.0,0.0,0.0,0.0,0.0,0.0,0.0,0.0,0.0,0.0,0.0,0.0,0.0,0.0,0.0,0.0,0.0,0.0,0.0,0.0,-4.3623,-4.8222,-5.2198,-5.4521,-5.5635,-5.6278,-5.6596,-5.9091,-6.0816,-6.0816,-6.0816,-6.0613,-6.0061,-5.9568,-5.8784,-5.7565,-5.7507,-5.6636,-5.4749,-5.5155,-5.4807,-5.353,-5.35,-5.3007,-5.1991,0.0,0.0,-5.0017,-4.9001,-4.7789,-4.6401,-4.4851,-4.3128,-4.1518,-4.1716,-4.0931,-3.9464,-3.8548,-3.7479,-3.6556,-3.6455,-3.6405,-3.6279,0.0,0.0,0.0,0.0,0.0,0.0,0.0,-2.6442,-2.6918,-2.8254,-3.0354,-3.218,-3.3519,-3.5071,-3.5853,-3.5692,-3.4241,-3.3467,-3.3872,-3.6232,-3.9245,-4.2836,-4.6175,-4.8736,-5.0393,-5.18,-5.2653,-5.2929,-5.2929,-5.2929,-5.2929,-5.3181,-5.3181,-5.2929,-5.3206,-5.3181,-5.2929,-5.2929,-5.2779,-5.2528,-5.2528,-5.1523,-4.9866,-4.8485,-4.7606,-4.6928,-4.5522,-4.5221,-4.5171,-4.3237,-4.2384,-4.1781,-3.9546,-3.7513,-3.5579,0.0,0.0,0.0,0.0,0.0,0.0,0.0,0.0,0.0,0.0,0.0,0.0,0.0,0.0,-3.6535,0.0,0.0,-4.4983,-4.7111,-5.1043,-5.4398,-5.6016,-5.6658,-5.7442,-5.8575,-5.9569,-6.0409,-6.1133,-6.1193,-6.0932,-6.0264,-5.9916,-5.919,-5.7884,-5.7477,-5.6578,-5.501,-5.4952,-5.4487,-5.353,-5.35,-5.2867,-5.1652,-5.1597,-5.0962,-4.9738,-4.8731,-4.7759,-4.6909,-4.4897,-4.3257,-4.1936,-4.1104,-4.0461,-3.9882,-3.8684,-3.7479,-3.6405,-3.6405,-3.6405,-3.6304,0.0,0.0,0.0,0.0,0.0,0.0,0.0,0.0,-2.6232,-2.7351,-2.9223,-3.0726,-3.1381,-3.2153,-3.2488,-3.1924,-3.1685,-3.2491,-3.468,-3.8115,-4.1907,-4.6125,-4.8636,-5.0619,-5.2076,-5.2653,-5.2929,-5.2929,-5.2929,-5.2929,-5.2929,-5.3155,-5.313,-5.2929,-5.3155,-5.313,-5.2929,-5.2929,-5.2929,-5.2929,-5.2929,-5.2653,-5.2176,-5.1247,-5.077,-5.0368,-4.8786,-4.7631,-4.6627,-4.5372,-4.4141,-4.2911,-4.1706,-4.0249,-3.8442,-3.568,-3.4801,0.0,0.0,0.0,0.0,0.0,0.0,0.0,0.0,0.0,-3.5307,-3.8956,-3.9454,-4.0082,-4.2736,-4.5986,-4.8813,-5.0497,-5.3753,-5.633,-5.6902,-5.6973,-5.8032,-6.069,-5.9896,-5.9588,-6.0899,-6.1019,-6.0729,-6.0061,-5.9916,-5.9335,-5.8174,-5.7367,-5.6301,-5.4916,-5.4486,-5.3909,-5.3184,-5.3395,-5.2775,-5.1363,-5.1275,-5.0492,-4.9113,-4.8006,-4.7243,-4.6737,-4.4419,-4.2958,-4.2133,-4.0969,-4.0314,-4.0034,-3.9138,-3.7891,-3.6556,-3.6455,-3.6405,-3.6329,0.0,0.0,0.0,0.0,0.0,0.0,0.0,0.0,0.0,-2.6952,-2.8023,-2.8802,-2.9061,-2.9476,-2.9644,-2.934,-3.1035,-3.3068,-3.5257,-3.8968,-4.2655,-4.615,-4.9389,-5.1398,-5.2101,-5.2653,-5.2929,-5.2929,-5.2929,-5.2929,-5.2955,-5.3934,-5.3858,-5.298,-5.3959,-5.3833,-5.2929,-5.2929,-5.2929,-5.2929,-5.2929,-5.2879,-5.2829,-5.2703,-5.2051,-5.1021,-4.9841,-4.7807,-4.5723,-4.6024,-4.5045,-4.3765,-4.4066,-4.3363,-4.1882,-3.917,0.0,-3.4449,-3.3144,-3.3088,-3.3452,-3.3568,-3.4523,-3.6535,0.0,0.0,-4.0887,-4.5496,-4.5023,-4.4466,-4.6525,-4.9298,-5.1059,-5.0546,-5.5112,-5.83,-5.7139,-5.6973,-5.7803,-6.0054,-5.9611,-5.9418,-6.0233,-6.0322,-6.0061,-5.9451,-5.8842,-5.8203,-5.7448,-5.6279,-5.4826,-5.3048,-5.3388,-5.3078,-5.192,-5.2943,-5.2368,-5.0125,-5.009,-4.8893,-4.6667,-4.6526,-4.5405,-4.3408,-4.1183,-4.0134,-4.0083,-4.0817,-4.0306,-3.9095,-3.9388,-3.8505,-3.7036,-3.6581,-3.6405,-3.6329,0.0,0.0,0.0,0.0,0.0,0.0,0.0,0.0,0.0,0.0,-2.6813,-2.7445,-2.7845,-2.7759,-2.7637,-2.7494,-2.9528,-3.2164,-3.5282,-3.9471,-4.3438,-4.7079,-4.9841,-5.1548,-5.2101,-5.2653,-5.2929,-5.2929,-5.2929,-5.2929,-5.2929,-5.3406,-5.3356,-5.2955,-5.3406,-5.3356,-5.2929,-5.2929,-5.2929,-5.2929,-5.2929,-5.2729,-5.2377,-5.1724,-5.0393,-4.8812,-4.8335,-4.6577,0.0,0.0,-4.3413,-4.2936,-4.3489,-4.2484,-4.0701,-3.8894,-3.7086,0.0,-3.5347,-3.5185,-3.5365,0.0,-3.7795,-4.0054,-4.4094,-4.4271,-4.5017,-4.999,-4.9523,-4.9035,-5.1619,-5.2631,-5.2983,0.0,-5.4878,-5.6482,-5.5894,-5.5536,-5.566,-5.6786,-5.7201,-5.8171,-6.003,-5.9887,-5.9245,-5.822,-5.8234,-5.7714,-5.6279,-5.5651,-5.502,-5.4302,-5.3761,-5.2921,-5.1702,-5.2517,-5.1742,-4.9417,-4.9389,-4.8461,-4.6782,-4.5777,-4.4079,-4.1899,-4.1001,-4.0211,-3.9749,-4.0185,-3.9931,-3.9346,-3.9269,-3.8788,-3.8015,-3.6857,-3.6405,-3.638,0.0,0.0,0.0,0.0,0.0,0.0,0.0,0.0,0.0,0.0,0.0,-2.6197,-2.6565,-2.6424,-2.6197,-2.6047,-2.8047,-3.0758,-3.4129,-3.8542,-4.2735,-4.6602,-4.9063,-5.082,-5.185,-5.2427,-5.2779,-5.2929,-5.2929,-5.2929,-5.2929,-5.308,-5.3055,-5.2929,-5.308,-5.3055,-5.2929,-5.2929,-5.2929,-5.2904,-5.2754,-5.2277,-5.1473,-5.0067,-4.7958,-4.5773,-4.5924,-4.4267,0.0,0.0,-4.0629,-4.0475,-4.1329,-4.0626,-3.927,-3.8291,-3.7303,-3.6539,-3.6675,0.0,0.0,-3.9932,-4.2101,-4.454,-4.7295,-4.8136,-4.9445,-5.3656,-5.322,-5.2754,-5.5197,-5.5086,-5.4563,-5.4171,-5.4932,-5.5643,-5.5812,-5.4563,-5.3906,-5.4713,-5.4363,-5.5233,-5.835,-5.8697,-5.8378,-5.7385,-5.7571,-5.7024,-5.5303,-5.4658,-5.4172,-5.364,-5.2708,-5.1762,-5.074,-5.1497,-5.0645,-4.8264,-4.8271,-4.7537,-4.6007,-4.4438,-4.2703,-4.1026,-4.0846,-4.0364,-3.9697,-3.9697,-3.9697,-3.9647,-3.9094,-3.8919,-3.8743,-3.7385,-3.6757,-3.6606,0.0,0.0,0.0,0.0,0.0,0.0,0.0,0.0,0.0,0.0,0.0,0.0,0.0,-2.5335,-2.541,-2.4876,-2.6892,-2.9126,-3.1361,-3.568,-3.9873,-4.3765,-4.6552,-4.9038,-5.1247,-5.185,-5.2402,-5.2929,-5.2929,-5.2929,-5.2929,-5.3432,-5.3406,-5.2955,-5.3457,-5.3406,-5.2929,-5.2929,-5.2929,-5.2879,-5.2352,-5.1473,-5.0243,-4.8058,-4.5171,-4.2439,-4.2911,0.0,0.0,-3.7337,-3.6634,-3.5984,-3.7638,-3.8492,0.0,-3.8191,-3.7428,-3.6739,0.0,0.0,-4.2709,-4.4462,-4.768,-5.0663,-5.1479,-5.298,-5.4764,-5.6676,-5.6065,-5.5355,-5.6016,-5.6115,-5.5633,-5.4302,-5.569,-5.7205,-5.788,-5.4826,-5.3267,-5.5128,-5.1256,-5.0054,0.0,-5.6316,-5.7361,-5.7305,-5.681,-5.5902,-5.4684,-5.2834,-5.1013,-4.9305,-4.9134,-4.876,-4.821,-4.9392,-4.8801,-4.6477,-4.6481,-4.5292,-4.3073,-4.194,-4.1081,-4.0503,-3.9975,-3.9749,-3.9697,-3.9697,-3.9697,-3.9647,-3.9094,-3.8919,-3.8844,-3.8191,-3.7613,-3.7086,0.0,0.0,0.0,0.0,0.0,0.0,0.0,0.0,0.0,0.0,0.0,0.0,0.0,0.0,0.0,0.0,-2.5812,-2.7544,-3.0156,-3.4123,-3.7613,-4.04,-4.3865,-4.6426,-4.7958,-4.8862,-4.9967,-5.1272,-5.0896,-5.0896,-5.1247,-5.1071,-5.087,-5.0745,-5.1272,-5.1423,-5.1272,-5.1272,-5.0845,-5.0092,-4.9188,-4.8134,-4.6853,-4.4267,-4.1455,-3.8693,0.0,0.0,0.0,-3.4022,-3.3646,-3.3527,-3.4876,0.0,-3.4399,-3.4223,-3.5583,-3.7545,-3.9177,0.0,-4.6446,-4.8806,-5.1307,-5.3724,-5.5646,-5.6609,-5.7313,-5.8369,-5.6293,-5.4315,-5.463,-5.3152,-5.2077,-5.2465,-5.4313,-5.5327,-5.4275,-5.5347,-5.4678,-5.0419,-5.1726,0.0,0.0,0.0,0.0,-5.4132,-5.4769,-5.4086,-5.1605,-5.1625,-5.1305,-5.0305,-4.9844,-4.909,-4.8094,-4.8501,-4.8099,-4.683,-4.613,-4.4613,-4.2464,-4.1681,-4.0974,-4.0475,-3.9923,-3.9697,-3.9697,-3.9697,-3.9697,-3.9672,-3.9496,-3.9421,-3.9346,-3.8793,-3.8467,-3.8165,0.0,0.0,0.0,0.0,0.0,0.0,0.0,0.0,0.0,0.0,0.0,0.0,0.0,0.0,0.0,0.0,0.0,-2.5963,-2.8147,-3.1185,-3.3972,-3.6383,-3.9446,-4.1806,-4.3313,-4.4217,-4.5397,-4.6878,-4.6728,-4.7029,-4.7757,-4.7606,-4.7631,-4.7832,-4.841,-4.8661,-4.8661,-4.8661,-4.8008,-4.6878,-4.5573,-4.4166,-4.2509,-3.9747,-3.7312,0.0,0.0,0.0,-3.1813,-3.1235,-3.1185,-3.1461,-3.2215,-3.234,-3.2374,-3.3173,-3.5974,-3.9518,-4.2912,-4.6707,-5.0417,-5.329,-5.5254,-5.6901,-5.8292,-5.8621,-5.8446,-5.7683,-5.516,-5.2816,-5.1738,-4.9709,-4.8584,-4.9718,-5.1316,-5.2547,-5.3012,-5.3893,-5.3392,-5.0404,-5.0917,-5.0602,0.0,0.0,0.0,-5.1918,-5.3377,-5.2917,-5.0026,-5.1046,-5.1071,-4.9605,-4.9118,-4.842,-4.7475,-4.7476,-4.7027,-4.62,-4.533,-4.3968,-4.2187,-4.1605,-4.0974,-4.0475,-3.9923,-3.9697,-3.9697,-3.9697,-3.9697,-3.9697,-3.9697,-3.9697,-3.9647,-3.9295,-3.9044,-3.8793,0.0,0.0,0.0,0.0,0.0,0.0,0.0,0.0,0.0,0.0,0.0,0.0,0.0,0.0,0.0,0.0,0.0,0.0,-2.5435,-2.7092,-2.9202,-3.1838,-3.3596,-3.5529,-3.7713,-3.8316,-3.9195,-4.035,-4.0799,-4.163,-4.2685,-4.3187,-4.3689,-4.4217,-4.4794,-4.507,-4.507,-4.507,-4.4418,-4.3237,-4.1551,-3.9672,-3.7462,-3.4751,0.0,0.0,0.0,0.0,0.0,0.0,0.0,0.0,0.0,-3.113,-3.2895,-3.5204,-3.8603,-4.2618,-4.7306,-5.1144,-5.4546,-5.7623,-5.9335,-6.0083,-5.9267,-5.914,-5.8205,-5.4768,-5.2798,-5.0724,0.0,0.0,-4.547,-4.6339,-4.7176,-4.936,-5.3862,-5.1084,-5.0174,0.0,0.0,0.0,0.0,0.0,0.0,-5.0658,0.0,-5.2388,-4.9973,-5.0955,-5.0214,-4.7252,-4.7129,-4.6878,-4.6326,-4.6301,-4.5723,-4.4568,-4.4091,-4.3263,-4.2238,-4.1605,-4.1,-4.0526,-3.9948,-3.9697,-3.9697,-3.9697,-3.9697,-3.9697,-3.9697,-3.9697,-3.9697,-3.9697,-3.9371,-3.8894,0.0,0.0,0.0,0.0,0.0,0.0,0.0,0.0,0.0,0.0,0.0,0.0,0.0,0.0,0.0,0.0,0.0,0.0,-2.4356,-2.5996,-2.7404,-2.8499,-3.0557,-3.2491,-3.4299,-3.4876,-3.6107,-3.804,-3.7764,-3.799,-3.8642,-3.8417,-3.8366,-3.8492,-3.9044,-3.9295,-3.9295,-3.9295,-3.8668,-3.7489,0.0,-3.5203,-3.4123,0.0,0.0,0.0,0.0,0.0,0.0,0.0,0.0,0.0,0.0,-3.4124,-3.6246,-3.9129,-4.2851,-4.6743,-5.0294,-5.4469,-5.8145,-5.9393,-6.0322,-6.0669,-5.9502,-5.8176,-5.601,-5.2105,-4.8499,-4.5034,0.0,0.0,0.0,-4.3336,-4.7777,0.0,-5.0959,-5.3659,0.0,-5.0935,0.0,-5.189,-4.8399,-4.8607,0.0,0.0,-4.9745,-5.0353,-4.9337,-4.948,-4.9235,-4.8617,-4.7592,-4.6878,-4.6326,-4.6301,-4.5547,-4.4016,-4.4292,-4.384,-4.2735,-4.1781,-4.12,-4.1025,-4.0124,-3.9697,-3.9697,-3.9697,-3.9697,-3.9697,-3.9697,-3.9697,-3.9697,-3.9697,-3.9597,-3.9471,0.0,0.0,0.0,0.0,0.0,0.0,0.0,0.0,0.0,0.0,0.0,0.0,0.0,0.0,0.0,0.0,0.0,0.0,0.0,-2.4481,-2.5259,-2.5812,-2.7042,-2.8373,-2.9754,-2.988,-3.0884,-3.2842,-3.2558,-3.296,-3.3947,-3.3897,-3.3972,-3.4243,-3.4751,-3.5002,-3.5002,-3.5002,0.0,0.0,0.0,0.0,0.0,0.0,0.0,0.0,0.0,0.0,0.0,0.0,0.0,-3.4389,-3.6243,-3.8141,-4.047,-4.3974,0.0,-5.0393,-5.3932,-5.7253,-5.9858,-6.0467,-6.0496,-5.9769,-5.7542,-5.53,-5.2358,-4.7431,-4.3788,0.0,0.0,0.0,0.0,0.0,0.0,0.0,-5.085,-5.3012,-5.4311,0.0,-5.3716,0.0,-5.0542,-4.9873,-4.9073,0.0,-4.9322,-4.9837,-4.8978,-4.9614,-4.9563,-4.8618,-4.8078,-4.7581,-4.7029,-4.6552,-4.5824,-4.4895,-4.4719,-4.4166,-4.3288,-4.1957,-4.1275,-4.1225,0.0,-3.9697,-3.9697,-3.9697,-3.9697,-3.9697,-3.9697,-3.9697,-3.9697,-3.9697,-3.9697,-3.9697,0.0,0.0,0.0,0.0,0.0,0.0,0.0,0.0,0.0,0.0,0.0,0.0,0.0,0.0,0.0,0.0,0.0,0.0,0.0,0.0,0.0,-2.3879,-2.4029,-2.4506,-2.536,-2.5084,-2.5636,-2.7067,-2.7178,-2.7957,-2.9352,-2.9829,0.0,0.0,0.0,0.0,0.0,0.0,0.0,0.0,0.0,0.0,0.0,0.0,0.0,0.0,0.0,0.0,0.0,0.0,-3.5683,-3.6952,-4.0392,-4.2851,-4.5275,-4.924,-5.1636,-5.3852,-5.7568,-5.948,-6.0555,-6.1077,-6.0119,-5.8119,-5.4655,-5.1623,-4.7947,-4.2158,0.0,-3.6876,-3.4424,-3.5325,-3.6999,-3.8635,0.0,-4.6439,-5.1625,-5.0896,-5.2158,-5.826,-5.4303,-5.1845,-5.3913,-5.1562,-4.969,-4.9138,-5.0138,-5.0286,-4.9078,-5.0418,-5.0238,-4.8121,-4.8435,-4.8385,-4.7807,-4.6878,-4.6301,-4.6075,-4.5095,-4.4292,-4.3639,-4.2003,-4.1275,-4.1225,-4.0174,0.0,-3.9697,-3.9697,-3.9697,-3.9697,-3.9697,-3.9697,-3.9697,-3.9697,-3.9697,-3.9697,0.0,0.0,0.0,0.0,0.0,0.0,0.0,0.0,0.0,0.0,-2.3362,-2.3095,0.0,0.0,0.0,0.0,0.0,0.0,0.0,0.0,0.0,0.0,-2.4148,-2.4556,-2.428,0.0,0.0,0.0,0.0,0.0,-2.7077,-2.7178,0.0,0.0,0.0,0.0,0.0,0.0,0.0,0.0,0.0,0.0,0.0,0.0,0.0,0.0,0.0,0.0,0.0,0.0,-3.8351,-4.0402,-4.4359,-4.7677,-5.0832,-5.4244,-5.6152,-5.7626,-5.9364,-6.0787,-6.1658,-6.128,-5.9422,-5.6731,-5.3317,-4.8985,0.0,0.0,0.0,-3.3834,-3.1665,-3.3628,0.0,-3.8543,0.0,0.0,0.0,0.0,-5.1716,0.0,0.0,0.0,0.0,0.0,0.0,0.0,0.0,-5.0932,-5.0416,-5.0066,-4.9519,-4.8636,-4.8259,-4.7807,-4.728,-4.7018,-4.6301,-4.492,-4.4719,-4.4091,-4.3087,-4.1882,-4.1275,-4.1225,-4.0174,0.0,-3.9697,-3.9697,-3.9697,-3.9697,-3.9697,-3.9697,-3.9697,-3.9697,-3.9697,-3.9697,0.0,0.0,0.0,0.0,0.0,0.0,0.0,-2.2507,-2.3616,-2.44,-2.4723,-2.4757,-2.4456,-2.3898,-2.3577,0.0,0.0,0.0,0.0,0.0,0.0,0.0,0.0,0.0,0.0,0.0,0.0,0.0,0.0,0.0,0.0,0.0,0.0,0.0,0.0,0.0,0.0,0.0,0.0,0.0,0.0,0.0,0.0,0.0,0.0,0.0,0.0,0.0,0.0,0.0,-3.8168,-4.1542,-4.6994,-5.1193,-5.4546,-5.6752,-5.8058,-5.9103,-6.038,-6.1164,-6.1483,-6.0845,-5.8232,-5.4569,-4.9699,0.0,0.0,0.0,0.0,-3.1698,-3.041,0.0,0.0,0.0,0.0,0.0,0.0,0.0,0.0,0.0,0.0,0.0,0.0,0.0,0.0,0.0,0.0,-5.0731,-5.0538,-4.9697,-4.9163,-4.9213,-4.8109,-4.7807,-4.841,-4.728,-4.6577,-4.6326,-4.5171,-4.4342,-4.379,-4.2384,-4.1756,-4.1731,-4.0902,0.0,-4.0526,-4.0249,-4.0124,-4.0099,-3.9798,-3.9697,-3.9697,-3.9697,-3.9697,-3.9697,0.0,0.0,0.0,0.0,0.0,0.0,0.0,-2.2537,-2.3468,-2.5039,-2.5798,-2.6193,-2.6163,-2.5059,-2.4305,0.0,0.0,0.0,0.0,0.0,0.0,0.0,0.0,0.0,0.0,0.0,0.0,0.0,0.0,0.0,0.0,0.0,0.0,0.0,0.0,0.0,0.0,0.0,0.0,0.0,0.0,0.0,0.0,0.0,0.0,0.0,0.0,0.0,0.0,0.0,-3.686,-4.0766,-4.651,-5.1764,-5.5971,-5.7078,-5.8407,-5.9742,-6.0874,-6.128,-6.1164,-6.0235,-5.7042,-5.2502,-4.6451,-4.1938,0.0,0.0,-3.0532,-3.0306,-2.988,0.0,0.0,0.0,0.0,0.0,0.0,0.0,0.0,0.0,0.0,0.0,0.0,0.0,0.0,0.0,0.0,0.0,-5.0243,-4.9414,-4.9138,-4.959,-4.8234,-4.8033,-4.9213,-4.7405,-4.6728,-4.7179,-4.5447,-4.4493,-4.4217,-4.2811,-4.2213,-4.2187,-4.158,0.0,0.0,-4.0877,-4.0626,-4.0475,-4.0049,-3.9798,-3.9697,-3.9697,-3.9697,-3.9697,0.0,0.0,0.0,0.0,0.0,0.0,0.0,-2.2099,-2.3869,-2.5515,-2.5441,-2.5886,-2.7698,-2.6414,-2.5259,0.0,0.0,0.0,0.0,0.0,0.0,0.0,0.0,0.0,0.0,0.0,0.0,0.0,0.0,0.0,0.0,0.0,0.0,0.0,0.0,0.0,0.0,0.0,0.0,0.0,0.0,0.0,0.0,0.0,0.0,0.0,0.0,0.0,0.0,0.0,0.0,-3.7487,-3.9942,-4.6716,-5.3864,-5.431,0.0,0.0,-6.099,-6.16,-6.16,-5.9829,-5.6055,-5.1344,-4.5727,0.0,0.0,-3.1527,-3.0206,-2.9854,-2.9804,-3.0435,0.0,0.0,0.0,0.0,0.0,0.0,0.0,0.0,0.0,0.0,0.0,0.0,0.0,0.0,0.0,0.0,-4.9715,-4.9565,-4.954,-4.959,-4.8962,-4.8435,-4.8058,-4.738,-4.6351,-4.492,-4.4719,-4.4091,-4.3112,-4.2514,-4.2213,-4.2187,-4.158,0.0,0.0,-4.1225,-4.0924,-4.0501,-4.045,-4.0149,-3.9697,-3.9697,-3.9697,-3.9697,0.0,0.0,0.0,0.0,0.0,0.0,-2.0695,-2.1912,-2.3422,-2.5189,-2.5723,-2.6434,-2.7675,-2.6944,-2.6068,-2.5319,0.0,0.0,0.0,0.0,0.0,0.0,0.0,0.0,0.0,0.0,0.0,0.0,0.0,0.0,0.0,0.0,0.0,0.0,0.0,0.0,0.0,0.0,0.0,0.0,0.0,0.0,0.0,0.0,0.0,0.0,0.0,0.0,0.0,0.0,0.0,0.0,-3.426,-3.9016,0.0,0.0,-5.3924,-5.7245,-5.9451,-6.0787,-6.1106,-5.919,-5.4918,-4.9791,-4.4518,0.0,0.0,-3.0874,-2.9955,-2.9804,-2.9804,-3.0256,-3.1145,0.0,0.0,0.0,0.0,0.0,0.0,0.0,0.0,0.0,0.0,0.0,0.0,0.0,0.0,0.0,-5.0142,-4.9766,-4.9439,-4.9113,-4.856,-4.8134,-4.7908,-4.7054,-4.6476,-4.6065,-4.5095,-4.4392,-4.394,-4.3062,-4.2715,-4.269,-4.2434,0.0,0.0,-4.1957,-4.1505,-4.0924,-4.0651,-4.0174,-3.9697,-3.9697,-3.9697,-3.9697,0.0,0.0,0.0,0.0,0.0,-1.9541,-2.0907,-2.1606,-2.2706,-2.4723,-2.5588,-2.6248,-2.6931,-2.6828,-2.6455,-2.5787,-2.6211,0.0,0.0,0.0,0.0,0.0,0.0,0.0,0.0,0.0,0.0,-2.6499,0.0,0.0,0.0,0.0,0.0,0.0,0.0,0.0,0.0,0.0,0.0,0.0,0.0,0.0,0.0,0.0,0.0,0.0,0.0,0.0,0.0,0.0,0.0,0.0,0.0,0.0,0.0,0.0,-4.9717,-5.3732,-5.685,-5.9044,-5.9887,-5.7942,-5.3669,-4.8517,0.0,0.0,-3.3636,-3.0427,-2.9804,-2.9804,-2.9804,-3.0105,-3.0608,0.0,0.0,-3.3208,0.0,0.0,0.0,0.0,0.0,0.0,0.0,0.0,0.0,0.0,0.0,0.0,-5.0444,-4.9741,-4.9163,-4.8786,-4.8209,-4.7832,-4.7682,-4.6602,-4.6175,-4.6316,-4.502,-4.4292,-4.4116,-4.3338,-4.2986,-4.2986,-4.2986,0.0,0.0,-4.2439,-4.1831,-4.1225,-4.0727,-4.0174,-3.9697,-3.9697,-3.9697,-3.9645,0.0,0.0,0.0,0.0,0.0,0.0,-2.0907,-2.1114,-2.1928,-2.4224,-2.4678,-2.4997,-2.5539,-2.6166,-2.6377,-2.6009,-2.6311,0.0,0.0,0.0,0.0,0.0,0.0,0.0,0.0,0.0,-2.6474,-2.6499,-2.7027,-2.7268,0.0,0.0,0.0,0.0,0.0,0.0,0.0,0.0,0.0,0.0,0.0,0.0,0.0,0.0,0.0,0.0,0.0,0.0,0.0,0.0,0.0,0.0,0.0,0.0,0.0,0.0,-4.4655,-5.02,-5.3213,-5.6164,-5.7855,-5.5939,-5.2296,-4.7706,0.0,0.0,-3.3636,-3.0427,-2.9804,-2.9804,-2.9804,-2.9804,-3.0156,-3.121,0.0,0.0,0.0,0.0,0.0,0.0,0.0,0.0,0.0,0.0,0.0,0.0,0.0,0.0,-5.0419,-4.9389,-4.8786,-4.8761,-4.8209,-4.7657,-4.7093,-4.605,-4.5221,-4.4644,-4.4091,-4.3514,-4.2986,-4.2986,-4.2986,0.0,0.0,0.0,0.0,-4.2439,-4.1831,-4.1225,-4.0727,-4.0174,-3.9697,-3.9697,-3.9697,-3.9645,0.0,0.0,0.0,0.0,0.0,0.0,0.0,-2.0452,-2.1104,-2.2471,-2.2977,-2.3643,-2.4726,-2.5162,-2.5538,-2.602,-2.6346,0.0,0.0,0.0,0.0,0.0,0.0,0.0,0.0,0.0,-2.7052,-2.7052,-2.757,-2.7846,-2.7846,-2.8021,-2.8021,0.0,0.0,0.0,0.0,0.0,0.0,0.0,0.0,0.0,0.0,0.0,0.0,0.0,0.0,0.0,0.0,0.0,0.0,0.0,0.0,0.0,0.0,-3.3402,0.0,0.0,-4.6812,-4.9277,-5.0665,-4.8443,-4.5686,-4.2533,-3.872,0.0,-3.2311,-3.0234,-2.9804,-2.9804,-2.9804,-2.9804,-3.0407,-3.224,0.0,0.0,0.0,0.0,0.0,0.0,0.0,0.0,0.0,0.0,0.0,0.0,0.0,0.0,-4.9866,-4.9163,-4.8586,-4.8184,-4.7305,-4.6728,-4.6577,-4.5447,-4.4995,-4.5196,-4.4242,-4.3714,-4.3539,-4.3162,-4.2986,0.0,0.0,0.0,0.0,-4.2439,-4.1831,-4.1225,-4.0727,-4.0174,-3.9697,-3.9697,-3.9697,-3.9645,0.0,0.0,0.0,0.0,0.0,0.0,0.0,-1.9996,-2.0493,-2.1424,-2.2063,-2.2768,-2.3642,-2.4234,-2.483,-2.5557,-2.5898,0.0,0.0,0.0,0.0,0.0,0.0,0.0,0.0,-2.6887,-2.7197,-2.7197,-2.8137,-2.8475,-2.8312,-2.8624,-2.8575,-2.8287,-2.7937,0.0,0.0,0.0,0.0,0.0,0.0,0.0,-2.9804,0.0,0.0,0.0,0.0,0.0,0.0,0.0,0.0,0.0,0.0,0.0,0.0,0.0,-3.4208,-3.8283,0.0,-4.4108,-4.5784,-4.4098,-4.1944,-3.9515,-3.677,-3.3962,-3.1512,-3.008,-2.9804,-2.9804,-2.9804,-2.9804,-3.0382,-3.2139,0.0,0.0,0.0,0.0,0.0,0.0,0.0,0.0,0.0,0.0,0.0,0.0,0.0,0.0,-4.9314,-4.8761,-4.8184,-4.7631,-4.6979,-4.6426,-4.5999,-4.5095,-4.4694,-4.4844,-4.3915,-4.3489,-4.3489,-4.3137,-4.2986,0.0,0.0,0.0,0.0,-4.2158,-4.1656,-4.12,-4.0501,-3.9998,-3.9697,-3.9594,-3.9594,-3.9594,0.0,0.0,0.0,0.0,0.0,0.0,0.0,-1.9803,-2.0135,-2.0948,-2.1773,-2.2305,-2.2434,-2.337,-2.4242,-2.4723,0.0,0.0,0.0,0.0,0.0,0.0,0.0,0.0,-2.6213,-2.676,-2.7069,-2.7069,-2.866,-2.9206,-2.871,-2.9579,-2.9505,-2.8685,-2.8673,-2.8375,-2.7891,-2.8161,-2.8534,-2.895,-2.9258,-2.9521,0.0,0.0,0.0,0.0,0.0,0.0,0.0,0.0,0.0,0.0,0.0,0.0,0.0,0.0,0.0,0.0,0.0,-4.011,0.0,0.0,-4.0091,-3.7957,-3.5752,-3.3209,0.0,-3.0005,-2.9804,-2.9804,-2.9905,-2.988,-3.0256,-3.1436,0.0,0.0,0.0,0.0,0.0,0.0,0.0,0.0,0.0,0.0,0.0,0.0,0.0,0.0,-4.8736,-4.8159,-4.7606,-4.6968,-4.7029,-4.6527,-4.5497,-4.4869,-4.4317,-4.379,-4.3237,-4.2986,-4.2986,-4.2986,-4.2986,0.0,0.0,0.0,0.0,-4.1756,-4.125,-4.1175,-4.0124,-3.9697,-3.9645,-3.9362,-3.9413,-3.9542,0.0,0.0,0.0,0.0,0.0,0.0,0.0,0.0,0.0,0.0,-2.1345,-2.1941,-2.1942,-2.273,-2.3542,0.0,0.0,0.0,0.0,0.0,0.0,0.0,0.0,0.0,-2.6213,-2.7108,-2.7605,-2.7593,-2.9206,-2.9871,-2.9613,-3.0237,-3.0188,-2.9564,-2.9326,-2.8985,-2.8637,-2.8232,-2.8541,-2.9283,-2.9174,-2.9326,0.0,0.0,0.0,0.0,-2.9804,-2.9804,0.0,0.0,0.0,0.0,0.0,0.0,0.0,0.0,-3.008,-3.041,-3.1512,0.0,-3.4607,-3.3627,-3.329,-3.2953,0.0,-3.1261,-3.0608,-2.993,-2.9804,-3.0055,-3.0859,-3.0683,-3.1185,0.0,0.0,0.0,0.0,0.0,0.0,0.0,0.0,0.0,0.0,0.0,0.0,0.0,0.0,-4.8711,-4.8134,-4.7606,-4.6878,-4.5899,-4.5874,-4.5748,-4.5497,-4.4493,-4.394,-4.379,-4.3237,-4.2986,-4.2986,-4.2986,-4.2986,0.0,0.0,0.0,-4.2861,-4.1329,-4.0899,-4.1175,-3.9915,-3.9362,-3.9362,-3.905,-3.8945,-3.8945,0.0,0.0,0.0,0.0,0.0,0.0,0.0,0.0,0.0,0.0,0.0,0.0,0.0,0.0,0.0,0.0,0.0,0.0,0.0,0.0,0.0,0.0,0.0,-2.6402,-2.6648,-2.7496,-2.7877,-2.7901,-2.9253,-2.9877,-2.978,-2.9951,-2.9926,-2.9731,-2.9337,-2.91,-2.8958,-2.8456,-2.8626,-2.9223,-2.9131,0.0,0.0,0.0,0.0,0.0,-2.9804,-2.9804,0.0,-2.9804,-2.9804,-2.9804,0.0,0.0,0.0,0.0,-2.9804,-2.9804,-2.9804,-3.0783,-3.1687,-3.111,-3.1185,-3.1311,-3.1035,-3.0583,0.0,0.0,0.0,0.0,0.0,0.0,0.0,0.0,0.0,0.0,0.0,0.0,0.0,0.0,0.0,0.0,0.0,0.0,0.0,0.0,0.0,-4.851,-4.7933,-4.7405,-4.6627,-4.5522,-4.5497,-4.5246,-4.4719,-4.4116,-4.3689,-4.3413,-4.3112,-4.2986,-4.2986,-4.2986,-4.2891,0.0,0.0,0.0,-4.2133,-4.1003,-4.0595,-4.0664,-3.971,-3.9206,-3.905,-3.8736,-3.8684,-3.8736,0.0,0.0,0.0,0.0,0.0,0.0,0.0,0.0,0.0,0.0,0.0,0.0,0.0,0.0,0.0,0.0,0.0,0.0,0.0,0.0,0.0,0.0,0.0,-2.6651,-2.7186,-2.7721,-2.7989,-2.7989,-2.9229,-2.9837,-2.9796,-2.9784,-2.9777,-2.9691,-2.9116,-2.8968,-2.9052,-2.8657,-2.8697,-2.9052,-2.9091,0.0,0.0,0.0,0.0,0.0,0.0,0.0,0.0,-2.9804,-2.9804,-2.9804,-2.9804,0.0,0.0,0.0,0.0,0.0,-2.9905,-3.0708,-3.1461,-3.121,-3.121,-3.126,-3.116,0.0,0.0,0.0,0.0,0.0,0.0,-3.0557,0.0,0.0,0.0,0.0,0.0,0.0,0.0,0.0,0.0,0.0,0.0,0.0,0.0,0.0,0.0,-4.8309,-4.7807,-4.7205,-4.6426,-4.5397,-4.5271,-4.4719,-4.3689,-4.3765,-4.3514,-4.2986,-4.2986,-4.2986,-4.2986,-4.2942,-4.2665,-4.2213,0.0,0.0,-4.1225,-4.0651,-4.0267,-4.0028,-3.9429,-3.905,-3.8736,-3.8473,-3.8473,-3.8631,0.0,0.0,0.0,0.0,0.0,0.0,0.0,0.0,0.0,0.0,0.0,0.0,0.0,0.0,0.0,0.0,0.0,0.0,0.0,0.0,0.0,-2.6866,-2.6578,-2.6651,-2.7186,-2.7721,-2.7989,-2.7989,-2.9966,-3.0852,-3.0724,-3.1621,-3.1419,-3.0257,-2.9535,-2.9173,-2.9052,-2.8657,-2.8618,-2.887,-2.9013,0.0,0.0,0.0,0.0,0.0,0.0,0.0,0.0,-2.9804,-2.9804,-2.9804,-2.9804,0.0,0.0,0.0,0.0,0.0,-3.0357,-3.126,-3.1763,-3.0382,-3.0382,-3.0608,-3.0156,0.0,0.0,0.0,0.0,0.0,0.0,0.0,0.0,0.0,0.0,0.0,0.0,0.0,0.0,0.0,0.0,0.0,0.0,0.0,0.0,0.0,0.0,-4.7355,-4.7255,-4.6276,-4.5447,-4.4769,-4.4292,-4.3765,-4.3112,-4.3564,-4.3514,-4.2986,-4.2986,-4.2986,-4.2961,-4.2539,-4.2288,-4.2162,0.0,-4.0978,-4.12,-4.0249,-3.9942,-4.0028,-3.922,-3.8736,-3.8421,-3.8133,-3.808,-3.808,0.0,0.0,0.0,0.0,0.0,0.0,0.0,0.0,0.0,0.0,0.0,0.0,0.0,0.0,0.0,0.0,0.0,0.0,0.0,0.0,-2.6478,-2.7282,-2.7203,-2.7338,-2.7869,-2.873,-2.9141,-2.9141,-3.0984,-3.1858,-3.1745,-3.1673,-3.097,-2.9777,-2.914,-2.8819,-2.8736,-2.8578,-2.8538,-2.8657,0.0,0.0,0.0,0.0,0.0,0.0,0.0,0.0,0.0,0.0,-2.9804,-2.9804,-2.9804,0.0,0.0,0.0,0.0,0.0,-3.0105,-3.0758,-3.116,-3.0432,-3.0859,-3.126,-3.0432,0.0,0.0,0.0,0.0,0.0,0.0,0.0,0.0,0.0,0.0,0.0,0.0,0.0,0.0,0.0,0.0,0.0,0.0,0.0,0.0,0.0,0.0,0.0,-4.6702,-4.5924,-4.5095,-4.4217,-4.394,-4.3539,-4.2986,-4.3237,-4.3212,-4.2986,-4.2986,-4.2986,-4.2961,-4.2464,-4.2037,-4.1681,0.0,-4.0501,-4.04,-3.9898,-3.9588,-3.9343,-3.8939,-3.8579,-3.8185,-3.8051,-3.7974,-3.7974,0.0,0.0,0.0,0.0,0.0,0.0,0.0,0.0,0.0,0.0,0.0,0.0,0.0,0.0,0.0,0.0,0.0,0.0,0.0,0.0,-2.6839,-2.7642,-2.781,-2.8162,-2.8691,-2.9605,-3.0206,-3.0446,-3.2082,-3.2851,-3.2827,-3.1625,-3.0494,-2.946,-2.8931,-2.8619,-2.8522,-2.8522,-2.8522,-2.8498,0.0,0.0,0.0,0.0,0.0,0.0,0.0,0.0,0.0,0.0,0.0,0.0,0.0,0.0,0.0,-2.9804,-2.9804,-2.9829,-2.9955,-3.0382,-3.0758,-3.0658,-3.1235,-3.1712,-3.1286,-3.0758,0.0,0.0,0.0,0.0,0.0,0.0,0.0,0.0,0.0,0.0,0.0,0.0,0.0,0.0,0.0,0.0,0.0,0.0,0.0,0.0,0.0,0.0,-4.5949,-4.5522,-4.4819,-4.384,-4.3689,-4.3413,-4.2986,-4.2916,-4.2916,-4.2986,-4.2986,-4.2986,-4.2961,-4.2283,-4.1731,-4.125,-4.0626,-4.0074,-3.9697,-3.9645,-3.9258,-3.8788,-3.8736,-3.8421,-3.7974,-3.7974,-3.7974,-3.7974,0.0,0.0,0.0,0.0,0.0,0.0,0.0,0.0,0.0,0.0,0.0,0.0,0.0,0.0,0.0,0.0,0.0,0.0,0.0,0.0,-2.7633,-2.769,-2.8186,-2.8691,-2.922,-2.9797,-3.0567,-3.1597,-3.314,-3.3886,-3.3838,-3.2346,-3.1091,-3.0013,-2.9484,-2.8979,-2.8522,-2.8522,-2.8522,-2.8498,-2.8736,0.0,0.0,0.0,0.0,0.0,0.0,0.0,0.0,0.0,0.0,0.0,0.0,0.0,-2.9804,-2.9804,-2.9804,-2.9905,-3.0407,-3.0934,-3.121,-3.0733,-3.0683,-3.111,-3.2566,-3.2441,0.0,-3.4148,0.0,0.0,0.0,0.0,0.0,0.0,0.0,0.0,0.0,0.0,0.0,0.0,0.0,0.0,0.0,0.0,0.0,0.0,0.0,0.0,-4.4794,-4.4719,-4.4418,-4.3815,-4.3313,-4.3011,-4.2986,-4.2514,-4.2514,-4.2986,-4.2986,-4.2986,-4.2936,-4.1882,-4.1326,-4.1225,-4.0224,-3.9722,-3.9697,-3.9413,-3.9102,-3.8788,-3.8526,-3.8238,-3.7974,-3.7974,-3.7974,-3.7974,0.0,0.0,0.0,0.0,0.0,0.0,0.0,0.0,0.0,0.0,0.0,0.0,0.0,0.0,0.0,0.0,0.0,0.0,0.0,-2.697,-2.7498,-2.8186,-2.8402,-2.8763,-2.9292,-3.0807,-3.2106,-3.314,-3.4078,-3.415,-3.3525,-3.1913,-3.0826,-3.0037,-2.9196,-2.8691,-2.8522,-2.8522,-2.8522,-2.8498,-2.8578,-2.8578,0.0,0.0,0.0,0.0,0.0,0.0,0.0,0.0,-2.956,-2.956,-2.974,-2.9804,-2.9804,-2.9804,-2.9804,-2.9829,-3.0055,-3.0507,-3.0934,-3.106,-3.111,-3.1436,-3.2767,-3.3169,-3.3822,-3.583,-3.6533,0.0,0.0,0.0,0.0,0.0,0.0,0.0,0.0,0.0,0.0,0.0,0.0,0.0,0.0,0.0,0.0,0.0,0.0,0.0,-4.4141,-4.4116,-4.3689,-4.2811,-4.264,-4.2308,-4.1957,-4.1756,-4.1756,-4.1957,-4.1957,-4.2308,-4.2936,-4.148,-4.0974,-4.1225,-4.0174,-3.9594,-3.9413,-3.931,-3.8998,-3.8526,-3.8262,-3.808,-3.7974,-3.7974,-3.7974,-3.7974,0.0,0.0,0.0,0.0,0.0,0.0,0.0,0.0,0.0,0.0,0.0,0.0,0.0,0.0,0.0,0.0,0.0,0.0,-2.6849,-2.721,-2.7714,-2.8474,-2.8522,-2.8835,-2.9532,-3.1312,-3.2755,-3.3789,-3.427,-3.4054,-3.302,-3.1553,-3.0591,-3.0062,-2.934,-2.8907,-2.8763,-2.8763,-2.8667,-2.8522,-2.8522,-2.8522,0.0,0.0,0.0,0.0,0.0,0.0,0.0,0.0,-2.9341,-2.9341,-2.9702,-2.9702,-2.9624,-2.974,-2.974,-2.9702,-2.9779,-3.0055,-3.0482,-3.1009,-3.1537,-3.234,-3.3997,-3.455,-3.5403,-3.7965,-3.8517,0.0,0.0,0.0,0.0,0.0,0.0,0.0,0.0,0.0,0.0,0.0,0.0,0.0,0.0,0.0,0.0,0.0,0.0,0.0,0.0,-4.3539,-4.3112,-4.2238,-4.2037,-4.1731,-4.1275,-4.1125,-4.1125,-4.1275,-4.0924,-4.1404,-4.2409,-4.1103,-4.0727,-4.0974,-4.0099,-3.9542,-3.9258,-3.9206,-3.8788,-3.8262,-3.808,-3.7974,-3.7974,-3.7974,-3.7974,-3.7974,0.0,0.0,0.0,0.0,0.0,0.0,0.0,0.0,0.0,0.0,0.0,0.0,0.0,0.0,0.0,0.0,0.0,0.0,-2.6898,-2.7921,-2.8498,-2.8522,-2.8522,-2.9003,-3.0037,-3.1139,-3.2223,-3.3284,-3.3789,-3.3454,-3.2466,-3.1384,-3.0591,-3.0086,-3.0086,-2.9797,-2.9292,-2.9292,-2.9003,-2.8522,-2.8522,-2.8522,-2.8522,0.0,0.0,0.0,0.0,0.0,0.0,0.0,-2.9263,-2.917,-2.9663,-2.9468,-2.917,-2.9663,-2.9599,-2.9482,-2.974,-2.9804,-2.993,-3.0482,0.0,0.0,-3.6558,-3.6784,-3.7362,-4.0623,-4.0475,-3.9546,-3.9045,0.0,0.0,0.0,0.0,0.0,0.0,0.0,0.0,0.0,0.0,0.0,0.0,0.0,0.0,0.0,0.0,0.0,0.0,-4.2961,-4.2766,-4.2213,-4.1605,-4.1275,-4.1275,-4.0777,-4.0777,-4.125,-4.0224,-4.0275,-4.1275,-4.0752,-4.0501,-4.0475,-3.9923,-3.9542,-3.9258,-3.8945,-3.8473,-3.7974,-3.7974,-3.7974,-3.7974,-3.7974,-3.7974,-3.7974,0.0,0.0,0.0,0.0,0.0,0.0,0.0,0.0,0.0,0.0,0.0,0.0,0.0,0.0,0.0,0.0,0.0,0.0,-2.7426,-2.7738,-2.8114,-2.8498,-2.8522,-2.8667,-2.8979,-3.0013,-3.1264,-3.2731,-3.3621,-3.3116,-3.136,-3.1023,-3.0826,-3.0639,-3.0639,-3.0134,-2.9292,-2.9292,-2.922,-2.9027,-2.8667,-2.8955,-2.9532,0.0,0.0,0.0,0.0,0.0,0.0,0.0,0.0,0.0,-2.9209,-2.948,-2.9662,-2.9543,-2.9731,-2.9955,-2.9841,-3.008,-3.0583,-3.1512,0.0,0.0,0.0,-3.7965,0.0,0.0,-4.1028,-4.035,-4.0576,0.0,0.0,0.0,0.0,0.0,0.0,0.0,0.0,0.0,0.0,0.0,0.0,0.0,0.0,0.0,0.0,0.0,0.0,-4.2032,-4.158,-4.1028,-4.0852,-4.0576,-4.0199,-4.0023,-4.0023,-4.0174,-3.9848,-4.0275,-4.125,-4.0375,-4.0149,-4.0475,-3.9715,-3.9258,-3.8893,-3.8421,-3.8133,-3.7974,-3.7974,-3.7974,-3.7974,-3.7974,-3.7974,-3.7974,0.0,0.0,0.0,0.0,0.0,0.0,0.0,0.0,0.0,0.0,-2.392,-2.4484,0.0,0.0,0.0,0.0,0.0,0.0,0.0,-2.7921,-2.8186,-2.8498,-2.8522,-2.8619,-2.8811,-3.0062,-3.0879,-3.124,-3.2274,-3.2034,-3.0609,-3.1216,-3.1288,-3.0946,-3.1597,-3.112,-2.9917,-2.9917,-2.9797,-2.9581,-2.9268,-2.9508,-2.9989,0.0,0.0,0.0,0.0,0.0,0.0,0.0,0.0,0.0,-2.9013,-2.9273,-2.9469,-2.9401,-2.9603,-2.988,-2.9802,-3.0206,0.0,-3.224,-3.3571,-3.5328,-3.8316,0.0,0.0,0.0,0.0,-4.1279,-4.1605,0.0,0.0,0.0,0.0,0.0,0.0,0.0,0.0,0.0,0.0,0.0,0.0,0.0,0.0,0.0,0.0,0.0,0.0,-4.1304,-4.0799,-4.0526,-4.03,-4.0023,-3.9697,-3.9697,-3.9697,-3.9697,-3.9697,-4.0049,-4.0651,-3.9998,-3.9821,-3.9965,-3.925,-3.8841,-3.8631,-3.821,-3.7974,-3.7974,-3.7974,-3.7974,-3.7974,-3.7974,-3.7974,-3.7974,0.0,0.0,0.0,0.0,0.0,0.0,0.0,0.0,0.0,0.0,-2.5229,-2.5324,0.0,0.0,0.0,0.0,0.0,0.0,0.0,0.0,-2.8522,-2.8522,-2.857,-2.8811,-2.9292,-3.0711,-3.0754,-2.922,-3.0326,-3.0657,-3.011,-3.1697,-3.1889,-3.1067,-3.2587,-3.2394,-3.0922,-3.0922,-3.0591,-3.0158,-3.011,-3.0134,-3.0158,-2.9532,0.0,0.0,0.0,0.0,0.0,0.0,0.0,0.0,-2.9007,-2.9007,-2.8904,-2.9248,-2.9365,-2.9493,-2.9777,-3.0281,-3.1085,-3.2792,-3.4575,0.0,-3.9823,-4.1706,-4.2836,-4.2886,0.0,-4.2288,0.0,0.0,0.0,0.0,0.0,0.0,0.0,0.0,0.0,0.0,0.0,0.0,0.0,0.0,0.0,0.0,0.0,0.0,0.0,-4.0752,-4.045,-4.045,-3.9948,-3.9697,-3.9697,-3.9697,-3.9697,-3.9697,-3.9697,-3.9697,-3.9697,-3.9697,-3.9542,-3.9206,-3.8631,-3.8421,-3.8344,-3.808,-3.7974,-3.7974,-3.7974,-3.7974,-3.7974,-3.7974,-3.7974,-3.7974,0.0,0.0,0.0,0.0,0.0,0.0,0.0,0.0,0.0,0.0,0.0,0.0,0.0,0.0,0.0,0.0,0.0,0.0,0.0,0.0,-2.8522,-2.8522,-2.8907,-2.9172,-2.9292,-2.9629,-2.9436,-2.8691,-3.0158,-3.0657,-3.011,-3.1332,-3.1765,-3.1597,-3.2755,-3.2394,-3.0922,-3.0922,-3.0807,-3.0663,-3.0254,-3.0591,-3.1211,-2.9821,-2.9556,0.0,0.0,0.0,0.0,0.0,0.0,0.0,-2.9245,-2.9245,-2.9149,-2.8992,-2.9346,-2.985,-3.0129,-3.0688,0.0,0.0,-3.6609,-3.9094,-4.0249,-4.1128,-4.1806,-4.2233,0.0,0.0,0.0,0.0,0.0,0.0,0.0,0.0,0.0,0.0,0.0,0.0,0.0,0.0,0.0,0.0,0.0,0.0,0.0,0.0,-4.0701,-4.0174,-3.9873,-3.9873,-3.9747,-3.9697,-3.9697,-3.9697,-3.9697,0.0,-3.9697,-3.9697,-3.9697,-3.9697,-3.9413,-3.8893,-3.8579,-3.8315,-3.808,-3.8027,-3.7974,-3.7974,-3.7974,-3.7974,-3.7974,-3.7974,-3.7974,-3.7974,0.0,0.0,0.0,0.0,0.0,0.0,0.0,0.0,0.0,0.0,0.0,0.0,0.0,0.0,0.0,0.0,0.0,0.0,0.0,0.0,-2.8522,-2.8522,-2.9003,-2.9172,-2.8931,-2.9172,-2.9172,-2.8883,-2.9725,-3.011,-3.011,-3.1697,-3.2199,-3.1765,-3.3068,-3.2755,-3.1308,-3.1308,-3.1308,-3.1284,-3.0995,-3.1211,-3.1573,-3.0182,-2.9845,-2.9989,-2.9196,0.0,0.0,0.0,0.0,0.0,0.0,0.0,-2.902,-2.8849,-2.9129,-2.9548,-2.9787,0.0,0.0,-3.4826,0.0,-3.9848,-4.04,-4.0899,-4.1376,0.0,0.0,0.0,0.0,0.0,0.0,0.0,0.0,0.0,0.0,0.0,0.0,0.0,0.0,0.0,0.0,0.0,0.0,0.0,0.0,-4.0124,-4.0124,-3.9848,-3.9697,-3.9697,-3.9697,-3.9697,-3.9697,-3.9697,-3.9697,-3.9697,-3.9697,-3.9697,-3.9697,-3.9413,-3.9102,-3.8788,-3.8368,-3.8133,-3.7974,-3.7974,-3.7974,-3.7974,-3.7974,-3.7974,-3.7974,-3.7974,-3.7974,-3.7974,0.0,0.0,0.0,0.0,0.0,0.0,0.0,0.0,0.0,0.0,0.0,0.0,0.0,0.0,0.0,0.0,0.0,0.0,0.0,0.0,0.0,-2.8643,-2.9051,-2.91,-2.8643,-2.9172,-2.9388,-2.9292,-2.9484,-2.9893,-3.0543,-3.2322,-3.2683,-3.191,-3.3284,-3.3068,-3.1717,-3.1717,-3.1717,-3.1693,-3.1597,-3.1573,-3.1452,-3.035,-3.0013,-2.9965,-2.9003,-2.8763,-2.8907,-2.8907,0.0,0.0,0.0,0.0,-2.8873,-2.88,-2.8895,-2.9091,-2.9386,0.0,-3.2287,-3.5433,-3.7764,0.0,-4.0099,-4.0576,0.0,0.0,0.0,0.0,0.0,0.0,0.0,0.0,0.0,0.0,0.0,0.0,0.0,0.0,0.0,0.0,0.0,0.0,0.0,0.0,0.0,-3.9697,-3.9697,-3.9597,-3.9597,-3.9697,-3.9597,-3.9597,-3.9697,-3.9697,-3.9697,-3.9697,-3.9697,-3.9697,-3.9594,-3.905,-3.8788,-3.8788,-3.8262,-3.7974,-3.7974,-3.7974,-3.7974,-3.7974,-3.7974,-3.7974,-3.7974,-3.7974,-3.7974,-3.7974,0.0,0.0,0.0,0.0,0.0,0.0,0.0,0.0,0.0,0.0,0.0,0.0,0.0,0.0,0.0,0.0,0.0,0.0,0.0,0.0,0.0,-2.9172,-2.9268,-2.9268,-2.9196,-2.9701,-2.9749,-2.9292,-3.0206,-3.1192,-3.2178,-3.2466,-3.2539,-3.2418,-3.3092,-3.2755,-3.1717,-3.1717,-3.1717,-3.1669,-3.1211,-3.1019,-3.0898,-2.9797,-2.9677,-3.0013,-2.9412,-2.9773,-3.0567,-3.0567,-3.0567,0.0,0.0,0.0,-2.914,-2.8683,-2.8697,-2.8928,-2.9431,0.0,-3.3676,0.0,-3.6584,-3.7789,0.0,0.0,0.0,0.0,0.0,0.0,0.0,0.0,0.0,0.0,0.0,0.0,0.0,0.0,0.0,0.0,0.0,0.0,0.0,0.0,0.0,0.0,-3.9697,-3.9697,-3.9697,-3.9245,-3.9195,-3.9672,-3.922,-3.922,-3.9697,-3.9697,-3.9697,-3.9697,-3.9697,-3.9594,-3.931,-3.8945,-3.8788,-3.8788,-3.8262,-3.7974,-3.7974,-3.7974,-3.7974,-3.7974,-3.7974,-3.7974,-3.7974,-3.7974,-3.7974,-3.7974,0.0,0.0,0.0,0.0,0.0,0.0,0.0,0.0,0.0,0.0,0.0,0.0,0.0,0.0,0.0,0.0,0.0,0.0,0.0,0.0,0.0,-2.8859,-2.8859,-2.8859,-2.8859,-2.9076,-2.9244,-2.9292,-3.0062,-3.1288,-3.2947,-3.3525,-3.3813,-3.3813,-3.4054,-3.3573,-3.2608,-3.2274,-3.1961,-3.1693,-3.1452,-3.1356,-3.1284,-3.047,-3.0326,-3.047,-2.9941,-3.0037,-3.0422,-3.0422,-3.023,-2.9941,-2.9725,0.0,0.0,0.0,-2.8538,-2.8818,-2.9593,-3.0976,-3.2585,0.0,-3.5228,-3.6182,0.0,0.0,0.0,0.0,0.0,0.0,0.0,0.0,0.0,0.0,0.0,0.0,0.0,0.0,0.0,0.0,0.0,0.0,0.0,0.0,0.0,0.0,-3.8944,-3.8743,-3.8743,-3.8517,-3.8492,-3.8743,-3.8818,-3.8818,-3.8743,-3.9069,-3.9069,-3.8743,-3.8892,-3.8888,-3.8786,-3.8641,-3.8579,-3.8579,-3.8185,-3.7974,-3.7974,-3.7974,-3.7974,-3.7974,-3.7974,-3.7974,-3.7974,-3.7974,-3.7974,-3.7974,0.0,0.0,0.0,0.0,0.0,0.0,0.0,0.0,0.0,0.0,0.0,0.0,0.0,0.0,0.0,0.0,0.0,0.0,0.0,0.0,0.0,-2.8522,-2.8643,-2.8715,-2.8715,-2.8835,-2.9172,-2.9701,-3.0086,-3.1456,-3.3693,-3.4463,-3.5135,-3.5833,-3.54,-3.4583,-3.3452,-3.2923,-3.2466,-3.2078,-3.1669,-3.15,-3.1452,-3.0922,-3.0802,-3.085,-3.0278,0.0,0.0,0.0,0.0,0.0,0.0,0.0,0.0,0.0,0.0,0.0,0.0,0.0,-3.1208,-3.2789,-3.3627,-3.4525,0.0,0.0,0.0,0.0,0.0,0.0,0.0,0.0,0.0,0.0,0.0,0.0,0.0,0.0,0.0,0.0,0.0,0.0,0.0,0.0,0.0,0.0,-3.8241,-3.8015,-3.8015,-3.7864,-3.7864,-3.799,-3.8291,-3.8291,-3.8015,-3.8442,-3.8442,-3.8015,-3.8216,-3.8289,-3.8285,-3.8292,-3.8275,-3.8291,-3.808,-3.7974,-3.7974,-3.7974,-3.7974,-3.7974,-3.7974,-3.7974,-3.7974,-3.7974,-3.7974,-3.7974,0.0,0.0,0.0,0.0,0.0,0.0,0.0,0.0,0.0,0.0,0.0,0.0,0.0,-2.8522,-2.8522,-2.8522,0.0,0.0,0.0,0.0,0.0,-2.8522,-2.9003,0.0,-2.9268,-2.9749,-3.0254,-3.085,-3.0807,-3.2178,-3.4703,-3.4751,-3.6194,-3.8551,-3.7012,-3.5449,-3.391,-3.3452,-3.3236,-3.3068,-3.1529,-3.0946,-3.0898,-3.0326,0.0,0.0,0.0,0.0,0.0,0.0,0.0,0.0,0.0,0.0,0.0,0.0,0.0,0.0,0.0,-2.9453,0.0,-3.1042,0.0,0.0,0.0,0.0,0.0,0.0,0.0,0.0,0.0,0.0,0.0,0.0,0.0,0.0,0.0,0.0,0.0,0.0,0.0,0.0,0.0,0.0,0.0,0.0,-3.8015,-3.8015,-3.8015,-3.7513,-3.7462,-3.799,-3.7538,-3.7513,-3.799,-3.804,-3.804,-3.8015,-3.799,-3.8016,-3.803,-3.8003,-3.8038,-3.8027,-3.7974,-3.7974,-3.7974,-3.7974,-3.7974,-3.7974,-3.7974,-3.7974,-3.7974,-3.7974,-3.7974,-3.7974,0.0,0.0,0.0,0.0,0.0,0.0,0.0,0.0,0.0,0.0,0.0,0.0,0.0,-2.8522,-2.8522,-2.8522,-2.8522,0.0,0.0,0.0,0.0,-2.9003,-2.9196,-2.946,-2.9797,-2.9653,-2.9845,-3.0374,-3.0374,-3.1384,-3.3356,-3.4366,-3.5521,-3.6747,-3.6507,-3.6098,-3.5449,-3.3933,-3.3092,-3.2707,-3.1813,0.0,0.0,0.0,0.0,0.0,0.0,0.0,0.0,0.0,0.0,0.0,0.0,0.0,0.0,0.0,0.0,0.0,0.0,0.0,0.0,-3.0195,0.0,0.0,0.0,0.0,0.0,0.0,0.0,0.0,0.0,0.0,0.0,0.0,0.0,0.0,0.0,0.0,0.0,0.0,0.0,0.0,0.0,0.0,0.0,0.0,0.0,-3.696,-3.696,-3.6807,-3.6782,-3.6983,-3.7111,-3.7287,-3.7487,-3.7136,-3.696,-3.696,-3.6971,-3.6949,-3.6972,-3.7353,-3.7508,-3.7493,-3.7829,-3.7974,-3.7974,-3.7974,-3.7974,-3.7974,-3.7974,-3.7974,-3.7974,-3.7974,-3.7974,-3.7974,0.0,0.0,0.0,0.0,0.0,0.0,0.0,0.0,0.0,-2.8522,0.0,0.0,0.0,0.0,-2.857,-2.8763,-2.8787,-2.8859,-2.9027,-2.9051,-2.9196,-2.9556,-2.9725,-2.9989,-3.035,-2.9845,-2.9917,-3.0657,-3.0254,-3.0999,-3.2779,-3.3837,-3.4775,-3.5617,-3.5785,-3.6074,-3.6314,-3.4727,0.0,-3.2947,0.0,0.0,-3.2006,0.0,0.0,0.0,0.0,0.0,0.0,0.0,0.0,0.0,0.0,0.0,0.0,0.0,0.0,0.0,-2.8657,0.0,0.0,0.0,0.0,0.0,0.0,0.0,0.0,0.0,0.0,0.0,0.0,0.0,0.0,0.0,0.0,0.0,0.0,0.0,0.0,0.0,0.0,0.0,0.0,0.0,0.0,0.0,0.0,0.0,-3.638,-3.6182,-3.6182,-3.6405,-3.6686,-3.6814,-3.691,-3.6581,-3.6358,-3.6288,-3.6279,-3.626,-3.6309,-3.6836,-3.7115,-3.7228,-3.7757,-3.7974,-3.7974,-3.7974,-3.7974,-3.7974,-3.7974,-3.7974,-3.7974,-3.7974,-3.7974,-3.7974,0.0,0.0,0.0,0.0,0.0,0.0,0.0,0.0,0.0,-2.8522,0.0,0.0,0.0,0.0,0.0,-2.9268,-2.9316,-2.9532,-3.0062,-3.0086,-3.0086,-3.011,0.0,0.0,-3.0946,-3.0374,-3.0615,-3.1717,-3.0615,-3.1192,-3.3236,-3.326,-3.4078,-3.5521,-3.4967,-3.5376,-3.629,0.0,-3.4968,-3.391,0.0,-3.2515,-3.2587,0.0,0.0,0.0,-3.326,-3.2923,0.0,0.0,0.0,0.0,0.0,0.0,0.0,0.0,0.0,0.0,0.0,0.0,0.0,0.0,0.0,0.0,0.0,0.0,0.0,0.0,0.0,0.0,0.0,0.0,0.0,0.0,0.0,0.0,0.0,0.0,0.0,0.0,0.0,0.0,0.0,0.0,0.0,0.0,-3.4981,-3.5203,-3.6329,-3.5855,-3.5805,-3.638,-3.6146,-3.6146,-3.6405,-3.6405,-3.6288,-3.6003,-3.5955,-3.5987,-3.6013,-3.6498,-3.6931,-3.7204,-3.7733,-3.7974,-3.7974,-3.7974,-3.7974,-3.7974,-3.7974,-3.7974,-3.7974,-3.7974,-3.7974,-3.7974,0.0,0.0,0.0,0.0,0.0,0.0,-2.8522,-2.8522,-2.8522,0.0,0.0,0.0,-2.9076,-2.9412,-2.9701,-2.9869,-2.9869,-2.9941,-3.0086,-3.0086,-3.0254,-3.0639,-3.085,-3.1091,-3.1476,-3.0927,-3.1019,-3.1717,-3.1019,-3.1211,-3.2175,-3.2539,-3.3164,-3.3933,-3.415,-3.4366,-3.4607,-3.415,0.0,-3.391,-3.2923,-3.2731,0.0,0.0,0.0,0.0,0.0,-3.237,-3.191,0.0,-3.1717,-3.1597,0.0,0.0,0.0,0.0,0.0,0.0,-2.8522,0.0,0.0,0.0,0.0,0.0,0.0,0.0,0.0,0.0,0.0,0.0,0.0,0.0,0.0,0.0,0.0,0.0,0.0,0.0,0.0,0.0,0.0,0.0,0.0,0.0,0.0,0.0,-3.4756,-3.4981,-3.573,-3.5818,-3.6043,-3.6405,-3.6146,-3.6146,-3.6405,-3.6405,-3.6288,-3.6003,-3.5812,-3.5598,-3.5405,-3.5791,-3.6172,-3.6651,-3.718,-3.7637,-3.7974,-3.7974,-3.7974,-3.7974,-3.7974,-3.7974,-3.7974,-3.7974,-3.7974,-3.7974,0.0,0.0,0.0,0.0,0.0,0.0,-2.8883,-2.9027,-2.9172,0.0,0.0,0.0,-2.9605,-3.0302,-3.0706,-3.0422,-3.0422,-3.0518,-3.0735,-3.0778,-3.0922,-3.1235,-3.1259,-3.1404,-3.1693,-3.1187,-3.1187,-3.1717,-3.1187,-3.1308,-3.2054,-3.2106,-3.2442,-3.2971,-3.326,0.0,0.0,0.0,0.0,0.0,-3.3308,0.0,0.0,-3.3837,-3.3404,0.0,0.0,0.0,-3.2563,-3.1934,-3.1548,0.0,0.0,0.0,0.0,0.0,0.0,0.0,0.0,0.0,0.0,0.0,0.0,0.0,-2.8791,-2.887,-2.915,0.0,0.0,0.0,0.0,0.0,0.0,0.0,0.0,0.0,0.0,0.0,0.0,0.0,0.0,0.0,0.0,-3.4048,-3.4123,-3.4349,-3.4173,-3.4374,-3.5107,-3.5581,-3.5831,-3.589,-3.5879,-3.5831,-3.5912,-3.6232,-3.6241,-3.5812,-3.5668,-3.5428,-3.5042,-3.5667,-3.6122,-3.6435,-3.7204,-3.7685,-3.7974,-3.7974,-3.7974,-3.7974,-3.7974,-3.7974,-3.7974,-3.7974,-3.7974,-3.7974,0.0,0.0,0.0,-2.8595,-2.9436,-2.9941,-2.9532,-2.9869,-3.0206,0.0,-2.9965,-2.9965,-3.0543,-3.136,-3.1693,-3.1235,-3.1096,-3.1308,-3.1765,-3.1789,-3.1789,-3.1789,-3.1741,-3.1741,-3.1789,-3.1284,-3.1259,-3.1789,-3.1259,-3.148,-3.2491,-3.1937,-3.2006,-3.2491,0.0,0.0,0.0,0.0,0.0,-3.3332,-3.3909,-3.4126,0.0,0.0,-3.4583,-3.4078,-3.4078,-3.403,-3.3766,-3.2346,-3.1548,0.0,0.0,0.0,0.0,0.0,-2.9773,0.0,0.0,0.0,0.0,0.0,0.0,0.0,-2.8761,-2.88,-2.8904,0.0,0.0,0.0,0.0,0.0,0.0,0.0,0.0,0.0,0.0,0.0,0.0,0.0,0.0,0.0,-3.2842,-3.2943,-3.3194,-3.3671,-3.337,-3.3596,-3.4575,-3.5164,-3.5345,-3.513,-3.532,-3.5369,-3.5205,-3.5937,-3.6023,-3.562,-3.5572,-3.5284,-3.4799,-3.5809,-3.6266,-3.6362,-3.73,-3.7781,-3.7902,-3.7902,-3.7926,-3.7974,-3.7974,-3.7974,-3.7974,-3.7974,-3.7974,-3.7974,0.0,0.0,-2.8643,-2.9076,-2.9677,-3.0206,-3.0518,-3.0706,-3.0922,-3.1356,-3.2034,-3.2875,-3.3789,-3.3356,-3.2923,-3.2827,-3.2418,-3.2226,-3.2322,-3.2346,-3.2346,-3.2346,-3.1958,-3.191,-3.2322,-3.1837,-3.1837,-3.2346,-3.1837,-3.1841,-3.2491,-3.1937,-3.2006,-3.2491,-3.2034,0.0,0.0,0.0,0.0,-3.338,-3.4294,0.0,-3.5376,-3.5881,-3.5497,-3.4631,-3.4631,-3.4366,-3.3886,0.0,-3.2611,-3.2178,0.0,0.0,0.0,0.0,0.0,0.0,0.0,0.0,0.0,0.0,0.0,0.0,-2.8731,-2.8875,-2.9125,0.0,0.0,0.0,0.0,0.0,0.0,0.0,0.0,0.0,0.0,0.0,0.0,0.0,0.0,0.0,-3.1712,-3.2114,-3.2416,-3.2541,-3.3294,-3.3847,-3.4048,-3.4359,-3.452,-3.4537,-3.4566,-3.4764,-3.5205,-3.5376,-3.5486,-3.562,-3.538,-3.5114,-3.4799,-3.504,-3.5376,-3.5785,-3.5978,-3.6555,-3.7348,-3.7348,-3.7589,-3.7974,-3.7974,-3.7974,-3.7974,-3.7974,-3.7974,-3.7974,0.0,-2.8522,-2.8763,-2.9556,-3.035,-3.1091,-3.1601,-3.1913,-3.2274,-3.2779,-3.4006,-3.4847,-3.4775,-3.4366,-3.3958,-3.3693,-3.2683,-3.2322,0.0,-3.2659,-3.2611,-3.2875,-3.2611,-3.2611,-3.2875,-3.2611,-3.2611,-3.2899,-3.2346,-3.2491,-3.326,-3.2178,-3.2226,-3.3212,-3.2154,0.0,0.0,0.0,-3.3428,-3.3741,-3.4511,0.0,-3.5641,-3.5905,-3.5689,-3.5184,-3.4919,-3.4318,-3.3669,-3.3669,-3.314,0.0,0.0,-3.2082,-3.1913,0.0,-3.1072,-3.112,0.0,0.0,0.0,-2.9821,0.0,0.0,0.0,-2.8907,-2.8875,-2.8666,0.0,0.0,0.0,0.0,0.0,0.0,0.0,0.0,0.0,0.0,0.0,0.0,0.0,0.0,-3.1361,-3.1555,-3.1772,-3.2022,-3.2975,-3.3621,-3.3897,-3.4155,-3.4169,-3.3966,-3.4169,-3.4396,-3.4622,-3.5012,-3.5268,-3.5428,-3.5259,-3.5066,-3.4799,-3.5112,-3.5376,-3.5641,-3.617,-3.6699,-3.7204,-3.7469,-3.7733,-3.7974,-3.7974,-3.7974,-3.7974,-3.7974,-3.7974,-3.7974,-2.8522,0.0,-2.8811,-2.9773,-3.0807,-3.1789,-3.2394,-3.2947,-3.3621,-3.4486,-3.5665,-3.6194,-3.5615,-3.5183,0.0,0.0,0.0,0.0,0.0,0.0,-3.2851,-3.326,-3.3188,-3.3236,-3.3428,-3.3332,-3.3332,-3.3428,-3.2899,-3.314,-3.3958,-3.2635,-3.2659,-3.379,0.0,0.0,0.0,0.0,0.0,-3.4198,0.0,-3.5304,-3.5785,-3.5881,-3.5978,-3.5978,-3.5352,-3.439,-3.3501,-3.3862,0.0,-3.2563,-3.201,-3.213,0.0,0.0,0.0,0.0,0.0,0.0,0.0,0.0,0.0,-2.9797,0.0,0.0,0.0,-2.8546,0.0,0.0,0.0,0.0,0.0,0.0,0.0,0.0,0.0,0.0,0.0,0.0,0.0,0.0,0.0,-3.0982,-3.1199,-3.1746,-3.2364,-3.295,-3.3502,-3.3731,-3.3628,-3.3217,-3.3682,-3.3864,-3.378,-3.453,-3.4932,-3.5065,-3.509,-3.5017,-3.4799,-3.528,-3.5473,-3.5521,-3.6483,-3.694,-3.7084,-3.7613,-3.7878,-3.7974,-3.7974,-3.7974,-3.7974,-3.7974,-3.7974,-3.7974,-2.8522,-2.8522,0.0,-2.9292,-3.0254,-3.1312,-3.2346,0.0,-3.415,-3.6531,-3.6579,-3.6916,0.0,0.0,0.0,0.0,0.0,0.0,-3.4607,0.0,0.0,-3.3284,-3.2827,-3.302,-3.3886,-3.3525,-3.3501,-3.391,-3.3452,-3.3477,-3.3982,-3.3404,-3.3212,-3.3356,-3.3188,0.0,0.0,0.0,-3.4198,0.0,-3.5255,-3.5833,0.0,-3.6843,-3.73,-3.7589,-3.6579,-3.5256,-3.391,0.0,-3.3669,-3.3116,0.0,-3.2442,0.0,0.0,0.0,0.0,0.0,0.0,0.0,0.0,-3.148,0.0,0.0,0.0,-2.9653,-2.8715,0.0,0.0,0.0,0.0,0.0,0.0,0.0,0.0,0.0,0.0,0.0,0.0,0.0,0.0,0.0,-3.0104,-3.0708,-3.1395,-3.1397,-3.1547,-3.2095,-3.2152,-3.2161,-3.2142,-3.246,-3.2705,-3.2922,-3.3482,-3.4042,-3.4483,-3.4752,-3.4823,-3.4775,-3.4847,-3.4871,-3.4895,-3.5545,-3.605,-3.6531,-3.706,-3.7565,-3.7974,-3.7974,-3.7974,-3.7974,-3.7974,-3.7974,-3.7974,-2.8522,-2.8522,0.0,0.0,-3.0374,-3.136,0.0,0.0,-3.6411,-3.7517,-3.8286,0.0,0.0,0.0,0.0,0.0,0.0,-3.4751,0.0,0.0,0.0,0.0,-3.3068,0.0,-3.3982,-3.3837,-3.3982,-3.4438,-3.3982,-3.3982,-3.4438,-3.3669,-3.3452,0.0,-3.3428,0.0,-3.3452,0.0,-3.4751,0.0,0.0,0.0,0.0,-3.6651,-3.6675,-3.6555,-3.6098,-3.5328,-3.4414,0.0,-3.3862,0.0,0.0,0.0,0.0,0.0,0.0,0.0,0.0,0.0,0.0,0.0,0.0,0.0,-3.0422,0.0,-2.9869,0.0,0.0,0.0,0.0,0.0,0.0,0.0,0.0,0.0,0.0,0.0,0.0,0.0,0.0,0.0,0.0,0.0,0.0,0.0,-3.0571,-3.0737,-3.1406,-3.1729,-3.1833,-3.1779,-3.2315,-3.2793,-3.3266,-3.3463,-3.395,-3.4655,-3.4727,-3.4775,-3.4775,-3.4775,-3.4943,-3.5304,-3.5521,-3.6098,-3.6867,-3.7108,-3.7517,-3.7974,-3.7974,-3.7974,-3.7974,-3.7974,-3.7974,-3.7974,-2.8522,0.0,0.0,0.0,0.0,0.0,0.0,0.0,0.0,0.0,0.0,0.0,-4.2206,-4.0643,0.0,0.0,0.0,-3.6266,0.0,0.0,-3.3789,0.0,0.0,0.0,0.0,-3.4126,-3.4318,-3.4558,-3.4318,-3.4318,-3.4558,-3.3982,-3.3669,0.0,0.0,-3.3982,-3.4054,0.0,-3.5569,-3.6074,-3.6459,-3.6627,-3.6603,-3.6459,-3.6074,-3.5641,-3.5785,-3.5497,-3.4968,-3.439,-3.4198,0.0,-3.3501,0.0,0.0,0.0,0.0,0.0,-3.2006,0.0,0.0,0.0,0.0,0.0,0.0,0.0,0.0,0.0,0.0,0.0,0.0,0.0,0.0,0.0,0.0,0.0,0.0,0.0,0.0,0.0,0.0,0.0,0.0,0.0,0.0,0.0,0.0,-3.0047,-3.0753,-3.1298,-3.1544,-3.1504,-3.2253,-3.2857,-3.3274,-3.3564,-3.4003,-3.4558,-3.4703,-3.4775,-3.4775,-3.4775,-3.5063,-3.5617,-3.5617,-3.6218,-3.7204,-3.7204,-3.7517,-3.7974,-3.7974,-3.7974,-3.7974,-3.7974,-3.7974,-3.7974,-2.8522,-2.8522,-2.8691,0.0,0.0,0.0,0.0,0.0,0.0,0.0,0.0,0.0,0.0,0.0,0.0,0.0,0.0,-3.9008,-3.7926,0.0,-3.5088,0.0,0.0,-3.3982,0.0,0.0,0.0,-3.4006,-3.451,-3.451,-3.403,-3.451,-3.3982,0.0,-3.4655,-3.4992,-3.4102,-3.5689,-3.6651,-3.7156,-3.7156,-3.7156,-3.7108,0.0,-3.6074,-3.5689,-3.6194,0.0,0.0,-3.4992,-3.4751,0.0,0.0,0.0,0.0,0.0,0.0,0.0,0.0,0.0,0.0,-3.1837,0.0,0.0,0.0,0.0,-3.0711,0.0,0.0,0.0,0.0,0.0,0.0,0.0,0.0,0.0,0.0,0.0,0.0,0.0,0.0,0.0,0.0,0.0,0.0,0.0,0.0,0.0,-2.9901,-3.0442,-3.0898,-3.1223,-3.2047,-3.2536,-3.2515,-3.3525,-3.3982,-3.403,-3.4534,-3.4775,-3.4775,-3.4775,-3.5063,-3.5617,-3.5617,-3.6218,-3.7204,-3.7204,-3.7517,-3.7974,-3.7974,-3.7974,-3.7974,-3.7974,-3.7974,-3.7974,-2.9027,-2.9316,-2.9508,-2.934,0.0,0.0,0.0,-3.6146,0.0,0.0,0.0,0.0,0.0,-4.579,-4.4852,0.0,0.0,-4.1293,-3.92,-3.8238,0.0,0.0,0.0,-3.4342,0.0,0.0,0.0,0.0,0.0,-3.3717,-3.3549,-3.3717,-3.3332,0.0,0.0,-3.4054,0.0,0.0,0.0,0.0,0.0,-3.6867,-3.7132,0.0,0.0,-3.6122,-3.5954,-3.5761,0.0,-3.54,-3.5352,-3.528,-3.4944,-3.4703,-3.4463,-3.3933,-3.3284,0.0,0.0,0.0,-3.2466,-3.2274,0.0,0.0,0.0,0.0,0.0,0.0,0.0,0.0,0.0,0.0,0.0,0.0,0.0,0.0,0.0,0.0,0.0,0.0,0.0,0.0,0.0,0.0,0.0,0.0,0.0,0.0,0.0,-2.9837,-3.0318,-3.0477,-3.1583,-3.2433,-3.302,-3.3646,-3.4174,-3.451,-3.4703,-3.4775,-3.4775,-3.4775,-3.5063,-3.5593,-3.5256,-3.5881,-3.7156,-3.6819,-3.718,-3.7974,-3.7974,-3.7974,-3.7974,-3.7974,-3.7974,-3.7974,-2.9821,-2.9989,-3.0037,-2.9893,0.0,0.0,0.0,0.0,0.0,0.0,-4.4251,0.0,-4.9349,0.0,-4.7497,0.0,-4.5694,-4.3529,-4.0908,-4.0403,0.0,-3.6579,-3.6122,0.0,0.0,0.0,0.0,0.0,0.0,-3.3741,-3.3549,-3.338,0.0,0.0,0.0,-3.4006,-3.4366,0.0,-3.6675,0.0,0.0,-3.6843,0.0,0.0,-3.6531,-3.6651,0.0,-3.617,-3.617,-3.617,-3.617,-3.6146,-3.5954,-3.5761,-3.5449,-3.4534,-3.3958,-3.3525,-3.3332,-3.3044,0.0,-3.2779,-3.2779,0.0,-3.2126,0.0,0.0,0.0,0.0,0.0,0.0,0.0,0.0,0.0,0.0,0.0,0.0,-2.8522,0.0,0.0,0.0,0.0,0.0,0.0,0.0,0.0,0.0,0.0,0.0,0.0,-2.9967,-3.0211,-3.1487,-3.253,-3.3284,-3.3982,-3.4438,-3.4775,-3.4775,-3.4775,-3.4775,-3.4775,-3.5063,-3.5593,-3.5256,-3.5905,-3.7156,-3.6819,-3.7204,-3.7974,-3.7974,-3.7974,-3.7974,-3.7974,-3.7974,-3.7974,-3.085,-3.0567,-3.0446,-3.0975,-3.2731,0.0,0.0,0.0,-4.1774,0.0,-4.5958,-4.8435,-5.0576,-4.9854,-4.9397,-4.9878,-4.8002,0.0,-4.318,-4.2988,0.0,0.0,-3.8166,-3.7613,-3.6459,0.0,0.0,0.0,0.0,0.0,-3.3934,0.0,0.0,0.0,-3.4054,0.0,-3.4968,-3.6483,-3.7445,-3.7853,-3.6843,-3.706,-3.7878,-3.6843,-3.6795,-3.7252,-3.7204,-3.7204,-3.7204,-3.7204,-3.7204,-3.7108,-3.6603,-3.6122,-3.5617,-3.5015,-3.451,-3.4006,-3.3549,-3.338,-3.3356,-3.3332,0.0,0.0,0.0,0.0,-3.2346,0.0,0.0,0.0,0.0,0.0,0.0,0.0,0.0,0.0,0.0,0.0,0.0,0.0,0.0,0.0,0.0,0.0,0.0,0.0,0.0,0.0,0.0,0.0,-2.9837,-3.0379,-3.1713,-3.2731,-3.3284,-3.4318,-3.4775,-3.4775,-3.4775,-3.4775,-3.4775,-3.4775,-3.5112,-3.5569,-3.5569,-3.617,-3.7156,-3.7156,-3.7493,-3.7974,-3.7974,-3.7974,-3.7974,-3.7974,-3.7974,-3.7974,-3.1476,-3.2298,-3.3188,-3.3717,-3.427,-3.4943,0.0,0.0,0.0,0.0,-4.7377,-5.007,-5.2235,-5.1513,-5.0768,-5.0503,-4.8892,0.0,0.0,0.0,0.0,-4.1687,-4.0787,-3.9296,-3.7036,-3.6483,0.0,-3.4775,0.0,0.0,-3.3452,0.0,0.0,0.0,0.0,0.0,-3.5449,-3.5857,-3.6555,-3.7372,-3.7108,-3.7397,0.0,0.0,-3.7589,-3.8286,-3.7493,-3.7204,-3.7204,-3.7204,-3.7204,-3.718,-3.7036,-3.7156,-3.7204,-3.6266,-3.5905,-3.5689,-3.516,-3.4727,-3.4342,-3.391,-3.379,-3.367,0.0,0.0,0.0,0.0,0.0,0.0,0.0,0.0,0.0,0.0,0.0,0.0,0.0,0.0,0.0,-2.8522,0.0,0.0,0.0,0.0,0.0,0.0,0.0,0.0,0.0,0.0,0.0,-3.0145,-3.1308,-3.2322,-3.3284,-3.4318,-3.4775,-3.4775,-3.4775,-3.4775,-3.4775,-3.4775,-3.4895,-3.504,-3.504,-3.5641,-3.6603,-3.6603,-3.7156,-3.7974,-3.7974,-3.7974,-3.7974,-3.7974,-3.7974,-3.7974,-3.2611,-3.4366,0.0,-3.5545,0.0,0.0,-3.7757,0.0,0.0,-4.4453,-4.7762,0.0,-5.1225,-5.1634,-5.1537,-5.0768,-4.9445,0.0,0.0,0.0,0.0,-4.3192,-4.2303,-4.0739,-3.831,-3.7493,0.0,-3.5184,0.0,0.0,-3.3597,0.0,0.0,0.0,0.0,-3.3885,-3.5665,-3.6362,-3.6988,-3.7517,-3.7276,0.0,0.0,-3.7397,-3.7709,-3.8383,-3.7757,-3.7541,-3.7541,-3.7541,-3.7541,-3.7541,-3.7541,-3.7733,-3.7829,-3.6988,-3.6747,-3.6579,-3.5833,-3.54,-3.4991,-3.4462,-3.4342,-3.4198,-3.3741,-3.338,-3.3044,0.0,0.0,0.0,0.0,0.0,0.0,0.0,0.0,0.0,0.0,0.0,0.0,0.0,0.0,0.0,0.0,0.0,0.0,0.0,0.0,0.0,0.0,0.0,0.0,-3.0062,-3.136,-3.2442,-3.3284,-3.4535,-3.5015,-3.4775,-3.4775,-3.4775,-3.4775,-3.4775,-3.4775,-3.4847,-3.5328,-3.5857,-3.6435,-3.6916,-3.7445,-3.7974,-3.7974,-3.7974,-3.7974,-3.7974,-3.7974,-3.7974,0.0,0.0,0.0,0.0,0.0,0.0,0.0,-4.1629,0.0,-4.4813,0.0,-5.0191,-4.9662,-5.1129,-5.1754,-5.0696,0.0,-4.8363,-4.692,-4.7257,-4.6415,-4.3938,-4.3337,-4.2062,-3.985,-3.8815,0.0,0.0,0.0,-3.451,-3.3958,0.0,0.0,0.0,0.0,0.0,0.0,-3.7348,-3.7974,-3.795,-3.7493,-3.7565,-3.7926,-3.7469,-3.7589,-3.7974,-3.7974,-3.7974,-3.7974,-3.7974,-3.7974,-3.7974,-3.7974,-3.7974,-3.7902,-3.7421,-3.73,-3.7084,-3.6098,-3.5785,-3.5617,-3.516,-3.4871,-3.4679,-3.4294,-3.4102,-3.3742,-3.2899,-3.2659,-3.2442,0.0,0.0,0.0,0.0,0.0,0.0,0.0,0.0,0.0,0.0,0.0,0.0,0.0,0.0,0.0,0.0,0.0,0.0,0.0,0.0,0.0,-3.0062,-3.1577,-3.2755,-3.3477,0.0,-3.5352,-3.504,-3.4895,-3.4823,-3.4871,-3.4871,-3.4919,-3.5039,-3.6002,-3.6435,-3.6579,-3.7493,-3.7926,-3.7974,-3.7974,-3.7974,-3.7974,-3.7974,-3.7974,-3.7974,0.0,0.0,0.0,0.0,0.0,-4.211,-4.3276,-4.5237,-4.7112,-4.87,-5.1369,-5.2932,-5.2427,-5.1922,-5.1201,-5.0095,-4.9036,0.0,0.0,0.0,0.0,-4.5549,-4.4996,-4.3529,-4.0956,-4.0282,-3.896,0.0,-3.5521,-3.451,-3.3958,0.0,0.0,0.0,0.0,0.0,-3.6338,-3.7493,0.0,-3.7974,-3.7878,-3.7902,-3.7974,-3.7878,-3.7902,-3.7974,-3.7974,-3.7974,-3.7974,-3.7974,-3.7974,-3.7974,-3.7974,-3.7974,-3.7974,-3.7878,-3.7829,-3.7709,-3.7084,-3.6603,-3.6242,-3.6146,-3.5473,-3.4871,-3.5256,-3.4607,-3.3934,-3.3766,-3.3428,-3.2996,-3.2442,0.0,0.0,0.0,0.0,0.0,0.0,0.0,0.0,0.0,0.0,0.0,0.0,0.0,0.0,0.0,0.0,0.0,0.0,0.0,0.0,0.0,-3.1216,0.0,0.0,0.0,-3.5352,-3.6122,-3.5256,-3.5015,-3.5473,-3.5473,-3.5713,-3.6146,-3.6314,-3.6651,-3.706,-3.7252,-3.7589,-3.7974,-3.7974,-3.7974,-3.7974,-3.7974,-3.7974,-3.7974,0.0,0.0,0.0,0.0,0.0,0.0,0.0,-4.8363,0.0,-4.7978,-4.9662,-5.0551,-4.9469,-5.0143,-5.0215,-4.9133,-4.8579,-4.8074,-4.7545,-4.7497,-4.7161,-4.6367,-4.5549,0.0,-4.1653,-4.0812,-3.9345,-3.7204,-3.5881,-3.4775,-3.3958,0.0,0.0,0.0,0.0,-3.5208,0.0,0.0,0.0,-3.7974,-3.7974,-3.7974,-3.7974,-3.7974,-3.7974,-3.7974,-3.7974,-3.7974,-3.7974,-3.7974,-3.7974,-3.7974,-3.7974,-3.7974,-3.7974,-3.7974,-3.7974,-3.7853,-3.7348,-3.7012,-3.6747,-3.6483,-3.6026,-3.5641,-3.5617,-3.5232,-3.4655,-3.4102,-3.379,-3.3525,-3.2996,-3.2466,0.0,0.0,0.0,0.0,0.0,0.0,0.0,0.0,0.0,0.0,0.0,0.0,0.0,0.0,0.0,0.0,0.0,0.0,0.0,0.0,0.0,0.0,0.0,0.0,0.0,-3.6002,-3.5761,-3.5785,-3.6026,-3.6026,-3.617,-3.6411,-3.6699,-3.6964,-3.7204,-3.7493,-3.7757,-3.7974,-3.7974,-3.7974,-3.7974,-3.7974,-3.7974,-3.7974,0.0,-4.1509,0.0,0.0,-4.4683,0.0,-4.8603,-5.0479,-5.0696,-4.7954,-4.8603,-4.8796,-4.7425,-4.894,-4.9614,-4.8555,-4.8363,-4.8074,-4.7545,-4.7497,-4.7209,-4.6583,-4.5742,-4.4323,-4.2241,-4.11,-3.9561,0.0,-3.6242,-3.5087,0.0,0.0,0.0,0.0,0.0,0.0,0.0,0.0,-3.7589,-3.7974,-3.7974,-3.7974,-3.7974,-3.7974,-3.7974,-3.7974,-3.7974,-3.7974,-3.7974,-3.7974,-3.7974,-3.7974,-3.7974,-3.7974,-3.7974,-3.7974,-3.7974,-3.7878,-3.7469,-3.7276,-3.7132,-3.6819,-3.6579,-3.6314,-3.6026,-3.5785,-3.5376,-3.4486,-3.415,-3.3862,-3.3525,-3.3356,0.0,0.0,0.0,0.0,0.0,0.0,0.0,0.0,0.0,0.0,0.0,0.0,0.0,0.0,0.0,-2.8522,-2.8522,-2.8619,-2.91,0.0,0.0,-3.2923,-3.3765,0.0,-3.6194,-3.6122,-3.6314,-3.6459,-3.6579,-3.6579,-3.6627,-3.6771,-3.718,-3.7348,-3.7397,-3.7805,-3.7974,-3.7974,-3.7974,-3.7974,-3.7974,-3.7974,-3.7974,-3.7974,0.0,0.0,0.0,0.0,0.0,0.0,-4.8339,-5.0551,-5.2427,-5.3004,-5.2812,-5.2379,-5.1754,-5.1056,-5.0191,-4.9109,-4.8555,-4.8074,-4.7545,-4.7497,-4.704,-4.6054,-4.591,-4.4852,-4.2795,-4.1653,-4.0306,0.0,0.0,-3.5328,0.0,0.0,0.0,0.0,0.0,0.0,0.0,-3.7685,-3.7926,-3.7974,-3.7974,-3.7974,-3.7974,-3.7974,-3.7974,-3.7974,-3.7974,-3.7974,-3.7974,-3.7974,-3.7974,-3.7974,-3.7974,-3.7974,-3.7974,-3.7974,-3.7974,-3.7974,-3.7926,-3.7565,-3.73,-3.7733,-3.7108,-3.6507,-3.694,-3.6314,-3.5593,-3.5497,-3.4655,-3.3982,-3.3934,-3.3597,-3.326,0.0,0.0,0.0,0.0,0.0,0.0,0.0,0.0,0.0,0.0,-2.8522,0.0,0.0,-2.8522,-2.8522,-2.8522,-2.8955,-2.9484,-3.0062,0.0,-3.3428,-3.5376,-3.5593,-3.6386,-3.7757,-3.6843,-3.6651,-3.7132,-3.7132,-3.7372,-3.7829,-3.7878,-3.7902,-3.7902,-3.795,-3.7974,-3.7974,-3.7974,-3.7974,-3.7974,-3.7974,-3.7974,-3.7974,0.0,0.0,0.0,0.0,0.0,0.0,0.0,-5.185,-5.2788,-5.2884,-5.2451,-5.1682,-5.0479,-4.9686,-4.9084,-4.8652,-4.8122,-4.7738,-4.7521,-4.7497,-4.7161,-4.6439,-4.6102,-4.5068,-4.3325,-4.2265,-4.0884,0.0,0.0,0.0,0.0,0.0,0.0,0.0,0.0,-3.6892,-3.7204,-3.7421,-3.7685,-3.7974,-3.7974,-3.7974,-3.7974,-3.7974,-3.7974,-3.7974,-3.7974,-3.7974,-3.7974,-3.7974,-3.7974,-3.7974,-3.7974,-3.7974,-3.7974,-3.7974,-3.7974,-3.7974,-3.7974,-3.7829,-3.7709,-3.7926,-3.7661,-3.7324,-3.7204,-3.6627,-3.6002,-3.5689,-3.4967,-3.4462,-3.4462,-3.4342,-3.4102,0.0,0.0,0.0,0.0,0.0,0.0,0.0,0.0,0.0,0.0,0.0,0.0,0.0,0.0,-2.8522,-2.8522,-2.9003,-2.9677,-3.0543,0.0,-3.3356,-3.5087,-3.5785,-3.6579,-3.7517,-3.7397,-3.7469,-3.7661,-3.7661,-3.7781,-3.7974,-3.7974,-3.7974,-3.7974,-3.7974,-3.7974,-3.8022,-3.8359,-3.8479,-3.8527,-3.8839,-3.896,-3.896,-4.7882,0.0,-4.7545,0.0,-4.9493,-4.9589,-5.1297,-5.2018,-5.2187,-5.1634,-5.1393,-5.0888,-4.9902,-4.9325,-4.8868,-4.8555,-4.8171,-4.7834,-4.7521,-4.7497,-4.7257,-4.6728,-4.6199,0.0,-4.3818,-4.2591,-4.1341,-4.0066,-3.8671,0.0,0.0,0.0,0.0,0.0,-3.6699,-3.7084,-3.7421,-3.7421,-3.7637,-3.7974,-3.7974,-3.7974,-3.7974,-3.7974,-3.7974,-3.7974,-3.7974,-3.7974,-3.7974,-3.7974,-3.7974,-3.7974,-3.7974,-3.7974,-3.7974,-3.7974,-3.7974,-3.7974,-3.7974,-3.7974,-3.7974,-3.7974,-3.7974,-3.7878,-3.7517,-3.6892,-3.6218,-3.5521,-3.5039,-3.4775,-3.4775,-3.4775,-3.4655,-3.4294,0.0,0.0,0.0,0.0,0.0,0.0,-3.1019,-3.0518,-2.9629,0.0,0.0,0.0,0.0,0.0,-2.9196,-2.9412,0.0,0.0,0.0,0.0,0.0,-3.6098,-3.6892,-3.7421,-3.7805,-3.7974,-3.7974,-3.7974,-3.7974,-3.7974,-3.7974,-3.7974,-3.7974,-3.7974,-3.7974,-3.8022,-3.8407,-3.8671,-3.8864,-3.9248,-3.9465,-3.9609,-4.8748,-4.9036,-4.9397,-5.0503,-5.0672,-5.0503,-4.9974,-5.0359,-5.0527,-4.9974,-5.0359,-5.0912,-5.1417,-5.0984,-5.0239,-4.9157,-4.906,-4.8603,-4.7569,-4.7497,-4.7257,0.0,0.0,-4.5429,-4.4309,-4.2784,-4.1701,-4.1172,0.0,0.0,-3.795,0.0,-3.7445,-3.795,-3.795,-3.7974,-3.7974,-3.7974,-3.7974,-3.7974,-3.7974,-3.7974,-3.7974,-3.7974,-3.7974,-3.7974,-3.7974,-3.7974,-3.7974,-3.7974,-3.7974,-3.7974,-3.7974,-3.7974,-3.7974,-3.7974,-3.7974,-3.7974,-3.7974,-3.7974,-3.7974,-3.7974,-3.7974,-3.7974,-3.7974,-3.7156,-3.6098,-3.5015,-3.4775,-3.4775,-3.4775,-3.4775,-3.4775,-3.4775,0.0,0.0,0.0,0.0,0.0,0.0,-3.1235,-3.0706,-3.0134,0.0,0.0,0.0,0.0,0.0,0.0,0.0,0.0,-3.1669,-3.3188,0.0,-3.5593,-3.6651,-3.7445,-3.7974,-3.7974,-3.7974,-3.7974,-3.7974,-3.7974,-3.7974,-3.7974,-3.7974,-3.7974,-3.7974,-3.7974,-3.7974,-3.7998,-3.8334,-3.8815,-3.8815,-3.9152,-3.9609,-5.0022,-4.9878,-4.995,-5.1056,-5.1249,-5.1177,-5.1008,-5.1441,-5.1321,-5.0046,-5.0359,-5.0479,-4.9902,-4.9686,-4.9445,0.0,-4.8411,-4.7858,0.0,-4.7497,-4.7257,-4.6728,-4.6199,-4.5429,-4.4309,-4.3144,-4.2062,-4.1172,0.0,0.0,0.0,-3.7998,-3.7829,-3.7974,-3.7974,-3.7974,-3.7974,-3.7974,-3.7974,-3.7974,-3.7974,-3.7974,-3.7974,-3.7974,-3.7974,-3.7974,-3.7974,-3.7974,-3.7974,-3.7974,-3.7974,-3.7974,-3.7974,-3.7974,-3.7974,-3.7974,-3.7974,-3.7974,-3.7974,-3.7974,-3.7974,-3.7974,-3.7974,-3.7974,-3.7974,-3.7156,-3.6218,-3.5497,-3.5039,-3.4775,-3.4775,-3.4775,-3.4775,-3.4775,-3.4342,0.0,0.0,0.0,0.0,0.0,-3.1745,-3.1259,0.0,-3.0657,0.0,0.0,0.0,0.0,0.0,0.0,0.0,0.0,-3.3933,0.0,-3.6675,-3.7036,-3.7469,-3.7974,-3.7974,-3.7974,-3.7974,-3.7974,-3.7974,-3.7974,-3.7974,-3.7974,-3.7974,-3.7974,-3.7974,-3.8046,-3.8791,-3.92,-3.9441,-4.0162,-4.0547,-4.0691,-5.0624,-5.0431,-5.0335,-5.0792,-5.0888,-5.0744,-5.0359,-5.0576,-5.0431,-4.9397,-4.9589,-4.9614,-4.9133,-4.8892,0.0,-4.8772,-4.8171,-4.7714,-4.7521,-4.7497,-4.7257,-4.6728,-4.6199,-4.5525,-4.4597,-4.3601,0.0,-4.1774,-4.086,-3.9946,-3.9104,-3.8743,-3.8479,-3.8286,-3.8286,-3.819,-3.7974,-3.7974,-3.7974,-3.7974,-3.7974,-3.7974,-3.7974,-3.7974,-3.7974,-3.7974,-3.7974,-3.7974,-3.7974,-3.7974,-3.7974,-3.7974,-3.7974,-3.7974,-3.7974,-3.7974,-3.7974,-3.7974,-3.7974,-3.7974,-3.7974,-3.7974,-3.7974,-3.7926,-3.7733,-3.718,-3.6483,-3.5761,-3.5352,-3.5015,-3.4823,-3.4775,-3.4775,-3.4775,-3.451,-3.4294,-3.4294,0.0,0.0,0.0,0.0,0.0,0.0,-3.1769,-3.1886,0.0,0.0,0.0,0.0,0.0,0.0,-3.3525,-3.4775,0.0,-3.718,-3.7397,-3.7661,-3.7974,-3.819,-3.8286,-3.8286,-3.8286,-3.8286,-3.8286,-3.807,-3.7974,-3.7974,-3.7974,-3.7974,-3.807,-3.896,-3.9441,-3.9705,-4.0571,-4.1004,-4.1172,-5.0648,-5.0624,-5.0431,0.0,-4.983,0.0,-4.8555,-4.8363,-4.8339,-4.8291,-4.8291,-4.8459,-4.8916,-4.8531,-4.8243,-4.8243,0.0,0.0,0.0,-4.7497,-4.7281,-4.68,-4.6223,-4.5694,-4.5213,-4.4082,-4.3241,-4.2771,-4.1148,-4.0138,-3.9657,-3.9633,-3.932,-3.8815,-3.8815,-3.8503,-3.7974,-3.7974,-3.7974,-3.7974,-3.7974,-3.7974,-3.7974,-3.7974,-3.7974,-3.7974,-3.7974,-3.7974,-3.7974,-3.7974,-3.7974,-3.7974,-3.7974,-3.7974,-3.7974,-3.7974,-3.7974,-3.7974,-3.7974,-3.7974,-3.7974,-3.7974,-3.7974,-3.7853,-3.7348,-3.7228,-3.6916,-3.593,-3.5689,-3.5497,-3.4919,-3.4847,-3.4823,-3.4799,-3.4775,-3.4775,-3.4775,0.0,0.0,0.0,0.0,0.0,0.0,-3.3284,-3.3092,0.0,0.0,0.0,0.0,0.0,-3.3164,-3.4078,-3.5641,-3.6723,-3.7252,-3.7733,-3.7998,-3.8046,-3.8575,-3.8839,-3.8864,-3.8864,-3.8864,-3.8839,-3.831,-3.807,-3.8046,-3.8046,-3.8046,-3.8094,-3.8647,-3.92,-3.9729,-4.0258,-4.0763,-4.1172,0.0,0.0,-4.9541,-4.983,-4.9541,-4.9325,-4.9469,-4.9157,-4.8748,-4.8339,-4.8291,-4.8195,-4.7906,-4.7762,-4.769,-4.769,-4.769,-4.7642,-4.7521,-4.7497,-4.7449,-4.7329,-4.6415,-4.5862,-4.5742,-4.4275,-4.3072,-4.2217,-4.098,-4.0331,-4.0186,-3.9801,-3.932,-3.8815,-3.8815,-3.8503,-3.7974,-3.7974,-3.7974,-3.7974,-3.7974,-3.7974,-3.7974,-3.7974,-3.7974,-3.7974,-3.7974,-3.7974,-3.7974,-3.7974,-3.7974,-3.7974,-3.7974,-3.7974,-3.7974,-3.7974,-3.7974,-3.7974,-3.7974,-3.7974,-3.7974,-3.7974,-3.7974,-3.795,-3.7829,-3.7493,-3.7132,-3.6867,-3.6507,-3.605,-3.5521,-3.5425,-3.5304,-3.4895,-3.4775,-3.4775,-3.4775,-3.4318,0.0,0.0,-3.3597,-3.3284,-3.3284,-3.3284,-3.3404,0.0,0.0,0.0,0.0,-3.4438,-3.4992,-3.5183,-3.6386,-3.7252,-3.7781,-3.7926,-3.819,-3.8623,-3.8767,-3.9032,-3.9417,-3.9417,-3.9417,-3.9417,-3.9272,-3.8984,-3.8623,-3.8623,-3.8623,-3.8671,-3.9224,-3.9753,-4.0282,-4.0812,-4.1076,-4.1172,-4.9878,-4.9445,-4.9084,-4.9133,-4.8916,-4.8724,-4.8772,-4.8555,-4.8267,-4.7954,-4.793,-4.781,-4.7521,-4.7497,-4.7497,-4.7497,-4.7497,-4.7497,-4.7497,-4.7497,-4.7281,-4.68,-4.6223,-4.5694,-4.5149,-4.4285,-4.3385,-4.2386,-4.1509,-4.1004,-4.0739,-4.021,-3.9681,-3.9176,-3.8936,-3.8503,-3.7974,-3.7974,-3.7974,-3.7974,-3.7974,-3.7974,-3.7974,-3.7974,-3.7974,-3.7974,-3.7974,-3.7974,-3.7974,-3.7974,-3.7974,-3.7974,-3.7974,-3.7974,-3.7974,-3.7974,-3.7974,-3.7974,-3.7974,-3.7974,-3.7974,-3.7974,-3.7974,-3.7974,-3.7974,-3.7757,-3.7493,-3.7252,-3.6964,-3.6531,-3.5761,-3.5617,-3.5449,-3.4871,-3.4775,-3.4775,-3.4775,-3.4534,0.0,-3.4679,-3.4511,-3.4438,-3.4679,-3.4727,-3.4631,-3.4366,-3.4583,0.0,-3.4366,-3.5641,-3.6122,-3.5641,-3.7132,-3.807,-3.8359,-3.8599,-3.8888,-3.9176,-3.9417,-3.9681,-3.997,-3.997,-3.997,-3.9946,-3.9705,-3.9441,-3.9152,-3.8912,-3.896,-3.92,-3.9489,-3.9922,-4.0451,-4.098,-4.1172,-4.1172,-4.9948,-4.9493,-4.906,-4.8603,-4.8387,-4.8171,-4.7786,-4.7593,-4.7497,-4.7497,-4.7497,-4.7497,-4.7497,-4.7497,-4.7497,-4.7497,-4.7425,-4.7377,-4.7377,-4.7377,-4.6944,-4.5958,-4.5838,-4.5317,-4.4429,-4.4237,-4.3746,-4.2819,-4.223,-4.1701,-4.1172,-4.0643,-4.0114,-3.9585,-3.9056,-3.8503,-3.7974,-3.7974,-3.7974,-3.7974,-3.7974,-3.7974,-3.7974,-3.7974,-3.7974,-3.7974,-3.7974,-3.7974,-3.7974,-3.7974,-3.7974,-3.7974,-3.7974,-3.7974,-3.7974,-3.7974,-3.7974,-3.7974,-3.7974,-3.7974,-3.7974,-3.7974,-3.7974,-3.7974,-3.7974,-3.7974,-3.7853,-3.7397,-3.73,-3.7012,-3.6026,-3.5785,-3.5569,-3.504,-3.4823,-3.4775,-3.4775,0.0,-3.5112,-3.5569,-3.5689,-3.5905,-3.6362,-3.6411,-3.6074,-3.5256,-3.593,-3.605,-3.5232,-3.6531,-3.6892,-3.6002,-3.7829,-3.8864,-3.8936,-3.9393,-3.9657,-3.9729,-4.0186,-4.0427,-4.0523,-4.0523,-4.0523,-4.0499,-4.0042,-3.9801,-3.9705,-3.9248,-3.932,-3.9729,-3.9729,-4.0042,-4.0571,-4.1028,-4.1172,-4.1172,-4.995,-4.9806,-4.971,-4.9638,-4.8892,-4.8411,-4.8772,-4.8074,-4.7497,-4.7497,-4.7497,-4.7497,-4.7497,-4.7497,-4.7497,-4.7497,-4.7088,-4.6848,-4.6848,-4.6848,-4.6559,-4.5958,-4.5501,-4.5125,-4.4957,-4.4106,-4.3361,-4.2819,-4.223,-4.1701,-4.1172,-4.0643,-4.0114,-3.9585,-3.9056,-3.8503,-3.7974,-3.7974,-3.7974,-3.7974,-3.7974,-3.7974,-3.7974,-3.7974,-3.7974,-3.7974,-3.7974,-3.7974,-3.7974,-3.7974,-3.7974,-3.7974,-3.7974,-3.7974,-3.7974,-3.7974,-3.7974,-3.7974,-3.7974,-3.7974,-3.7974,-3.7974,-3.7974,-3.7974,-3.7974,-3.7974,-3.795,-3.7878,-3.7853,-3.7685,-3.706,-3.6579,-3.6122,-3.5569,-3.5112,-3.4775,-3.4775,0.0,-3.5521,-3.5617,-3.6002,-3.6314,-3.6386,-3.6411,-3.6531,-3.6819,-3.6555,-3.6531,-3.6819,-3.7493,-3.7781,-3.7613,-3.8407,-3.9032,-3.9489,-3.9561,-3.9826,-4.0282,-4.0355,-4.0643,-4.1052,-4.1052,-4.1052,-4.1052,-4.098,-4.0691,-4.0258,-4.0186,-4.0186,-4.0282,-4.0282,-4.0595,-4.1076,-4.1148,-4.1172,-4.1172,-4.9926,-4.9638,-4.9349,-4.906,-4.8603,-4.8267,-4.8243,-4.781,-4.7497,-4.7497,-4.7497,-4.7497,-4.7497,-4.7497,-4.7497,-4.7497,-4.7281,-4.6896,-4.6319,-4.6295,-4.6054,-4.5525,-4.5197,-4.4933,-4.4669,-4.4165,-4.3697,-4.3168,-4.2663,-4.2193,-4.1581,-4.0787,-4.0258,-3.9994,-3.9176,-3.8671,-3.8407,-3.8118,-3.7974,-3.7974,-3.7974,-3.7974,-3.7974,-3.7974,-3.7974,-3.7974,-3.7974,-3.7974,-3.7974,-3.7974,-3.7974,-3.7974,-3.7974,-3.7974,-3.7974,-3.7974,-3.7974,-3.7974,-3.7974,-3.7974,-3.7974,-3.7974,-3.7974,-3.7974,-3.7974,-3.7974,-3.7974,-3.7974,-3.7974,-3.7829,-3.73,-3.6988,-3.6651,-3.6122,-3.5593,0.0,0.0,-3.5641,-3.5833,-3.6386,-3.6675,-3.694,-3.7228,-3.7517,-3.7685,-3.7613,-3.7926,-3.8118,-3.807,-3.8575,-3.8984,-3.9272,-3.9537,-3.9922,-4.0451,-4.0451,-4.0571,-4.0812,-4.0812,-4.0956,-4.1172,-4.1172,-4.1172,-4.1172,-4.1172,-4.1052,-4.0787,-4.0523,-4.0571,-4.0787,-4.0499,-4.0715,-4.1172,-4.1172,-4.1172,-4.1172,-4.9878,-4.9638,-4.9277,-4.8748,-4.8555,-4.8291,-4.7762,-4.7569,-4.7497,-4.7497,-4.7497,-4.7497,-4.7497,-4.7497,-4.7497,-4.7497,-4.7401,-4.692,-4.5982,-4.5814,-4.5438,-4.4909,-4.4885,-4.4693,-4.4285,-4.4285,-4.4021,-4.3505,-4.3,-4.2554,-4.2,-4.0884,-4.0403,-4.0355,-3.9417,-3.8936,-3.8791,-3.8359,-3.8094,-3.7974,-3.7974,-3.7974,-3.7974,-3.7974,-3.7974,-3.7974,-3.7974,-3.7974,-3.7974,-3.7974,-3.7974,-3.7974,-3.7974,-3.7974,-3.7974,-3.7974,-3.7974,-3.7974,-3.7974,-3.7974,-3.7974,-3.7974,-3.7974,-3.7974,-3.7974,-3.7974,-3.7974,-3.7974,-3.7974,-3.7853,-3.7445,-3.7276,-3.706,-3.6651,0.0,0.0,0.0,-3.617,-3.6314,-3.7252,-3.7493,-3.7781,-3.831,-3.8743,-3.8815,-3.8383,-3.9128,-3.9441,-3.9032,-3.9513,-4.0042,-4.0571,-4.0571,-4.0763,-4.1172,-4.1172,-4.1244,-4.1365,-4.1365,-4.1365,-4.1365,-4.1365,-4.1293,-4.1172,-4.1172,-4.1172,-4.1148,-4.0739,-4.0812,-4.1148,-4.0884,-4.0932,-4.122,-4.1461,-4.1485,-4.1389,-4.9878,-5.0263,-5.0407,-4.9854,-4.9349,-4.8844,-4.8315,-4.781,-4.7497,-4.7497,-4.7497,-4.7497,-4.7497,-4.7497,-4.7497,-4.7497,-4.7064,-4.6535,-4.5958,-4.539,-4.4885,-4.4357,-4.4333,-4.4333,-4.4285,-4.4285,-4.4021,-4.3505,-4.3,-4.2554,-4.2,-4.0884,-4.0403,-4.0379,-3.9801,-3.9272,-3.8815,-3.8767,-3.8455,-3.7974,-3.7974,-3.7974,-3.7974,-3.7974,-3.7974,-3.7974,-3.7974,-3.7974,-3.7974,-3.7974,-3.7974,-3.7974,-3.7974,-3.7974,-3.7974,-3.7974,-3.7974,-3.7974,-3.7974,-3.7974,-3.7974,-3.7974,-3.7974,-3.7974,-3.7974,-3.7974,-3.7974,-3.7974,-3.7974,-3.7974,-3.7926,-3.7517,-3.718,-3.7132,0.0,0.0,-3.6386,-3.6795,-3.73,-3.7853,-3.8383,-3.8912,-3.9441,-3.9513,-3.9537,-3.9489,-3.9561,-3.9585,-3.9561,-4.0042,-4.0571,-4.11,-4.1124,-4.1148,-4.1172,-4.1172,-4.1437,-4.1918,-4.1918,-4.1918,-4.1918,-4.1918,-4.1653,-4.1172,-4.1172,-4.1172,-4.1172,-4.1148,-4.1148,-4.122,-4.1677,-4.1581,-4.1293,-4.2338,-4.2386,-4.199,-4.9878,-5.0311,-5.0527,-4.9974,-4.971,-4.9277,-4.8411,-4.8122,-4.7882,-4.7545,-4.7497,-4.7497,-4.7497,-4.7497,-4.7497,-4.7497,-4.7329,-4.6848,-4.5982,-4.5742,-4.5173,-4.4333,-4.4285,-4.4285,-4.4285,-4.4285,-4.4189,-4.4034,-4.3481,-4.2976,-4.2506,-4.1701,-4.1196,-4.086,-4.0331,-3.9994,-3.9753,-3.9104,-3.8695,-3.8479,-3.8118,-3.7974,-3.7974,-3.7974,-3.7974,-3.7974,-3.7974,-3.7974,-3.7974,-3.7974,-3.7974,-3.8046,-3.8383,-3.8503,-3.8551,-3.8888,-3.8984,-3.8984,-3.8984,-3.8743,-3.8575,-3.8912,-3.8743,-3.8575,-3.8912,-3.8479,-3.8166,-3.8839,-3.8719,-3.8599,-3.8936,-3.8551,-3.831,-3.8623,0.0,-3.7613,-3.8286,-3.8286,-3.8407,-3.8936,-3.9176,-3.9393,-3.9585,-3.9898,-4.009,-4.009,-4.0403,-4.0595,-4.0595,-4.0787,-4.098,-4.1172,-4.1509,-4.1509,-4.1172,-4.1509,-4.1774,-4.1966,-4.2362,-4.253,-4.253,-4.253,-4.241,-4.2217,-4.2217,-4.2217,-4.2217,-4.2217,-4.2217,-4.2182,-4.2434,-4.2386,-4.2265,-4.2675,-4.2699,-4.2554,-4.9397,-4.9806,-5.0022,-4.9469,-4.9517,-4.9253,-4.8195,-4.8171,-4.8098,-4.7569,-4.7642,-4.7738,-4.7738,-4.7738,-4.7738,-4.7738,-4.7593,-4.7112,-4.6223,-4.5862,-4.5285,-4.4333,-4.4285,-4.4285,-4.4285,-4.4285,-4.4285,-4.4285,-4.3625,-4.3096,-4.2795,-4.2062,-4.1533,-4.1172,-4.0812,-4.0547,-4.0355,-3.9609,-3.9224,-3.9032,-3.8647,-3.8383,-3.8238,-3.8238,-3.8238,-3.8214,-3.8046,-3.819,-3.8479,-3.831,-3.8359,-3.8551,-3.8936,-3.9056,-3.9128,-3.9513,-3.9609,-3.9657,-3.9801,-3.9585,-3.9369,-3.9561,-3.932,-3.9152,-3.9537,-3.9032,-3.8695,-3.9465,-3.932,-3.9176,-3.9537,-3.932,-3.9176,-3.9561,-3.8984,-3.8743,-3.9513,-3.9296,-3.9272,-3.9801,-3.985,-3.9994,-4.0306,-4.0691,-4.0956,-4.1124,-4.1485,-4.1677,-4.1677,-4.1677,-4.1677,-4.1677,-4.2097,-4.2038,-4.1677,-4.2097,-4.2303,-4.2471,-4.2808,-4.3,-4.3,-4.3,-4.2904,-4.2819,-4.2819,-4.2819,-4.2819,-4.2819,-4.2819,-4.2843,-4.2928,-4.2904,-4.2867,-4.3144,-4.3144,-4.3024,-4.8411,-4.8724,-4.8916,-4.8387,-4.8748,-4.8724,-4.7666,-4.7954,-4.8098,-4.7569,-4.7954,-4.8291,-4.8291,-4.8291,-4.8291,-4.8291,-4.781,-4.7281,-4.6752,-4.5718,-4.4837,-4.4309,-4.4285,-4.4285,-4.4285,-4.4285,-4.4285,-4.4285,-4.3289,-4.2819,-4.2795,-4.1677,-4.1196,-4.1196,-4.1172,-4.0884,-4.0403,-4.0403,-4.009,-3.9609,-3.9609,-3.9296,-3.8815,-3.8815,-3.8815,-3.8743,-3.819,-3.8695,-3.9537,-3.9008,-3.9176,-3.9609,-3.9609,-3.9609,-3.9609,-3.9609,-3.9609,-3.9729,-4.0258,-4.0403,-4.0282,-3.9753,-3.9609,-3.9609,-3.9609,-3.9609,-3.9609,-3.9609,-3.9609,-3.9609,-3.9609,-3.9609,-3.9609,-3.9609,-3.9609,-3.9609,-3.9633,-3.9633,-3.9826,-4.0355,-4.0403,-4.0812,-4.187,-4.1966,-4.2265,-4.2771,-4.2819,-4.2819,-4.2819,-4.2819,-4.2819,-4.2819,-4.2819,-4.2819,-4.2819,-4.2819,-4.3024,-4.3505,-4.3505,-4.3529,-4.3529,-4.3529,-4.3241,-4.2843,-4.2843,-4.2843,-4.2843,-4.2843,-4.2843,-4.2891,-4.3313,-4.3216,-4.2904,-4.3962,-4.3925,-4.3601,-4.9349,-4.9517,-4.9589,-4.9421,-4.9517,-4.9277,-4.8219,-4.8195,-4.8243,-4.8074,-4.8195,-4.8435,-4.8796,-4.8507,-4.8291,-4.8291,-4.781,-4.7112,-4.6223,-4.5101,-4.4453,-4.4285,-4.4285,-4.4285,-4.4285,-4.4285,-4.4285,-4.4285,-4.4034,-4.3673,-4.3265,-4.2615,-4.2145,-4.1725,-4.1341,-4.11,-4.0932,-4.0547,-4.0306,-4.0138,-3.9753,-3.9513,-3.9369,-3.9369,-3.9369,-3.9345,-3.9176,-3.932,-3.9585,-3.9417,-3.9465,-3.9681,-4.0042,-4.0403,-4.0715,-4.0715,-4.0715,-4.0836,-4.1365,-4.122,-4.0908,-4.0739,-4.0427,-4.0258,-4.0643,-4.0138,-3.9826,-4.0571,-4.0427,-4.0282,-4.0643,-4.0403,-4.0282,-4.0643,-4.0403,-4.0427,-4.1172,-4.1268,-4.1317,-4.1485,-4.1822,-4.1894,-4.1461,-4.2145,-4.2506,-4.223,-4.2602,-4.2819,-4.2819,-4.2819,-4.2819,-4.2819,-4.3096,-4.3289,-4.3289,-4.3289,-4.3361,-4.3505,-4.3914,-4.4045,-4.4045,-4.4045,-4.3949,-4.3866,-4.3866,-4.3866,-4.3866,-4.3866,-4.3866,-4.389,-4.4034,-4.401,-4.3914,-4.4165,-4.4189,-4.4069,-4.9541,-4.9373,-4.9253,-4.9253,-4.9253,-4.8964,-4.8098,-4.8339,-4.8531,-4.8315,-4.8652,-4.9036,-4.9349,-4.9109,-4.8916,-4.8916,-4.8243,-4.7281,-4.6006,-4.5525,-4.5029,-4.4621,-4.4789,-4.4717,-4.4285,-4.4285,-4.4285,-4.4285,-4.4069,-4.3842,-4.3505,-4.2784,-4.2338,-4.2,-4.1413,-4.1172,-4.1172,-4.0836,-4.0715,-4.0691,-4.0355,-4.0114,-3.9922,-3.9922,-3.9922,-3.9898,-3.9681,-3.9874,-4.0186,-3.9994,-4.0066,-4.0282,-4.0595,-4.0932,-4.122,-4.1437,-4.1509,-4.1605,-4.2193,-4.2062,-4.1798,-4.1798,-4.1413,-4.11,-4.1413,-4.1172,-4.1028,-4.1677,-4.1557,-4.1437,-4.1749,-4.1557,-4.1437,-4.1749,-4.1533,-4.1557,-4.2265,-4.2338,-4.2338,-4.2338,-4.2627,-4.2591,-4.2134,-4.2687,-4.3024,-4.2928,-4.3216,-4.3385,-4.3385,-4.3577,-4.3601,-4.3385,-4.389,-4.4058,-4.3842,-4.4058,-4.4058,-4.3842,-4.4117,-4.4285,-4.4285,-4.4285,-4.4285,-4.4285,-4.4285,-4.4285,-4.4285,-4.4285,-4.4285,-4.4285,-4.4285,-4.4285,-4.4285,-4.4285,-4.4285,-4.4285,-4.9301,-4.8796,-4.8435,-4.8435,-4.8387,-4.8195,-4.7714,-4.8411,-4.8868,-4.8483,-4.9277,-4.9878,-4.9926,-4.9902,-4.9878,-4.9878,-4.8868,-4.7593,-4.6102,-4.6367,-4.615,-4.5101,-4.5597,-4.5366,-4.4453,-4.4381,-4.4357,-4.4357,-4.3866,-4.3577,-4.3553,-4.2519,-4.2038,-4.2073,-4.1437,-4.1172,-4.1172,-4.1172,-4.1172,-4.1172,-4.1172,-4.0884,-4.0475,-4.0475,-4.0475,-4.0403,-3.9922,-4.0355,-4.1124,-4.0691,-4.086,-4.1268,-4.1317,-4.1317,-4.1413,-4.1894,-4.2038,-4.2217,-4.2747,-4.2867,-4.2843,-4.294,-4.2495,-4.2086,-4.2062,-4.2482,-4.2819,-4.2819,-4.2819,-4.2819,-4.2819,-4.2819,-4.2819,-4.2819,-4.2819,-4.2843,-4.2891,-4.2891,-4.2891,-4.2891,-4.288,-4.3048,-4.3409,-4.3481,-4.3746,-4.4237,-4.4333,-4.4357,-4.4357,-4.4861,-4.4933,-4.4453,-4.4885,-4.4909,-4.4429,-4.4909,-4.4861,-4.4285,-4.4333,-4.4333,-4.4285,-4.4285,-4.4285,-4.4285,-4.4285,-4.4285,-4.4285,-4.4285,-4.4285,-4.4285,-4.4285,-4.4285,-4.4285,-4.4285,-4.4223,-4.4099,-5.0287,-4.9902,-4.9517,-4.9517,-4.9181,-4.8868,-4.8748,-4.8579,-4.8724,-4.9421,-4.9734,-5.0022,-5.0479,-5.0143,-4.9878,-4.9878,-4.8531,-4.7353,-4.6583,-4.5886,-4.5317,-4.5077,-4.5173,-4.5342,-4.5573,-4.5101,-4.4909,-4.4909,-4.4357,-4.4117,-4.4069,-4.3096,-4.2651,-4.2602,-4.1605,-4.1172,-4.1172,-4.1172,-4.1172,-4.1172,-4.1172,-4.1124,-4.1004,-4.1004,-4.1004,-4.1004,-4.0884,-4.098,-4.122,-4.1533,-4.1701,-4.187,-4.2338,-4.2482,-4.2506,-4.2602,-4.2651,-4.2771,-4.3216,-4.3072,-4.3012,-4.3794,-4.3577,-4.3072,-4.2747,-4.2747,-4.2819,-4.2819,-4.2819,-4.2819,-4.2819,-4.2819,-4.2819,-4.2819,-4.2819,-4.2964,-4.3289,-4.3337,-4.3337,-4.3337,-4.3746,-4.3721,-4.3,-4.3289,-4.3746,-4.4237,-4.4669,-4.4909,-4.4909,-4.5477,-4.5694,-4.5597,-4.5694,-4.5694,-4.551,-4.5694,-4.5285,-4.4285,-4.4717,-4.4693,-4.4285,-4.4285,-4.4285,-4.4285,-4.4285,-4.4285,-4.4285,-4.4285,-4.4285,-4.4285,-4.4285,-4.4285,-4.4285,-4.4285,-4.3639,-4.261,-5.0648,-5.0263,-4.9878,-4.9878,-4.9229,-4.8796,-4.9036,-4.8844,-4.894,-4.9758,-5.0095,-5.0383,-5.0672,-5.0455,-5.0167,-4.9878,-4.9109,-4.8074,-4.68,-4.6439,-4.5934,-4.5101,-4.5621,-4.6006,-4.6295,-4.603,-4.5645,-4.5077,-4.4549,-4.4285,-4.4261,-4.3505,-4.312,-4.3072,-4.2038,-4.1557,-4.1533,-4.1293,-4.1172,-4.1172,-4.1172,-4.1172,-4.1172,-4.1172,-4.1341,-4.1557,-4.1557,-4.1725,-4.199,-4.2313,-4.241,-4.2458,-4.2723,-4.2819,-4.2867,-4.3048,-4.312,-4.3241,-4.377,-4.3721,-4.3721,-4.4453,-4.4453,-4.4154,-4.3625,-4.3721,-4.3818,-4.3577,-4.3721,-4.389,-4.389,-4.3697,-4.3673,-4.4178,-4.4058,-4.3986,-4.4251,-4.4275,-4.4202,-4.3938,-4.4117,-4.4165,-4.3914,-4.4371,-4.478,-4.5005,-4.5293,-4.5438,-4.5438,-4.6006,-4.6175,-4.5934,-4.6175,-4.6175,-4.5934,-4.6175,-4.5886,-4.5053,-4.5381,-4.5293,-4.5029,-4.4765,-4.4669,-4.4645,-4.4405,-4.4285,-4.4285,-4.4285,-4.4285,-4.4285,-4.4285,-4.4285,-4.4285,-4.4285,-4.3451,-4.2102,-5.0696,-5.0335,-5.0022,-5.0022,-4.9205,-4.8748,-4.9277,-4.9277,-4.9397,-4.995,-5.0407,-5.0696,-5.0696,-5.0696,-5.0503,-5.0046,-4.9926,-4.9084,-4.7233,-4.7281,-4.6824,-4.5534,-4.6199,-4.6655,-4.6848,-4.6752,-4.6247,-4.5197,-4.4669,-4.4381,-4.4261,-4.377,-4.3457,-4.3337,-4.2399,-4.1918,-4.1798,-4.1365,-4.1172,-4.1172,-4.1172,-4.1172,-4.1172,-4.1172,-4.1461,-4.1904,-4.1942,-4.2362,-4.2843,-4.2916,-4.294,-4.2964,-4.3,-4.3096,-4.3241,-4.3673,-4.3842,-4.4034,-4.4429,-4.4549,-4.4669,-4.5197,-4.5269,-4.5125,-4.4765,-4.4885,-4.4981,-4.4621,-4.4837,-4.5101,-4.5197,-4.4861,-4.4837,-4.579,-4.5549,-4.5197,-4.5197,-4.5197,-4.5053,-4.4621,-4.4549,-4.4717,-4.5173,-4.5669,-4.5934,-4.5934,-4.6102,-4.615,-4.6054,-4.6655,-4.6728,-4.6199,-4.6607,-4.6631,-4.6199,-4.6631,-4.6631,-4.6199,-4.6199,-4.6102,-4.591,-4.5477,-4.5197,-4.5173,-4.4741,-4.4501,-4.4429,-4.4429,-4.4357,-4.4285,-4.4285,-4.4285,-4.4223,-4.3764,-4.2925,-4.1697,-5.0696,-5.0648,-5.06,-5.06,-5.007,-4.983,-5.0407,-5.007,-4.995,-5.0527,-5.0648,-5.0696,-5.0696,-5.0696,-5.0672,-5.06,-5.0143,-4.9541,-4.8796,-4.7545,-4.692,-4.7161,-4.6439,-4.6463,-4.7377,-4.6944,-4.6415,-4.5814,-4.5221,-4.4741,-4.4261,-4.377,-4.3289,-4.2891,-4.2289,-4.1725,-4.1293,-4.122,-4.1172,-4.1172,-4.1172,-4.1172,-4.1172,-4.1172,-4.122,-4.1341,-4.1798,-4.2362,-4.2891,-4.3265,-4.3409,-4.3505,-4.3986,-4.4443,-4.4828,-4.4837,-4.5237,-4.5621,-4.5694,-4.5718,-4.5838,-4.6367,-4.615,-4.591,-4.6295,-4.5742,-4.5173,-4.5621,-4.5342,-4.5221,-4.5742,-4.5766,-4.5766,-4.591,-4.5862,-4.5814,-4.5814,-4.5814,-4.579,-4.5718,-4.5718,-4.5742,-4.5814,-4.5886,-4.5934,-4.5934,-4.6776,-4.7088,-4.6631,-4.7545,-4.7834,-4.7305,-4.7353,-4.7353,-4.7281,-4.7353,-4.7353,-4.7281,-4.7281,-4.68,-4.5934,-4.5862,-4.5814,-4.5814,-4.5742,-4.5453,-4.4957,-4.4957,-4.4693,-4.4285,-4.4285,-4.4285,-4.4037,-4.1633,-4.0646,-4.0127,-5.0696,-5.0696,-5.0696,-5.0696,-5.0239,-5.0046,-5.0624,-5.0215,-5.007,-5.0624,-5.0696,-5.0696,-5.0696,-5.0696,-5.0696,-5.0696,-5.0191,-4.9517,-4.87,-4.7978,-4.7161,-4.6223,-4.6583,-4.6752,-4.6631,-4.6968,-4.6896,-4.6367,-4.5549,-4.4957,-4.4717,-4.4165,-4.3866,-4.3625,-4.3072,-4.2711,-4.2471,-4.2182,-4.2062,-4.2062,-4.2062,-4.1894,-4.1653,-4.2,-4.2062,-4.2182,-4.3,-4.3457,-4.3673,-4.3914,-4.4178,-4.4467,-4.4645,-4.5101,-4.5573,-4.5573,-4.5742,-4.5934,-4.5934,-4.5934,-4.6054,-4.6583,-4.6535,-4.6511,-4.704,-4.6559,-4.6006,-4.5934,-4.5982,-4.6102,-4.6319,-4.6126,-4.6126,-4.6704,-4.6559,-4.6367,-4.6367,-4.6367,-4.6247,-4.5958,-4.6175,-4.6487,-4.6776,-4.7064,-4.7377,-4.7666,-4.7858,-4.7834,-4.7617,-4.7762,-4.7738,-4.7521,-4.7497,-4.7497,-4.7497,-4.7497,-4.7497,-4.7497,-4.7497,-4.7257,-4.68,-4.6487,-4.6367,-4.6343,-4.6054,-4.579,-4.5486,-4.5197,-4.4933,-4.4693,-4.4405,-4.4285,-4.3998,-4.1475,-4.0432,-3.9844]},{"header":{"parameterUnit":"m.s-1","parameterCategory":1,"la1":30.6,"la2":28.766,"lo1":-90.7593,"lo2":-88.6598,"dy":0.0162,"dx":0.0183,"nx":116,"ny":114,"refTime":"2023-04-17T12:00:00:Z","depth":0,"parameterNumber":3,"parameterNumberName":"V-component_of_WINDS"},"data":[0.0,0.0,0.0,0.0,0.0,0.0,0.0,0.0,0.0,0.0,0.0,0.0,0.0,0.0,0.0,0.0,0.0,0.0,0.0,0.0,0.0,0.0,0.0,0.0,0.0,0.0,0.0,0.0,0.0,0.0,0.0,0.0,0.0,0.0,0.0,0.0,0.0,0.0,0.0,0.0,0.0,0.0,0.0,0.0,0.0,0.0,0.0,0.0,0.0,0.0,0.0,0.0,0.0,0.0,0.0,0.0,0.0,0.0,0.0,0.0,0.0,0.0,0.0,0.0,0.0,0.0,0.0,0.0,0.0,0.0,0.0,0.0,0.0,0.0,0.0,0.0,0.0,0.0,0.0,0.0,0.0,0.0,0.0,0.0,0.0,0.0,0.0,0.0,0.0,0.0,0.0,0.0,0.0,0.0,0.0,0.0,0.0,0.0,0.0,0.0,0.0,0.0,0.0,0.0,0.0,0.0,0.0,0.0,0.0,0.0,0.0,0.0,0.0,0.0,0.0,0.0,0.0,0.0,0.0,0.0,0.0,0.0,0.0,0.0,0.0,0.0,0.0,0.0,0.0,0.0,0.0,0.0,0.0,0.0,0.0,0.0,0.0,0.0,0.0,0.0,0.0,0.0,0.0,0.0,0.0,0.0,0.0,0.0,0.0,0.0,0.0,0.0,0.0,0.0,0.0,0.0,0.0,0.0,0.0,0.0,0.0,0.0,0.0,0.0,0.0,0.0,0.0,0.0,0.0,0.0,0.0,0.0,0.0,0.0,0.0,0.0,0.0,0.0,0.0,0.0,0.0,0.0,0.0,0.0,0.0,0.0,0.0,0.0,0.0,0.0,0.0,0.0,0.0,0.0,0.0,0.0,0.0,0.0,0.0,0.0,0.0,0.0,0.0,0.0,0.0,0.0,0.0,0.0,0.0,0.0,0.0,0.0,0.0,0.0,0.0,0.0,0.0,0.0,0.0,0.0,0.0,0.0,0.0,0.0,0.0,0.0,0.0,0.0,0.0,0.0,0.0,0.0,0.0,0.0,0.0,0.0,0.0,0.0,0.0,0.0,0.0,0.0,0.0,0.0,0.0,0.0,0.0,0.0,0.0,0.0,0.0,0.0,0.0,0.0,0.0,0.0,0.0,0.0,0.0,0.0,0.0,0.0,0.0,0.0,0.0,0.0,0.0,0.0,0.0,0.0,0.0,0.0,0.0,0.0,0.0,0.0,0.0,0.0,0.0,0.0,0.0,0.0,0.0,0.0,0.0,0.0,0.0,0.0,0.0,0.0,0.0,0.0,0.0,0.0,0.0,0.0,0.0,0.0,0.0,0.0,0.0,0.0,0.0,0.0,0.0,0.0,0.0,0.0,0.0,0.0,0.0,0.0,0.0,0.0,0.0,0.0,0.0,0.0,0.0,0.0,0.0,0.0,0.0,0.0,0.0,0.0,0.0,0.0,0.0,0.0,0.0,0.0,0.0,0.0,0.0,0.0,0.0,0.0,0.0,0.0,0.0,0.0,0.0,0.0,0.0,0.0,0.0,0.0,0.0,0.0,0.0,0.0,0.0,0.0,0.0,0.0,0.0,0.0,0.0,0.0,0.0,0.0,0.0,0.0,0.0,0.0,0.0,0.0,0.0,0.0,0.0,0.0,0.0,0.0,0.0,0.0,0.0,0.0,0.0,0.0,0.0,0.0,0.0,0.0,0.0,0.0,0.0,0.0,0.0,0.0,0.0,0.0,0.0,0.0,0.0,0.0,0.0,0.0,0.0,0.0,0.0,0.0,0.0,0.0,0.0,0.0,0.0,0.0,0.0,0.0,0.0,0.0,0.0,0.0,0.0,0.0,0.0,0.0,0.0,0.0,0.0,0.0,0.0,0.0,0.0,0.0,0.0,0.0,0.0,0.0,0.0,0.0,0.0,0.0,0.0,0.0,0.0,0.0,0.0,0.0,0.0,0.0,0.0,0.0,0.0,0.0,0.0,0.0,0.0,0.0,0.0,0.0,0.0,0.0,0.0,0.0,0.0,0.0,0.0,0.0,0.0,0.0,0.0,0.0,0.0,0.0,0.0,0.0,0.0,0.0,0.0,0.0,0.0,0.0,0.0,0.0,0.0,0.0,0.0,0.0,0.0,0.0,0.0,0.0,0.0,0.0,0.0,0.0,0.0,0.0,0.0,0.0,0.0,0.0,0.0,0.0,0.0,0.0,0.0,0.0,0.0,0.0,0.0,0.0,0.0,0.0,0.0,0.0,0.0,0.0,0.0,0.0,0.0,0.0,0.0,0.0,0.0,0.0,0.0,0.0,0.0,0.0,0.0,0.0,0.0,0.0,0.0,0.0,0.0,0.0,0.0,0.0,0.0,0.0,0.0,0.0,0.0,0.0,0.0,0.0,0.0,0.0,0.0,0.0,0.0,0.0,0.0,0.0,0.0,0.0,0.0,0.0,0.0,0.0,0.0,0.0,0.0,0.0,0.0,0.0,0.0,0.0,0.0,0.0,0.0,0.0,0.0,0.0,0.0,0.0,0.0,0.0,0.0,0.0,0.0,0.0,0.0,0.0,0.0,0.0,0.0,0.0,0.0,0.0,0.0,0.0,0.0,0.0,0.0,0.0,0.0,0.0,0.0,0.0,0.0,0.0,0.0,0.0,0.0,0.0,0.0,0.0,0.0,0.0,0.0,0.0,0.0,0.0,0.0,0.0,0.0,0.0,0.0,0.0,0.0,0.0,0.0,0.0,0.0,0.0,0.0,0.0,0.0,0.0,0.0,0.0,0.0,0.0,0.0,0.0,0.0,0.0,0.0,0.0,0.0,0.0,0.0,0.0,0.0,0.0,0.0,0.0,0.0,0.0,0.0,0.0,0.0,0.0,0.0,0.0,0.0,0.0,0.0,0.0,0.0,0.0,0.0,0.0,0.0,0.0,0.0,0.0,0.0,0.0,0.0,0.0,0.0,0.0,0.0,0.0,0.0,0.0,0.0,0.0,0.0,0.0,0.0,0.0,0.0,0.0,0.0,0.0,0.0,0.0,0.0,0.0,0.0,0.0,0.0,0.0,0.0,0.0,0.0,0.0,0.0,0.0,0.0,0.0,0.0,0.0,0.0,0.0,0.0,0.0,0.0,0.0,0.0,0.0,0.0,0.0,0.0,0.0,0.0,0.0,0.0,0.0,0.0,0.0,0.0,0.0,0.0,0.0,0.0,0.0,0.0,0.0,0.0,0.0,0.0,0.0,0.0,0.0,0.0,0.0,0.0,0.0,0.0,0.0,0.0,0.0,0.0,0.0,0.0,0.0,0.0,0.0,0.0,0.0,0.0,0.0,0.0,0.0,0.0,0.0,0.0,0.0,0.0,0.0,0.0,0.0,0.0,0.0,0.0,0.0,0.0,0.0,0.0,0.0,0.0,0.0,0.0,0.0,0.0,0.0,0.0,0.0,0.0,0.0,0.0,0.0,0.0,0.0,0.0,0.0,0.0,0.0,0.0,0.0,0.0,0.0,0.0,0.0,0.0,0.0,0.0,0.0,0.0,0.0,0.0,0.0,0.0,0.0,0.0,0.0,0.0,0.0,0.0,0.0,0.0,0.0,0.0,0.0,0.0,0.0,0.0,0.0,0.0,0.0,0.0,0.0,0.0,0.0,0.0,0.0,0.0,0.0,0.0,0.0,0.0,0.0,0.0,0.0,0.0,0.0,0.0,0.0,0.0,0.0,0.0,0.0,0.0,0.0,0.0,0.0,0.0,0.0,0.0,0.0,0.0,0.0,0.0,0.0,0.0,0.0,0.0,0.0,0.0,0.0,0.0,0.0,0.0,0.0,0.0,0.0,0.0,0.0,0.0,0.0,0.0,0.0,0.0,0.0,0.0,0.0,0.0,0.0,0.0,0.0,0.0,0.0,0.0,0.0,0.0,0.0,0.0,0.0,0.0,0.0,0.0,0.0,0.0,0.0,0.0,0.0,0.0,0.0,0.0,0.0,0.0,0.0,0.0,0.0,0.0,0.0,0.0,0.0,0.0,0.0,0.0,0.0,0.0,0.0,0.0,0.0,0.0,0.0,0.0,0.0,0.0,0.0,0.0,0.0,0.0,0.0,0.0,0.0,0.0,0.0,0.0,0.0,0.0,0.0,0.0,0.0,0.0,0.0,0.0,0.0,0.0,0.0,0.0,0.0,0.0,0.0,0.0,0.0,0.0,0.0,0.0,0.0,0.0,0.0,0.0,0.0,0.0,0.0,0.0,0.0,0.0,0.0,0.0,0.0,0.0,0.0,0.0,0.0,0.0,0.0,0.0,0.0,0.0,0.0,0.0,0.0,0.0,0.0,0.0,0.0,0.0,0.0,0.0,0.0,0.0,0.0,0.0,0.0,0.0,0.0,0.0,0.0,0.0,0.0,0.0,0.0,0.0,0.0,0.0,0.0,0.0,0.0,0.0,0.0,0.0,0.0,0.0,0.0,0.0,0.0,0.0,0.0,0.0,0.0,0.0,0.0,0.0,0.0,0.0,0.0,0.0,0.0,0.0,0.0,0.0,0.0,0.0,0.0,0.0,0.0,0.0,0.0,0.0,0.0,0.0,0.0,0.0,0.0,0.0,0.0,0.0,0.0,0.0,0.0,0.0,0.0,0.0,0.0,0.0,0.0,0.0,0.0,0.0,0.0,0.0,0.0,0.0,0.0,0.0,0.0,0.0,0.0,0.0,0.0,0.0,0.0,0.0,0.0,0.0,0.0,0.0,0.0,0.0,0.0,0.0,0.0,0.0,0.0,0.0,0.0,0.0,0.0,0.0,0.0,0.0,0.0,0.0,0.0,0.0,0.0,0.0,0.0,0.0,0.0,0.0,0.0,0.0,0.0,0.0,0.0,0.0,0.0,0.0,0.0,0.0,0.0,0.0,0.0,0.0,0.0,0.0,0.0,0.0,0.0,0.0,0.0,0.0,0.0,0.0,0.0,0.0,0.0,0.0,0.0,0.0,0.0,0.0,0.0,0.0,0.0,0.0,0.0,0.0,0.0,0.0,0.0,0.0,0.0,0.0,0.0,0.0,0.0,0.0,0.0,0.0,0.0,0.0,0.0,0.0,0.0,0.0,0.0,0.0,0.0,0.0,0.0,0.0,0.0,0.0,0.0,0.0,0.0,0.0,0.0,0.0,0.0,0.0,0.0,0.0,0.0,0.0,0.0,0.0,0.0,0.0,0.0,0.0,0.0,0.0,0.0,0.0,0.0,0.0,0.0,0.0,0.0,0.0,0.0,0.0,0.0,0.0,0.0,0.0,0.0,0.0,0.0,0.0,0.0,0.0,0.0,0.0,0.0,0.0,0.0,0.0,0.0,0.0,0.0,0.0,0.0,0.0,0.0,0.0,0.0,0.0,0.0,0.0,0.0,0.0,0.0,0.0,0.0,0.0,0.0,0.0,0.0,0.0,0.0,0.0,0.0,0.0,0.0,0.0,0.0,0.0,0.0,0.0,0.0,0.0,0.0,0.0,0.0,0.0,0.0,0.0,0.0,0.0,0.0,0.0,0.0,0.0,0.0,0.0,0.0,0.0,0.0,0.0,0.0,0.0,0.0,0.0,0.0,0.0,0.0,0.0,0.0,0.0,0.0,0.0,0.0,0.0,0.0,0.0,0.0,0.0,0.0,0.0,0.0,0.0,0.0,0.0,0.0,0.0,0.0,0.0,0.0,0.0,0.0,0.0,0.0,0.0,0.0,0.0,0.0,0.0,0.0,0.0,0.0,0.0,0.0,0.0,0.0,0.0,0.0,0.0,0.0,0.0,0.0,0.0,0.0,0.0,0.0,0.0,0.0,0.0,0.0,0.0,0.0,0.0,0.0,0.0,0.0,0.0,0.0,0.0,0.0,0.0,0.0,0.0,0.0,0.0,0.0,0.0,0.0,0.0,0.0,0.0,0.0,0.0,0.0,0.0,0.0,0.0,0.0,0.0,0.0,0.0,0.0,0.0,0.0,0.0,0.0,0.0,0.0,0.0,0.0,0.0,0.0,0.0,0.0,0.0,0.0,0.0,0.0,0.0,0.0,0.0,0.0,0.0,0.0,0.0,0.0,0.0,0.0,0.0,0.0,0.0,0.0,0.0,0.0,0.0,0.0,2.5313,0.0,0.0,0.0,0.0,0.0,0.0,0.0,0.0,0.0,0.0,0.0,0.0,0.0,0.0,0.0,0.0,0.0,0.0,0.0,0.0,0.0,0.0,0.0,0.0,0.0,0.0,0.0,0.0,0.0,0.0,0.0,0.0,0.0,0.0,0.0,0.0,0.0,0.0,0.0,3.4143,3.4322,3.4981,3.4981,3.516,3.5519,0.0,0.0,0.0,0.0,0.0,0.0,0.0,0.0,0.0,0.0,0.0,0.0,0.0,0.0,0.0,0.0,0.0,0.0,0.0,0.0,0.0,0.0,0.0,0.0,0.0,0.0,0.0,0.0,0.0,0.0,0.0,0.0,0.0,0.0,0.0,0.0,0.0,0.0,0.0,0.0,0.0,0.0,0.0,0.0,0.0,0.0,0.0,0.0,0.0,0.0,0.0,0.0,0.0,0.0,0.0,0.0,0.0,0.0,0.0,0.0,0.0,0.0,0.0,0.0,0.0,0.0,0.0,0.0,0.0,0.0,0.0,2.7508,0.0,0.0,0.0,0.0,0.0,0.0,0.0,0.0,0.0,0.0,0.0,0.0,0.0,0.0,0.0,0.0,0.0,0.0,0.0,0.0,0.0,0.0,0.0,0.0,3.1632,3.1634,3.1752,0.0,0.0,0.0,0.0,0.0,0.0,0.0,0.0,3.4113,3.4382,3.5519,3.528,3.5579,3.6357,3.6477,3.6537,3.6507,3.5938,0.0,0.0,0.0,0.0,0.0,0.0,0.0,0.0,0.0,0.0,0.0,0.0,0.0,0.0,0.0,0.0,0.0,0.0,0.0,0.0,0.0,0.0,0.0,0.0,0.0,0.0,0.0,0.0,0.0,0.0,0.0,0.0,0.0,0.0,0.0,0.0,0.0,0.0,0.0,0.0,0.0,0.0,0.0,0.0,0.0,0.0,0.0,0.0,0.0,0.0,0.0,0.0,0.0,0.0,0.0,0.0,0.0,0.0,0.0,0.0,0.0,0.0,0.0,3.0928,3.1479,3.1757,3.2463,3.2851,3.283,3.183,3.0538,2.9122,2.8817,0.0,0.0,0.0,0.0,0.0,0.0,0.0,0.0,0.0,0.0,0.0,0.0,0.0,0.0,0.0,0.0,0.0,0.0,0.0,0.0,0.0,3.1988,3.2377,3.2911,3.3124,3.3275,0.0,0.0,0.0,0.0,0.0,0.0,3.534,3.528,3.534,3.5519,3.7105,3.8512,3.9768,4.0337,4.0606,4.0487,3.7614,3.6656,3.7135,0.0,0.0,0.0,0.0,0.0,0.0,0.0,0.0,0.0,0.0,0.0,0.0,0.0,0.0,0.0,0.0,0.0,0.0,0.0,0.0,0.0,0.0,0.0,0.0,0.0,0.0,0.0,0.0,0.0,0.0,0.0,0.0,0.0,0.0,0.0,0.0,0.0,0.0,0.0,0.0,0.0,2.9083,2.8568,0.0,0.0,0.0,0.0,0.0,0.0,0.0,0.0,0.0,0.0,0.0,0.0,0.0,3.0127,3.1119,3.334,3.394,3.3038,3.5287,3.5778,3.4779,3.6189,3.6864,3.6921,3.83,0.0,3.1495,2.9896,0.0,0.0,0.0,0.0,0.0,0.0,0.0,0.0,0.0,0.0,0.0,0.0,0.0,0.0,0.0,0.0,0.0,0.0,0.0,0.0,0.0,3.3018,3.3828,3.3676,3.527,3.5789,3.4711,0.0,0.0,0.0,0.0,3.519,3.5489,3.5519,3.6237,3.7704,3.9679,4.1294,4.2611,4.2521,4.2671,4.297,4.1534,4.0008,3.8482,3.7434,0.0,0.0,0.0,0.0,0.0,0.0,0.0,0.0,0.0,0.0,0.0,0.0,0.0,0.0,0.0,0.0,0.0,0.0,0.0,0.0,0.0,0.0,0.0,0.0,0.0,0.0,0.0,0.0,0.0,0.0,0.0,0.0,0.0,0.0,0.0,0.0,0.0,0.0,0.0,2.9578,2.96,2.9016,2.9485,2.9434,0.0,0.0,0.0,0.0,0.0,0.0,0.0,0.0,0.0,3.262,3.3195,3.386,3.4737,3.6155,3.692,3.6985,3.8081,3.8616,3.8684,3.9018,3.9196,3.9215,3.9326,3.82,3.6099,3.4122,3.2879,3.2018,0.0,0.0,0.0,0.0,3.0402,3.118,0.0,0.0,0.0,0.0,0.0,0.0,0.0,0.0,0.0,0.0,0.0,0.0,3.2425,3.4479,3.5769,3.5735,3.7461,3.8023,3.6836,3.6866,0.0,0.0,0.0,3.5519,3.5519,3.6327,3.8123,4.0935,4.3129,4.4796,4.6082,4.5711,4.5783,4.6052,4.5723,4.3748,4.0576,3.908,3.8063,3.7409,0.0,0.0,0.0,0.0,0.0,0.0,0.0,0.0,0.0,0.0,0.0,0.0,0.0,0.0,0.0,0.0,0.0,0.0,0.0,0.0,0.0,0.0,0.0,0.0,0.0,0.0,0.0,0.0,0.0,0.0,0.0,0.0,0.0,0.0,0.0,0.0,0.0,3.0115,3.0596,2.9614,3.1026,3.1418,0.0,0.0,0.0,0.0,0.0,0.0,3.3077,3.3849,3.5025,3.6776,3.7377,3.8004,3.8762,3.9207,3.986,4.0697,4.054,4.0932,4.1716,4.1363,4.1248,4.1244,4.0709,4.0556,4.0392,3.7659,3.5836,3.4592,3.2946,3.2557,3.2916,3.2258,3.2647,3.3484,0.0,0.0,0.0,0.0,0.0,0.0,0.0,0.0,0.0,0.0,0.0,3.2454,3.4927,3.6522,3.8223,4.0271,3.9565,3.9304,4.0127,3.7285,3.5848,3.6417,3.5848,3.5519,3.5519,3.8571,4.1743,4.5005,4.7682,4.9583,5.09,5.1468,5.1439,5.081,4.9583,4.7189,4.3958,4.2013,4.0786,3.9978,3.7499,0.0,0.0,0.0,0.0,0.0,0.0,0.0,0.0,0.0,0.0,0.0,0.0,0.0,0.0,0.0,0.0,0.0,0.0,0.0,0.0,0.0,0.0,0.0,0.0,0.0,0.0,0.0,0.0,0.0,0.0,0.0,0.0,0.0,0.0,0.0,0.0,0.0,0.0,3.0309,3.3038,0.0,0.0,0.0,0.0,3.2568,3.4554,3.607,3.6698,3.7795,3.9207,4.0958,4.1559,4.2447,4.352,4.3546,4.3651,4.365,4.3101,4.2892,4.2918,4.3356,4.3534,4.3606,4.4918,4.4731,4.3214,3.8609,3.7258,3.7883,3.5372,3.5459,3.6806,3.4322,3.4622,3.6118,0.0,0.0,0.0,0.0,0.0,0.0,0.0,0.0,0.0,3.1438,3.2568,3.4341,3.6896,3.9605,4.1975,4.372,4.4004,4.3586,4.2432,4.0008,3.8362,3.7734,3.6716,3.7135,3.923,4.2073,4.5155,4.8432,5.1139,5.3114,5.4401,5.4221,5.4221,5.4371,5.3473,5.2187,5.0361,4.5364,4.2641,4.1482,3.8781,3.7315,0.0,0.0,0.0,0.0,0.0,0.0,0.0,0.0,0.0,0.0,0.0,0.0,0.0,0.0,0.0,0.0,0.0,0.0,0.0,0.0,0.0,0.0,0.0,0.0,0.0,0.0,0.0,0.0,0.0,0.0,0.0,0.0,0.0,0.0,0.0,0.0,0.0,3.5129,3.7168,0.0,3.5861,3.641,3.6959,3.7142,3.8579,4.0043,4.135,4.216,4.3206,4.4591,4.4826,4.4957,4.5009,4.5009,4.48,4.4408,4.4225,4.4121,4.4095,4.3492,4.3579,4.4203,4.3973,4.3714,4.3414,4.2338,4.1266,4.0127,3.8362,3.8093,3.8566,3.7644,3.8033,3.8871,0.0,0.0,0.0,0.0,0.0,0.0,0.0,0.0,3.0917,3.1758,3.3529,3.588,3.8841,4.2187,4.4996,4.7081,4.6727,4.576,4.4167,4.1115,3.8901,3.7793,3.7584,3.902,4.2312,4.5603,4.8925,5.2247,5.491,5.6645,5.7483,5.7034,5.6944,5.7124,5.6466,5.5927,5.5179,5.0122,4.6591,4.4148,4.1235,3.9798,3.908,0.0,0.0,0.0,0.0,0.0,0.0,0.0,0.0,0.0,0.0,0.0,0.0,0.0,0.0,0.0,0.0,0.0,0.0,0.0,0.0,0.0,0.0,0.0,0.0,0.0,0.0,0.0,0.0,0.0,0.0,0.0,0.0,0.0,0.0,0.0,3.876,3.9019,4.1063,4.1768,4.0043,4.0592,4.1115,4.1324,4.2579,4.3938,4.5245,4.5872,4.6552,4.7336,4.7362,4.7074,4.6499,4.629,4.5947,4.5555,4.5218,4.4981,4.4929,4.3624,4.336,4.3972,4.3161,4.3148,4.3694,4.4464,4.3994,4.2581,4.1265,4.0689,4.0659,4.0247,4.0487,4.0965,0.0,0.0,0.0,0.0,0.0,0.0,0.0,3.0598,3.1062,3.2338,3.4225,3.6932,4.0757,4.4037,4.7228,5.0294,4.7478,4.5457,4.5293,4.0337,3.7165,3.6596,3.8512,4.1115,4.4466,4.9015,5.2965,5.6338,5.886,6.0116,6.0116,6.0116,5.9787,5.9129,5.8501,5.8201,5.8082,5.6166,5.2725,4.8297,4.4915,4.3509,4.2961,0.0,0.0,0.0,0.0,0.0,0.0,0.0,0.0,0.0,0.0,0.0,0.0,0.0,0.0,0.0,0.0,0.0,0.0,0.0,0.0,0.0,0.0,0.0,0.0,0.0,0.0,0.0,0.0,0.0,0.0,0.0,0.0,0.0,3.6628,4.068,4.3214,4.1762,4.4593,4.5506,4.2761,4.446,4.5558,4.4903,4.6443,4.7702,4.825,4.8852,4.9139,4.9113,4.9113,4.8799,4.8172,4.7597,4.7252,4.72,4.6104,4.5555,4.5477,4.3807,4.3023,4.3048,4.2892,4.3416,4.4303,4.4665,4.5022,4.5143,4.3828,4.3319,4.314,4.1893,4.1871,4.2321,0.0,0.0,0.0,0.0,0.0,0.0,0.0,3.0598,3.1062,3.2338,3.5009,3.8405,4.2731,4.604,4.8989,5.166,4.842,4.5973,4.5323,4.0337,3.7764,3.8571,4.1414,4.4975,4.9224,5.2456,5.5718,5.9009,6.0236,6.0835,6.0835,6.0835,6.0745,6.0565,6.0386,6.0296,6.0236,5.9189,5.7453,5.491,4.9224,4.6352,4.5083,0.0,0.0,0.0,0.0,0.0,0.0,0.0,0.0,0.0,0.0,0.0,0.0,0.0,0.0,0.0,0.0,0.0,0.0,0.0,0.0,0.0,0.0,0.0,0.0,0.0,0.0,0.0,0.0,0.0,0.0,0.0,0.0,4.3048,4.1544,4.3469,4.5845,4.7996,4.9044,4.9296,4.8486,4.8982,4.9296,4.9139,4.9923,5.0498,5.0655,5.0812,5.0524,4.9688,4.9662,4.8982,4.7571,4.7357,4.6861,4.6025,4.5712,4.5346,4.4877,4.3624,4.3412,4.4047,4.3939,4.4031,4.4331,4.5171,4.5273,4.4907,4.424,4.3708,4.326,4.2901,4.2871,4.297,0.0,0.0,0.0,0.0,0.0,0.0,0.0,3.0746,3.1123,3.2433,3.5636,3.9179,4.2789,4.613,4.8792,5.0629,4.7464,4.4904,4.3748,4.0277,3.92,4.1384,4.4885,4.8716,5.2785,5.5748,5.8441,6.0924,6.1613,6.1942,6.1942,6.1942,6.1942,6.1942,6.1942,6.1942,6.1882,6.1224,6.0475,5.9368,5.47,5.1708,4.9613,4.5753,4.4377,4.4197,4.1743,4.1444,4.1893,3.9768,0.0,0.0,0.0,0.0,0.0,0.0,0.0,0.0,0.0,0.0,0.0,0.0,0.0,0.0,0.0,0.0,0.0,0.0,0.0,0.0,0.0,0.0,0.0,0.0,4.4333,4.7226,4.787,4.8682,4.9828,5.1389,5.1778,5.1884,5.1884,5.1884,5.1884,5.1884,5.2171,5.225,5.1988,5.1962,5.1335,4.9923,4.9897,4.9191,4.7702,4.7702,4.7362,4.6682,4.6212,4.5794,4.5401,4.3755,4.3308,4.3819,4.3286,4.3511,4.4312,4.447,4.451,0.0,0.0,0.0,0.0,0.0,4.329,4.32,0.0,0.0,0.0,0.0,0.0,0.0,0.0,3.0925,3.1275,3.2499,3.5945,3.9206,4.1552,4.4778,4.7134,4.7979,4.5293,4.2902,4.1294,4.0277,4.1205,4.4496,4.8551,5.2276,5.5448,5.868,6.0924,6.2211,6.278,6.3079,6.3079,6.3139,6.3139,6.3079,6.3139,6.3139,6.3049,6.245,6.2181,6.1942,6.0146,5.7812,5.494,5.0601,4.9583,4.9927,4.6292,4.4665,4.4067,4.2641,0.0,0.0,0.0,0.0,0.0,0.0,0.0,0.0,0.0,0.0,0.0,0.0,0.0,0.0,0.0,0.0,0.0,0.0,0.0,0.0,0.0,0.0,0.0,0.0,4.7544,5.0561,5.4374,5.4848,5.4442,5.3296,5.341,5.3583,5.3583,5.3583,5.3556,5.3504,5.3426,5.3112,5.2433,0.0,0.0,0.0,0.0,4.9348,4.8198,4.8172,4.812,4.7989,4.697,4.6395,4.6212,4.4095,4.3127,4.31,4.2176,4.2776,4.4406,4.3484,4.3462,4.3877,4.3675,4.3847,4.4137,4.3499,4.329,4.32,0.0,0.0,0.0,0.0,0.0,0.0,0.0,3.0955,3.1394,3.2402,3.5122,3.766,3.9576,4.2315,4.4395,4.5269,4.3016,4.105,3.9852,4.1055,4.3269,4.6591,5.1558,5.5269,5.7513,6.0296,6.2091,6.2899,6.3019,6.3079,6.3079,6.3588,6.3558,6.3109,6.3588,6.3558,6.3079,6.2929,6.257,6.2061,6.1672,5.9608,5.6466,5.4012,5.2546,5.1588,4.9717,4.9703,5.0122,4.7758,4.713,4.686,4.3898,0.0,0.0,0.0,0.0,0.0,0.0,0.0,0.0,0.0,0.0,0.0,0.0,0.0,0.0,0.0,0.0,0.0,0.0,0.0,0.0,4.8661,5.1599,5.4289,5.6336,5.7486,5.7897,5.7092,5.5709,5.4759,5.4759,5.4759,5.4576,5.4079,5.3635,5.2929,5.1831,5.1779,5.0995,4.9296,4.9662,4.9348,4.8198,4.8172,4.7728,4.6813,0.0,0.0,4.5036,4.4121,4.3886,4.4226,4.4364,4.4856,4.5508,4.5326,4.4669,4.3733,4.2718,4.2831,4.3469,4.3349,4.329,4.314,0.0,0.0,0.0,0.0,0.0,0.0,0.0,3.0687,3.1102,3.2217,3.4688,3.6775,3.7887,3.9903,4.1244,4.1331,4.0003,3.9533,4.0367,4.318,4.677,5.105,5.5029,5.8082,6.0057,6.1732,6.275,6.3079,6.3079,6.3079,6.3079,6.3378,6.3378,6.3079,6.3408,6.3378,6.3079,6.3079,6.2899,6.26,6.26,6.1403,5.9428,5.7782,5.6735,5.5927,5.4251,5.3892,5.3832,5.1528,5.0511,4.9793,4.713,4.4706,4.2402,0.0,0.0,0.0,0.0,0.0,0.0,0.0,0.0,0.0,0.0,0.0,0.0,0.0,0.0,4.2872,0.0,0.0,4.9959,5.2668,5.4737,5.6454,5.7879,5.8671,5.8453,5.6813,5.6283,5.5842,5.5165,5.5099,5.4863,5.4262,5.3949,5.3295,5.2119,5.1753,5.0943,4.9531,4.9479,4.9061,4.8198,4.8172,4.8232,4.8166,4.7073,4.6494,4.6381,4.4361,4.3572,4.3744,4.3928,4.4405,4.507,4.5252,4.4937,4.4197,4.2963,4.2831,4.329,4.329,4.329,4.317,0.0,0.0,0.0,0.0,0.0,0.0,0.0,0.0,3.0713,3.1812,3.4065,3.5659,3.6021,3.7316,3.7955,3.7461,3.751,3.8721,4.1422,4.5424,4.9942,5.497,5.7962,6.0326,6.2061,6.275,6.3079,6.3079,6.3079,6.3079,6.3079,6.3348,6.3318,6.3079,6.3348,6.3318,6.3079,6.3079,6.3079,6.3079,6.3079,6.275,6.2181,6.1074,6.0505,6.0027,5.8141,5.6765,5.5568,5.4072,5.2606,5.1139,4.9703,4.7967,4.5813,4.2521,4.1474,0.0,0.0,0.0,0.0,0.0,0.0,0.0,0.0,0.0,4.0527,3.9815,4.3531,4.7034,4.7672,5.0738,5.3975,5.6453,5.7016,5.7573,5.8924,5.9127,5.8032,5.5247,5.6221,5.6547,5.5075,5.4942,5.468,5.4079,5.3949,5.3426,5.238,5.2108,5.1365,5.0101,4.9818,4.9291,4.8521,4.8289,4.8678,4.9493,4.7711,4.7291,4.8053,4.5258,4.3959,4.387,4.3746,4.4097,4.4886,4.5004,4.5069,4.4953,4.3658,4.3301,4.3469,4.3349,4.329,4.32,0.0,0.0,0.0,0.0,0.0,0.0,0.0,0.0,0.0,3.1073,3.2522,3.35,3.3431,3.4209,3.4785,3.4889,3.6985,3.9409,4.2111,4.6544,5.0947,5.4999,5.886,6.1253,6.2091,6.275,6.3079,6.3079,6.3079,6.3079,6.3109,6.4276,6.4186,6.3139,6.4306,6.4156,6.3079,6.3079,6.3079,6.3079,6.3079,6.3019,6.2959,6.281,6.2032,6.0805,5.9398,5.6974,5.4491,5.485,5.3683,5.2157,5.2516,5.1678,4.9912,4.6578,0.0,4.1055,3.9499,3.8316,3.7894,3.9652,3.851,3.8082,0.0,0.0,4.4231,4.432,4.86,5.2178,5.1672,5.4273,5.7207,5.9313,5.8203,5.7542,5.8912,5.9127,5.793,5.4669,5.5954,5.6386,5.4472,5.4314,5.4079,5.353,5.2981,5.2406,5.1727,5.2711,5.2485,5.0783,5.1219,5.0922,4.9702,4.8726,4.8197,4.83,4.8055,4.7942,4.8009,4.7656,4.7327,4.7061,4.6857,4.6887,4.6931,4.6034,4.5859,4.5977,4.4325,4.3906,4.4137,4.3499,4.329,4.32,0.0,0.0,0.0,0.0,0.0,0.0,0.0,0.0,0.0,0.0,3.1603,3.2348,3.2674,3.2645,3.2646,3.2766,3.519,3.8332,4.2141,4.704,5.1768,5.6107,5.9398,6.1433,6.2091,6.275,6.3079,6.3079,6.3079,6.3079,6.3079,6.3647,6.3588,6.3109,6.3647,6.3588,6.3079,6.3079,6.3079,6.3079,6.3079,6.2839,6.2421,6.1642,6.0057,5.8171,5.7603,5.5508,0.0,0.0,5.1738,5.1169,5.1828,5.0631,4.8506,4.6352,4.4197,0.0,4.0752,3.9594,3.9276,0.0,4.1976,4.2765,4.5661,4.7165,4.775,4.7026,5.1171,5.4458,5.322,5.6194,5.9103,0.0,5.9757,5.965,6.0202,5.9947,5.8653,5.5682,5.548,5.5203,5.4289,5.3922,5.3933,5.441,5.3245,5.2539,5.2711,5.1896,5.1083,5.0306,4.9914,4.9783,4.9928,4.844,4.8356,4.9633,4.8218,4.7936,4.855,4.7403,4.6755,4.6534,4.6445,4.677,4.7266,4.6844,4.6753,4.6787,4.5674,4.5315,4.5304,4.3828,4.329,4.326,0.0,0.0,0.0,0.0,0.0,0.0,0.0,0.0,0.0,0.0,0.0,3.1152,3.1659,3.1421,3.1152,3.0972,3.3425,3.6656,4.0763,4.5933,5.093,5.5538,5.8471,6.0565,6.1792,6.248,6.2899,6.3079,6.3079,6.3079,6.3079,6.3258,6.3228,6.3079,6.3258,6.3228,6.3079,6.3079,6.3079,6.3049,6.2869,6.2301,6.1343,5.9668,5.7154,5.4551,5.473,5.2755,0.0,0.0,4.8312,4.8237,4.9254,4.8416,4.68,4.5633,4.4065,4.2406,4.1091,0.0,0.0,4.3199,4.4755,4.6425,4.8869,5.0174,5.0757,5.0255,5.3453,5.6079,5.4957,5.7419,5.9675,6.0031,6.0343,6.0327,5.9851,5.9675,5.8315,5.4833,5.4244,5.3806,5.2885,5.2851,5.326,5.4101,5.287,5.2368,5.3173,5.1755,5.096,5.1125,5.0347,5.0204,5.0851,4.9297,4.9336,5.097,4.9228,4.8798,4.9552,4.7758,4.6807,4.6474,4.6269,4.6638,4.7309,4.7309,4.7309,4.7249,4.6591,4.6279,4.607,4.4456,4.3708,4.3529,0.0,0.0,0.0,0.0,0.0,0.0,0.0,0.0,0.0,0.0,0.0,0.0,0.0,3.0193,3.0283,2.9711,3.2048,3.4711,3.7375,4.2521,4.7519,5.2157,5.5478,5.8441,6.1074,6.1792,6.245,6.3079,6.3079,6.3079,6.3079,6.3677,6.3647,6.3109,6.3707,6.3647,6.3079,6.3079,6.3079,6.3019,6.2391,6.1343,5.9877,5.7274,5.3832,5.0465,5.1139,0.0,0.0,4.4496,4.3658,4.298,4.4855,4.5873,0.0,4.5514,4.3342,4.0982,0.0,0.0,4.1696,4.4754,4.5545,4.6935,5.2044,5.2865,5.3,5.4731,5.6188,5.7322,5.7879,5.8109,5.8625,5.9913,5.959,5.8466,5.6631,5.7397,5.6131,5.0737,5.2045,5.2287,0.0,5.0707,5.1648,5.1711,5.1152,5.1337,5.2463,5.3065,5.3639,5.4161,5.4211,5.3917,5.3308,5.2162,5.1538,5.1505,5.1396,5.1306,5.1105,4.9761,4.885,4.8163,4.7535,4.7266,4.7309,4.7309,4.7309,4.7249,4.6591,4.6279,4.619,4.5514,4.4825,4.4197,0.0,0.0,0.0,0.0,0.0,0.0,0.0,0.0,0.0,0.0,0.0,0.0,0.0,0.0,0.0,0.0,3.0761,3.2826,3.5938,4.0666,4.4825,4.8147,5.2276,5.5329,5.7154,5.8231,5.9548,6.1104,6.0655,6.0655,6.1074,6.0864,6.0625,6.0475,6.1104,6.1283,6.1104,6.1104,6.0595,5.9697,5.862,5.7363,5.5837,5.2755,4.9404,4.601,0.0,0.0,0.0,4.0546,4.0098,4.0044,4.1564,0.0,4.0995,4.0786,4.0753,4.0884,4.1284,0.0,4.4462,4.7752,4.9438,5.1094,5.4445,5.5025,5.4745,5.4193,5.4958,5.5392,5.3919,5.516,5.6708,5.7887,5.799,5.843,5.9884,5.8196,5.6129,5.4304,5.2294,0.0,0.0,0.0,0.0,5.3312,5.2544,5.2689,5.4262,5.3811,5.336,5.3126,5.2755,5.2873,5.3413,5.1445,5.1019,5.2238,5.1345,5.0759,5.0495,4.9673,4.894,4.8237,4.7578,4.7309,4.7309,4.7309,4.7309,4.7279,4.707,4.698,4.689,4.6232,4.5843,4.5484,0.0,0.0,0.0,0.0,0.0,0.0,0.0,0.0,0.0,0.0,0.0,0.0,0.0,0.0,0.0,0.0,0.0,3.0941,3.3544,3.7165,4.0487,4.3359,4.701,4.9823,5.1618,5.2695,5.4102,5.5867,5.5688,5.6047,5.6915,5.6735,5.6765,5.7004,5.7693,5.7992,5.7992,5.7992,5.7214,5.5867,5.4311,5.2636,5.0661,4.7369,4.4466,0.0,0.0,0.0,3.7913,3.7225,3.7165,3.7494,3.8392,3.8542,3.8411,3.85,3.9778,4.1553,4.31,4.481,4.6912,5.0131,5.2091,5.3761,5.5925,5.5751,5.4741,5.3439,5.3152,5.2586,5.0843,5.1588,5.302,5.4736,5.491,5.5737,5.8234,5.6668,5.4928,5.4051,5.2268,5.0934,0.0,0.0,0.0,5.3528,5.2798,5.3148,5.5195,5.4145,5.3583,5.378,5.3485,5.354,5.4016,5.2497,5.2114,5.2797,5.1689,5.0803,5.0166,4.9583,4.894,4.8237,4.7578,4.7309,4.7309,4.7309,4.7309,4.7309,4.7309,4.7309,4.7249,4.683,4.6531,4.613,0.0,0.0,0.0,0.0,0.0,0.0,0.0,0.0,0.0,0.0,0.0,0.0,0.0,0.0,0.0,0.0,0.0,0.0,3.0313,3.2287,3.4801,3.7943,4.0038,4.2342,4.4945,4.5663,4.6711,4.8087,4.873,4.9613,5.087,5.1468,5.2067,5.2695,5.3384,5.3713,5.3713,5.3713,5.2935,5.1528,4.9629,4.7279,4.4646,4.1414,0.0,0.0,0.0,0.0,0.0,0.0,0.0,0.0,0.0,3.6854,3.843,3.8842,4.059,4.2897,4.5484,4.7277,4.9113,5.1884,5.3426,5.4695,5.6488,5.5028,5.3102,5.2658,5.0875,4.9198,0.0,0.0,4.8021,5.0681,5.0812,5.1002,5.247,5.3247,5.2873,0.0,0.0,0.0,0.0,0.0,0.0,5.2573,0.0,5.2848,5.5137,5.4285,5.444,5.6064,5.6166,5.5867,5.5209,5.5179,5.4491,5.3114,5.2546,5.1558,5.0226,4.9583,4.897,4.8297,4.7608,4.7309,4.7309,4.7309,4.7309,4.7309,4.7309,4.7309,4.7309,4.7309,4.692,4.6249,0.0,0.0,0.0,0.0,0.0,0.0,0.0,0.0,0.0,0.0,0.0,0.0,0.0,0.0,0.0,0.0,0.0,0.0,2.9026,3.0913,3.2587,3.3963,3.6417,3.8721,4.0876,4.1564,4.303,4.5334,4.5005,4.5274,4.6052,4.5783,4.5723,4.5873,4.6531,4.683,4.683,4.683,4.6082,4.4777,0.0,4.1953,4.0666,0.0,0.0,0.0,0.0,0.0,0.0,0.0,0.0,0.0,0.0,3.7077,3.8195,4.0519,4.2664,4.4942,4.7728,5.0241,5.2354,5.3478,5.4314,5.4747,5.4404,5.2844,5.0988,4.9338,4.7452,4.5727,0.0,0.0,0.0,4.9852,5.0678,0.0,5.672,5.6298,0.0,5.5952,0.0,5.4205,5.4346,5.4579,0.0,0.0,5.4764,5.4472,5.4554,5.605,5.6265,5.4831,5.5723,5.5867,5.5209,5.5179,5.4281,5.2456,5.2785,5.2247,5.093,4.9793,4.9209,4.9,4.7818,4.7309,4.7309,4.7309,4.7309,4.7309,4.7309,4.7309,4.7309,4.7309,4.7189,4.704,0.0,0.0,0.0,0.0,0.0,0.0,0.0,0.0,0.0,0.0,0.0,0.0,0.0,0.0,0.0,0.0,0.0,0.0,0.0,2.9175,3.0103,3.0761,3.2228,3.3814,3.5459,3.5609,3.6806,3.914,3.8715,3.9194,4.0457,4.0397,4.0487,4.0719,4.1414,4.1713,4.1713,4.1713,0.0,0.0,0.0,0.0,0.0,0.0,0.0,0.0,0.0,0.0,0.0,0.0,0.0,3.7365,3.836,3.941,4.0736,4.3307,0.0,4.7509,5.0073,5.2233,5.3896,5.4445,5.4471,5.4053,5.2728,5.0895,4.8611,4.5804,4.4268,0.0,0.0,0.0,0.0,0.0,0.0,0.0,5.465,5.5619,5.5996,0.0,5.6728,0.0,5.6255,5.6745,5.7078,0.0,5.6241,5.5838,5.5971,5.7075,5.7016,5.556,5.6541,5.6705,5.6047,5.5478,5.461,5.3503,5.3294,5.2636,5.1588,5.0002,4.9299,4.9239,0.0,4.7309,4.7309,4.7309,4.7309,4.7309,4.7309,4.7309,4.7309,4.7309,4.7309,4.7309,0.0,0.0,0.0,0.0,0.0,0.0,0.0,0.0,0.0,0.0,0.0,0.0,0.0,0.0,0.0,0.0,0.0,0.0,0.0,0.0,0.0,2.8457,2.8637,2.9205,3.0223,2.9894,3.0552,3.2258,3.2318,3.3245,3.4981,3.5549,0.0,0.0,0.0,0.0,0.0,0.0,0.0,0.0,0.0,0.0,0.0,0.0,0.0,0.0,0.0,0.0,0.0,0.0,3.8349,3.9195,4.0924,4.2664,4.4491,4.6625,4.8468,5.0217,5.2177,5.3556,5.4524,5.4994,5.4131,5.2791,5.1302,4.8881,4.6,4.2528,0.0,4.0331,3.8231,3.7882,3.8989,4.2163,0.0,4.6036,5.0401,5.375,5.5567,5.5166,5.8106,5.9379,5.7186,5.8537,5.9219,5.856,5.7551,5.7214,5.7845,5.7618,5.7412,5.7221,5.7723,5.7663,5.6974,5.5867,5.5179,5.491,5.3743,5.2785,5.2007,5.0168,4.9299,4.9239,4.7878,0.0,4.7309,4.7309,4.7309,4.7309,4.7309,4.7309,4.7309,4.7309,4.7309,4.7309,0.0,0.0,0.0,0.0,0.0,0.0,0.0,0.0,0.0,0.0,2.853,2.7585,0.0,0.0,0.0,0.0,0.0,0.0,0.0,0.0,0.0,0.0,2.8843,2.9265,2.8936,0.0,0.0,0.0,0.0,0.0,3.2198,3.2318,0.0,0.0,0.0,0.0,0.0,0.0,0.0,0.0,0.0,0.0,0.0,0.0,0.0,0.0,0.0,0.0,0.0,0.0,3.9369,4.1023,4.3024,4.4752,4.6579,4.9272,5.1005,5.2229,5.3569,5.4733,5.5517,5.5177,5.3504,5.153,5.0046,4.6384,0.0,0.0,0.0,3.7659,3.6912,3.7843,0.0,4.2247,0.0,0.0,0.0,0.0,5.7563,0.0,0.0,0.0,0.0,0.0,0.0,0.0,0.0,5.924,5.6735,5.7976,5.8494,5.7962,5.7513,5.6974,5.6346,5.6158,5.5179,5.3533,5.3294,5.2546,5.1349,4.9912,4.9299,4.9239,4.7878,0.0,4.7309,4.7309,4.7309,4.7309,4.7309,4.7309,4.7309,4.7309,4.7309,4.7309,0.0,0.0,0.0,0.0,0.0,0.0,0.0,3.0141,3.0228,3.1301,3.0394,2.9505,2.9146,2.8543,2.8098,0.0,0.0,0.0,0.0,0.0,0.0,0.0,0.0,0.0,0.0,0.0,0.0,0.0,0.0,0.0,0.0,0.0,0.0,0.0,0.0,0.0,0.0,0.0,0.0,0.0,0.0,0.0,0.0,0.0,0.0,0.0,0.0,0.0,0.0,0.0,3.9438,4.1542,4.4111,4.6705,4.9113,5.11,5.2276,5.3217,5.4367,5.5072,5.536,5.4785,5.2433,4.9785,4.7785,0.0,0.0,0.0,0.0,3.6625,3.6081,0.0,0.0,0.0,0.0,0.0,0.0,0.0,0.0,0.0,0.0,0.0,0.0,0.0,0.0,0.0,0.0,5.9926,5.8394,5.8446,5.859,5.865,5.7334,5.6974,5.7693,5.6346,5.5508,5.5209,5.3832,5.2845,5.2187,5.0511,4.9763,4.9733,4.8745,0.0,4.8297,4.7967,4.7818,4.7788,4.7429,4.7309,4.7309,4.7309,4.7309,4.7309,0.0,0.0,0.0,0.0,0.0,0.0,0.0,3.1378,3.1715,3.2928,3.2287,3.1563,3.118,2.9864,2.8966,0.0,0.0,0.0,0.0,0.0,0.0,0.0,0.0,0.0,0.0,0.0,0.0,0.0,0.0,0.0,0.0,0.0,0.0,0.0,0.0,0.0,0.0,0.0,0.0,0.0,0.0,0.0,0.0,0.0,0.0,0.0,0.0,0.0,0.0,0.0,3.9013,4.1213,4.3656,4.7122,5.0507,5.1846,5.2821,5.3792,5.4811,5.5177,5.5072,5.4236,5.1361,4.8109,4.5747,4.2306,0.0,0.0,3.6387,3.6118,3.5609,0.0,0.0,0.0,0.0,0.0,0.0,0.0,0.0,0.0,0.0,0.0,0.0,0.0,0.0,0.0,0.0,0.0,5.9877,5.889,5.856,5.9099,5.7483,5.7244,5.865,5.6496,5.5688,5.6226,5.4162,5.3025,5.2695,5.102,5.0196,5.0166,4.9553,0.0,0.0,4.8716,4.8416,4.8237,4.7728,4.7429,4.7309,4.7309,4.7309,4.7309,0.0,0.0,0.0,0.0,0.0,0.0,0.0,3.2305,3.2777,3.4719,3.3457,3.2616,3.3156,3.148,3.0103,0.0,0.0,0.0,0.0,0.0,0.0,0.0,0.0,0.0,0.0,0.0,0.0,0.0,0.0,0.0,0.0,0.0,0.0,0.0,0.0,0.0,0.0,0.0,0.0,0.0,0.0,0.0,0.0,0.0,0.0,0.0,0.0,0.0,0.0,0.0,0.0,3.9763,4.038,4.4235,4.8819,5.0756,0.0,0.0,5.4916,5.5465,5.5465,5.387,5.0472,4.6945,4.5034,0.0,0.0,3.667,3.5998,3.5579,3.5519,3.6111,0.0,0.0,0.0,0.0,0.0,0.0,0.0,0.0,0.0,0.0,0.0,0.0,0.0,0.0,0.0,0.0,5.9249,5.9069,5.9039,5.9099,5.8351,5.7723,5.7274,5.6466,5.5239,5.3533,5.3294,5.2546,5.1379,5.0554,5.0196,5.0166,4.9553,0.0,0.0,4.9239,4.888,4.8267,4.8207,4.7848,4.7309,4.7309,4.7309,4.7309,0.0,0.0,0.0,0.0,0.0,0.0,3.3038,3.2949,3.3528,3.6057,3.5486,3.4763,3.4637,3.3572,3.212,3.0308,0.0,0.0,0.0,0.0,0.0,0.0,0.0,0.0,0.0,0.0,0.0,0.0,0.0,0.0,0.0,0.0,0.0,0.0,0.0,0.0,0.0,0.0,0.0,0.0,0.0,0.0,0.0,0.0,0.0,0.0,0.0,0.0,0.0,0.0,0.0,0.0,3.78,4.0139,0.0,0.0,4.9737,5.1544,5.353,5.4733,5.502,5.3295,5.0213,4.6839,4.4035,0.0,0.0,3.6149,3.5699,3.5519,3.5519,3.6058,3.679,0.0,0.0,0.0,0.0,0.0,0.0,0.0,0.0,0.0,0.0,0.0,0.0,0.0,0.0,0.0,5.9757,5.9308,5.8919,5.853,5.7872,5.7363,5.7094,5.6077,5.5388,5.502,5.3743,5.2905,5.2366,5.1319,5.0794,5.0764,5.0571,0.0,0.0,5.0002,4.9464,4.888,4.8446,4.7878,4.7309,4.7309,4.7309,4.7309,0.0,0.0,0.0,0.0,0.0,3.1272,3.3458,3.343,3.4063,3.6567,3.6206,3.5634,3.5416,3.4261,3.2962,3.1492,3.1446,0.0,0.0,0.0,0.0,0.0,0.0,0.0,0.0,0.0,0.0,3.1511,0.0,0.0,0.0,0.0,0.0,0.0,0.0,0.0,0.0,0.0,0.0,0.0,0.0,0.0,0.0,0.0,0.0,0.0,0.0,0.0,0.0,0.0,0.0,0.0,0.0,0.0,0.0,0.0,4.6974,4.9021,5.1979,5.3515,5.3922,5.2171,4.9611,4.6648,0.0,0.0,3.7521,3.5863,3.5519,3.5519,3.5519,3.5878,3.6477,0.0,0.0,3.8882,0.0,0.0,0.0,0.0,0.0,0.0,0.0,0.0,0.0,0.0,0.0,0.0,6.0116,5.9279,5.859,5.8141,5.7453,5.7004,5.6825,5.5538,5.5029,5.5319,5.3653,5.2785,5.2576,5.1648,5.1229,5.1229,5.1229,0.0,0.0,5.0465,4.9853,4.9239,4.8536,4.7878,4.7309,4.7309,4.7309,4.7352,0.0,0.0,0.0,0.0,0.0,0.0,3.3458,3.3789,3.4338,3.5914,3.508,3.4564,3.5233,3.3043,3.2069,3.3365,3.2275,0.0,0.0,0.0,0.0,0.0,0.0,0.0,0.0,0.0,3.1481,3.1511,3.2138,3.2497,0.0,0.0,0.0,0.0,0.0,0.0,0.0,0.0,0.0,0.0,0.0,0.0,0.0,0.0,0.0,0.0,0.0,0.0,0.0,0.0,0.0,0.0,0.0,0.0,0.0,0.0,4.4948,4.743,5.0497,5.1918,5.2093,5.0368,4.8448,4.5969,0.0,0.0,3.7521,3.5863,3.5519,3.5519,3.5519,3.5519,3.5938,3.7195,0.0,0.0,0.0,0.0,0.0,0.0,0.0,0.0,0.0,0.0,0.0,0.0,0.0,0.0,6.0086,5.886,5.8141,5.8112,5.7453,5.6795,5.6248,5.488,5.3892,5.3204,5.2546,5.1858,5.1229,5.1229,5.1229,0.0,0.0,0.0,0.0,5.0465,4.9853,4.9239,4.8536,4.7878,4.7309,4.7309,4.7309,4.7352,0.0,0.0,0.0,0.0,0.0,0.0,0.0,3.2729,3.3611,3.5103,3.5381,3.5551,3.5808,3.4396,3.3432,3.3455,3.2246,0.0,0.0,0.0,0.0,0.0,0.0,0.0,0.0,0.0,3.2168,3.2168,3.2856,3.3185,3.3185,3.3395,3.3395,0.0,0.0,0.0,0.0,0.0,0.0,0.0,0.0,0.0,0.0,0.0,0.0,0.0,0.0,0.0,0.0,0.0,0.0,0.0,0.0,0.0,0.0,3.8509,0.0,0.0,4.6103,4.8109,4.9034,4.6781,4.5686,4.4237,4.0802,0.0,3.7747,3.5872,3.5519,3.5519,3.5519,3.5519,3.6237,3.8422,0.0,0.0,0.0,0.0,0.0,0.0,0.0,0.0,0.0,0.0,0.0,0.0,0.0,0.0,5.9428,5.859,5.7902,5.7423,5.6376,5.5688,5.5508,5.4162,5.3623,5.3862,5.2725,5.2097,5.1887,5.1439,5.1229,0.0,0.0,0.0,0.0,5.0465,4.9853,4.9239,4.8536,4.7878,4.7309,4.7309,4.7309,4.7352,0.0,0.0,0.0,0.0,0.0,0.0,0.0,3.2,3.2796,3.4286,3.4715,3.5144,3.5974,3.4771,3.3864,3.3761,3.2558,0.0,0.0,0.0,0.0,0.0,0.0,0.0,0.0,3.2256,3.2556,3.2556,3.3756,3.4237,3.3966,3.457,3.451,3.3936,3.3516,0.0,0.0,0.0,0.0,0.0,0.0,0.0,3.5519,0.0,0.0,0.0,0.0,0.0,0.0,0.0,0.0,0.0,0.0,0.0,0.0,0.0,3.8581,4.0785,0.0,4.4885,4.6084,4.429,4.3719,4.284,3.9952,3.8642,3.7554,3.5848,3.5519,3.5519,3.5519,3.5519,3.6207,3.8302,0.0,0.0,0.0,0.0,0.0,0.0,0.0,0.0,0.0,0.0,0.0,0.0,0.0,0.0,5.877,5.8112,5.7423,5.6765,5.5987,5.5329,5.482,5.3743,5.3264,5.3443,5.2336,5.1828,5.1828,5.1409,5.1229,0.0,0.0,0.0,0.0,5.0242,4.9643,4.9209,4.8267,4.7668,4.7309,4.7396,4.7396,4.7396,0.0,0.0,0.0,0.0,0.0,0.0,0.0,3.1615,3.2144,3.3524,3.3368,3.386,3.5728,3.4323,3.352,3.4184,0.0,0.0,0.0,0.0,0.0,0.0,0.0,0.0,3.1799,3.2462,3.2764,3.2764,3.4845,3.5508,3.4905,3.6364,3.6273,3.4875,3.4783,3.4422,3.391,3.4698,3.4847,3.4655,3.5415,3.5653,0.0,0.0,0.0,0.0,0.0,0.0,0.0,0.0,0.0,0.0,0.0,0.0,0.0,0.0,0.0,0.0,0.0,4.2175,0.0,0.0,4.2247,4.1513,3.9188,3.7951,0.0,3.5759,3.5519,3.5519,3.5639,3.5609,3.6058,3.7464,0.0,0.0,0.0,0.0,0.0,0.0,0.0,0.0,0.0,0.0,0.0,0.0,0.0,0.0,5.8082,5.7393,5.6735,5.6098,5.6047,5.5448,5.4221,5.3473,5.2815,5.2187,5.1528,5.1229,5.1229,5.1229,5.1229,0.0,0.0,0.0,0.0,4.9763,4.9269,4.9179,4.7818,4.7309,4.7352,4.7538,4.7495,4.7439,0.0,0.0,0.0,0.0,0.0,0.0,0.0,0.0,0.0,0.0,3.3829,3.4607,3.5114,3.4423,3.3777,0.0,0.0,0.0,0.0,0.0,0.0,0.0,0.0,0.0,3.1799,3.2884,3.3487,3.3547,3.5508,3.6479,3.6487,3.7339,3.7279,3.6427,3.5814,3.5083,3.4356,3.4942,3.5245,3.5445,3.5787,3.5814,0.0,0.0,0.0,0.0,3.5519,3.5519,0.0,0.0,0.0,0.0,0.0,0.0,0.0,0.0,3.5848,3.6081,3.6734,0.0,3.9375,3.826,3.8296,3.8328,0.0,3.6845,3.6477,3.5669,3.5519,3.5818,3.6776,3.6567,3.7165,0.0,0.0,0.0,0.0,0.0,0.0,0.0,0.0,0.0,0.0,0.0,0.0,0.0,0.0,5.8052,5.7363,5.6735,5.5867,5.47,5.467,5.4521,5.4221,5.3025,5.2366,5.2187,5.1528,5.1229,5.1229,5.1229,5.1229,0.0,0.0,0.0,5.1079,4.9254,4.885,4.9179,4.7992,4.7538,4.7538,4.7794,4.788,4.788,0.0,0.0,0.0,0.0,0.0,0.0,0.0,0.0,0.0,0.0,0.0,0.0,0.0,0.0,0.0,0.0,0.0,0.0,0.0,0.0,0.0,0.0,0.0,3.2604,3.2907,3.3879,3.4425,3.4455,3.6125,3.6977,3.7105,3.7569,3.7539,3.7044,3.6309,3.5696,3.5207,3.5614,3.5827,3.5847,3.5973,0.0,0.0,0.0,0.0,0.0,3.5519,3.5519,0.0,3.5519,3.5519,3.5519,0.0,0.0,0.0,0.0,3.5519,3.5519,3.5519,3.6686,3.7764,3.7075,3.7165,3.7315,3.6985,3.6447,0.0,0.0,0.0,0.0,0.0,0.0,0.0,0.0,0.0,0.0,0.0,0.0,0.0,0.0,0.0,0.0,0.0,0.0,0.0,0.0,0.0,5.7812,5.7124,5.6496,5.5568,5.4251,5.4221,5.3922,5.3294,5.2576,5.2067,5.1738,5.1379,5.1229,5.1229,5.1229,5.1003,0.0,0.0,0.0,5.0212,4.8865,4.8595,4.8893,4.7959,4.7666,4.7794,4.8049,4.8091,4.8049,0.0,0.0,0.0,0.0,0.0,0.0,0.0,0.0,0.0,0.0,0.0,0.0,0.0,0.0,0.0,0.0,0.0,0.0,0.0,0.0,0.0,0.0,0.0,3.3505,3.4178,3.485,3.5187,3.5187,3.6746,3.751,3.7543,3.795,3.7856,3.7327,3.6686,3.6255,3.6037,3.6352,3.632,3.6037,3.6005,0.0,0.0,0.0,0.0,0.0,0.0,0.0,0.0,3.5519,3.5519,3.5519,3.5519,0.0,0.0,0.0,0.0,0.0,3.5639,3.6596,3.7494,3.7195,3.7195,3.7255,3.7135,0.0,0.0,0.0,0.0,0.0,0.0,3.6417,0.0,0.0,0.0,0.0,0.0,0.0,0.0,0.0,0.0,0.0,0.0,0.0,0.0,0.0,0.0,5.7573,5.6974,5.6256,5.5329,5.4102,5.3952,5.3294,5.2067,5.2157,5.1858,5.1229,5.1229,5.1229,5.1229,5.1063,5.0734,5.0196,0.0,0.0,4.9239,4.8446,4.8309,4.8558,4.7938,4.7794,4.8049,4.826,4.826,4.8133,0.0,0.0,0.0,0.0,0.0,0.0,0.0,0.0,0.0,0.0,0.0,0.0,0.0,0.0,0.0,0.0,0.0,0.0,0.0,0.0,0.0,3.4232,3.3563,3.3505,3.4178,3.485,3.5187,3.5187,3.7757,3.9048,3.9149,4.0382,3.9944,3.8124,3.7549,3.684,3.6037,3.6352,3.6383,3.6133,3.6068,0.0,0.0,0.0,0.0,0.0,0.0,0.0,0.0,3.5519,3.5519,3.5519,3.5519,0.0,0.0,0.0,0.0,0.0,3.6178,3.7255,3.7853,3.6207,3.6207,3.6477,3.5938,0.0,0.0,0.0,0.0,0.0,0.0,0.0,0.0,0.0,0.0,0.0,0.0,0.0,0.0,0.0,0.0,0.0,0.0,0.0,0.0,0.0,0.0,5.6436,5.6316,5.5149,5.4162,5.3354,5.2785,5.2157,5.1379,5.1917,5.1858,5.1229,5.1229,5.1229,5.1199,5.0584,5.0285,5.0136,0.0,4.8835,4.9209,4.7967,4.7919,4.8558,4.8109,4.8049,4.8301,4.848,4.8521,4.8521,0.0,0.0,0.0,0.0,0.0,0.0,0.0,0.0,0.0,0.0,0.0,0.0,0.0,0.0,0.0,0.0,0.0,0.0,0.0,0.0,3.3891,3.4998,3.4662,3.4755,3.5431,3.6444,3.6965,3.6965,3.9392,4.0593,4.0632,4.0539,3.9551,3.7856,3.7214,3.6721,3.6289,3.6414,3.6445,3.6352,0.0,0.0,0.0,0.0,0.0,0.0,0.0,0.0,0.0,0.0,3.5519,3.5519,3.5519,0.0,0.0,0.0,0.0,0.0,3.5878,3.6656,3.7135,3.6267,3.6776,3.7255,3.6267,0.0,0.0,0.0,0.0,0.0,0.0,0.0,0.0,0.0,0.0,0.0,0.0,0.0,0.0,0.0,0.0,0.0,0.0,0.0,0.0,0.0,0.0,0.0,5.5658,5.473,5.3743,5.2695,5.2366,5.1887,5.1229,5.1528,5.1498,5.1229,5.1229,5.1229,5.1199,5.0495,4.9986,4.9673,0.0,4.8267,4.8147,4.7549,4.7705,4.8261,4.8086,4.8175,4.8438,4.8593,4.8604,4.8604,0.0,0.0,0.0,0.0,0.0,0.0,0.0,0.0,0.0,0.0,0.0,0.0,0.0,0.0,0.0,0.0,0.0,0.0,0.0,0.0,3.4352,3.546,3.5675,3.6045,3.6722,3.7892,3.8662,3.897,4.1063,4.2048,4.2017,4.0478,3.9031,3.7707,3.703,3.663,3.6507,3.6507,3.6507,3.6476,0.0,0.0,0.0,0.0,0.0,0.0,0.0,0.0,0.0,0.0,0.0,0.0,0.0,0.0,0.0,3.5519,3.5519,3.5549,3.5699,3.6207,3.6656,3.6537,3.7225,3.7793,3.7285,3.6656,0.0,0.0,0.0,0.0,0.0,0.0,0.0,0.0,0.0,0.0,0.0,0.0,0.0,0.0,0.0,0.0,0.0,0.0,0.0,0.0,0.0,0.0,5.476,5.4251,5.3414,5.2247,5.2067,5.1738,5.1229,5.1033,5.1033,5.1229,5.1229,5.1229,5.1199,5.0391,4.9733,4.9269,4.8416,4.7758,4.7309,4.7352,4.7624,4.8007,4.8049,4.8301,4.8604,4.8604,4.8604,4.8604,0.0,0.0,0.0,0.0,0.0,0.0,0.0,0.0,0.0,0.0,0.0,0.0,0.0,0.0,0.0,0.0,0.0,0.0,0.0,0.0,3.5368,3.5521,3.6076,3.6722,3.74,3.8138,3.9123,4.0351,4.2417,4.347,4.3408,4.1401,3.9705,3.8415,3.7738,3.7092,3.6507,3.6507,3.6507,3.6476,3.6289,0.0,0.0,0.0,0.0,0.0,0.0,0.0,0.0,0.0,0.0,0.0,0.0,0.0,3.5519,3.5519,3.5519,3.5639,3.6237,3.6866,3.7195,3.6626,3.6567,3.7075,3.8811,3.8661,0.0,4.0696,0.0,0.0,0.0,0.0,0.0,0.0,0.0,0.0,0.0,0.0,0.0,0.0,0.0,0.0,0.0,0.0,0.0,0.0,0.0,0.0,5.3384,5.3294,5.2935,5.2217,5.1618,5.1259,5.1229,5.0554,5.0554,5.1229,5.1229,5.1229,5.1169,4.9912,4.9359,4.9239,4.7938,4.7339,4.7309,4.7495,4.7752,4.8007,4.8218,4.8396,4.8604,4.8604,4.8604,4.8604,0.0,0.0,0.0,0.0,0.0,0.0,0.0,0.0,0.0,0.0,0.0,0.0,0.0,0.0,0.0,0.0,0.0,0.0,0.0,3.4597,3.5275,3.6076,3.6353,3.6815,3.7492,3.9431,4.1093,4.2417,4.3618,4.3809,4.291,4.0847,3.9367,3.8446,3.7369,3.6722,3.6507,3.6507,3.6507,3.6476,3.6414,3.6414,0.0,0.0,0.0,0.0,0.0,0.0,0.0,0.0,3.5621,3.5621,3.5522,3.5519,3.5519,3.5519,3.5519,3.5549,3.5818,3.6357,3.6866,3.7015,3.7075,3.7464,3.905,3.9529,4.0307,4.2701,4.3539,0.0,0.0,0.0,0.0,0.0,0.0,0.0,0.0,0.0,0.0,0.0,0.0,0.0,0.0,0.0,0.0,0.0,0.0,0.0,5.2606,5.2576,5.2067,5.102,5.0704,5.0421,5.0002,4.9763,4.9763,5.0002,5.0002,5.0421,5.1169,4.9434,4.894,4.9239,4.7878,4.7396,4.7495,4.7581,4.7837,4.8218,4.8427,4.8521,4.8604,4.8604,4.8604,4.8604,0.0,0.0,0.0,0.0,0.0,0.0,0.0,0.0,0.0,0.0,0.0,0.0,0.0,0.0,0.0,0.0,0.0,0.0,3.4443,3.4905,3.5552,3.6445,3.6507,3.6907,3.78,4.0078,4.1925,4.3248,4.3963,4.3587,4.2263,4.0385,3.9154,3.8477,3.7554,3.6999,3.6815,3.6815,3.6692,3.6507,3.6507,3.6507,0.0,0.0,0.0,0.0,0.0,0.0,0.0,0.0,3.5752,3.5752,3.5554,3.5554,3.5619,3.5522,3.5522,3.5554,3.5489,3.5818,3.6327,3.6956,3.7584,3.8542,4.0516,4.1175,4.2192,4.5244,4.5903,0.0,0.0,0.0,0.0,0.0,0.0,0.0,0.0,0.0,0.0,0.0,0.0,0.0,0.0,0.0,0.0,0.0,0.0,0.0,0.0,5.1887,5.1379,5.0226,4.9986,4.9733,4.9299,4.912,4.912,4.9299,4.888,4.9344,5.0541,4.8985,4.8536,4.894,4.7788,4.7439,4.7624,4.7666,4.8007,4.8427,4.8521,4.8604,4.8604,4.8604,4.8604,4.8604,0.0,0.0,0.0,0.0,0.0,0.0,0.0,0.0,0.0,0.0,0.0,0.0,0.0,0.0,0.0,0.0,0.0,0.0,3.4505,3.5737,3.6476,3.6507,3.6507,3.7123,3.8446,3.9767,4.1151,4.2602,4.3248,4.2915,4.1555,4.017,3.9154,3.8508,3.8508,3.8138,3.7492,3.7492,3.7123,3.6507,3.6507,3.6507,3.6507,0.0,0.0,0.0,0.0,0.0,0.0,0.0,3.5816,3.5941,3.5587,3.5748,3.5941,3.5587,3.5589,3.5686,3.5522,3.5519,3.5669,3.6327,0.0,0.0,4.3569,4.3838,4.4526,4.852,4.8237,4.713,4.6429,0.0,0.0,0.0,0.0,0.0,0.0,0.0,0.0,0.0,0.0,0.0,0.0,0.0,0.0,0.0,0.0,0.0,0.0,5.1199,5.0853,5.0196,4.9583,4.9299,4.9299,4.8596,4.8596,4.9269,4.7938,4.7997,4.9299,4.8566,4.8267,4.8237,4.7578,4.7439,4.7624,4.788,4.826,4.8604,4.8604,4.8604,4.8604,4.8604,4.8604,4.8604,0.0,0.0,0.0,0.0,0.0,0.0,0.0,0.0,0.0,0.0,0.0,0.0,0.0,0.0,0.0,0.0,0.0,0.0,3.5183,3.5583,3.5984,3.6476,3.6507,3.6692,3.7092,3.8415,4.0016,4.1894,4.3033,4.2386,4.0139,3.9708,3.9367,3.9216,3.9216,3.8569,3.7492,3.7492,3.74,3.7153,3.6692,3.7061,3.78,0.0,0.0,0.0,0.0,0.0,0.0,0.0,0.0,0.0,3.591,3.6243,3.6548,3.5838,3.5987,3.6258,3.5642,3.5848,3.6447,3.7554,0.0,0.0,0.0,4.5244,0.0,0.0,4.8895,4.8087,4.8356,0.0,0.0,0.0,0.0,0.0,0.0,0.0,0.0,0.0,0.0,0.0,0.0,0.0,0.0,0.0,0.0,0.0,0.0,5.0092,4.9553,4.8895,4.8686,4.8356,4.7908,4.7698,4.7698,4.7878,4.7489,4.7997,4.9269,4.8117,4.7848,4.8237,4.7752,4.7624,4.7922,4.8301,4.848,4.8604,4.8604,4.8604,4.8604,4.8604,4.8604,4.8604,0.0,0.0,0.0,0.0,0.0,0.0,0.0,0.0,0.0,0.0,3.24,3.2271,0.0,0.0,0.0,0.0,0.0,0.0,0.0,3.5737,3.6076,3.6476,3.6507,3.663,3.6876,3.8477,3.9524,3.9985,4.1309,4.1001,3.909,3.9955,4.0047,3.9521,4.0351,3.9831,3.8292,3.8292,3.8138,3.7861,3.7461,3.7769,3.8385,0.0,0.0,0.0,0.0,0.0,0.0,0.0,0.0,0.0,3.6068,3.631,3.6554,3.5905,3.5991,3.6167,3.5674,3.5998,0.0,3.8422,4.0008,4.2102,4.5663,0.0,0.0,0.0,0.0,4.9194,4.9583,0.0,0.0,0.0,0.0,0.0,0.0,0.0,0.0,0.0,0.0,0.0,0.0,0.0,0.0,0.0,0.0,0.0,0.0,4.9224,4.873,4.8297,4.8027,4.7698,4.7309,4.7309,4.7309,4.7309,4.7309,4.7728,4.8446,4.7668,4.7562,4.8053,4.7933,4.7964,4.8133,4.8469,4.8604,4.8604,4.8604,4.8604,4.8604,4.8604,4.8604,4.8604,0.0,0.0,0.0,0.0,0.0,0.0,0.0,0.0,0.0,0.0,3.2437,3.2413,0.0,0.0,0.0,0.0,0.0,0.0,0.0,0.0,3.6507,3.6507,3.6569,3.6876,3.7492,3.9308,3.9275,3.74,3.8816,3.9152,3.8539,4.057,4.0816,3.9674,4.1709,4.1463,3.949,3.949,3.9154,3.86,3.8539,3.8569,3.86,3.78,0.0,0.0,0.0,0.0,0.0,0.0,0.0,0.0,3.6223,3.6223,3.6256,3.5878,3.5782,3.5778,3.5644,3.6088,3.7045,3.908,4.1205,0.0,4.7459,4.9703,5.105,5.1109,0.0,5.0285,0.0,0.0,0.0,0.0,0.0,0.0,0.0,0.0,0.0,0.0,0.0,0.0,0.0,0.0,0.0,0.0,0.0,0.0,0.0,4.8566,4.8207,4.8207,4.7608,4.7309,4.7309,4.7309,4.7309,4.7309,4.7309,4.7309,4.7309,4.7309,4.7439,4.7666,4.8133,4.8301,4.8313,4.8521,4.8604,4.8604,4.8604,4.8604,4.8604,4.8604,4.8604,4.8604,0.0,0.0,0.0,0.0,0.0,0.0,0.0,0.0,0.0,0.0,0.0,0.0,0.0,0.0,0.0,0.0,0.0,0.0,0.0,0.0,3.6507,3.6507,3.6999,3.7338,3.7492,3.7923,3.7677,3.6722,3.86,3.9152,3.8539,4.0013,4.0566,4.0351,4.1925,4.1463,3.949,3.949,3.9431,3.9247,3.8723,3.9154,3.9859,3.8169,3.7831,0.0,0.0,0.0,0.0,0.0,0.0,0.0,3.7181,3.7181,3.7058,3.6285,3.6402,3.6698,3.6469,3.6817,0.0,0.0,4.3629,4.6591,4.7967,4.9015,4.9823,5.0331,0.0,0.0,0.0,0.0,0.0,0.0,0.0,0.0,0.0,0.0,0.0,0.0,0.0,0.0,0.0,0.0,0.0,0.0,0.0,0.0,4.8506,4.7878,4.7519,4.7519,4.7369,4.7309,4.7309,4.7309,4.7309,0.0,4.7309,4.7309,4.7309,4.7309,4.7495,4.7922,4.8175,4.8385,4.8521,4.8563,4.8604,4.8604,4.8604,4.8604,4.8604,4.8604,4.8604,4.8604,0.0,0.0,0.0,0.0,0.0,0.0,0.0,0.0,0.0,0.0,0.0,0.0,0.0,0.0,0.0,0.0,0.0,0.0,0.0,0.0,3.6507,3.6507,3.7123,3.7338,3.703,3.7338,3.7338,3.6969,3.8046,3.8539,3.8539,4.057,4.112,4.0566,4.2325,4.1925,3.9982,3.9982,3.9982,3.9951,3.9582,3.9859,4.032,3.8631,3.82,3.8385,3.7369,0.0,0.0,0.0,0.0,0.0,0.0,0.0,3.6812,3.6349,3.6376,3.6489,3.6295,0.0,0.0,4.1504,0.0,4.7489,4.8147,4.885,4.9419,0.0,0.0,0.0,0.0,0.0,0.0,0.0,0.0,0.0,0.0,0.0,0.0,0.0,0.0,0.0,0.0,0.0,0.0,0.0,0.0,4.7818,4.7818,4.7489,4.7309,4.7309,4.7309,4.7309,4.7309,4.7309,4.7309,4.7309,4.7309,4.7309,4.7309,4.7495,4.7752,4.8007,4.8343,4.848,4.8604,4.8604,4.8604,4.8604,4.8604,4.8604,4.8604,4.8604,4.8604,4.8604,0.0,0.0,0.0,0.0,0.0,0.0,0.0,0.0,0.0,0.0,0.0,0.0,0.0,0.0,0.0,0.0,0.0,0.0,0.0,0.0,0.0,3.6661,3.7184,3.7246,3.6661,3.7338,3.7615,3.7492,3.7738,3.8262,3.9093,4.137,4.1832,4.0751,4.2602,4.2325,4.0505,4.0505,4.0505,4.0474,4.0351,4.032,4.0166,3.8846,3.8415,3.8354,3.7123,3.6815,3.6999,3.6999,0.0,0.0,0.0,0.0,3.638,3.6288,3.6163,3.6005,3.5967,0.0,3.8993,4.2321,4.5005,0.0,4.7788,4.8356,0.0,0.0,0.0,0.0,0.0,0.0,0.0,0.0,0.0,0.0,0.0,0.0,0.0,0.0,0.0,0.0,0.0,0.0,0.0,0.0,0.0,4.7309,4.7309,4.7189,4.7189,4.7309,4.7189,4.7189,4.7309,4.7309,4.7309,4.7309,4.7309,4.7309,4.7396,4.7794,4.8007,4.8007,4.8427,4.8604,4.8604,4.8604,4.8604,4.8604,4.8604,4.8604,4.8604,4.8604,4.8604,4.8604,0.0,0.0,0.0,0.0,0.0,0.0,0.0,0.0,0.0,0.0,0.0,0.0,0.0,0.0,0.0,0.0,0.0,0.0,0.0,0.0,0.0,3.7338,3.7461,3.7461,3.7369,3.8015,3.8077,3.7492,3.8662,3.9924,4.1186,4.1555,4.1648,4.1494,4.2355,4.1925,4.0505,4.0505,4.0505,4.0443,3.9859,3.9613,3.9459,3.8138,3.7984,3.8415,3.7646,3.8108,3.9123,3.9123,3.9123,0.0,0.0,0.0,3.7214,3.663,3.632,3.6286,3.6835,0.0,4.0581,0.0,4.3599,4.5035,0.0,0.0,0.0,0.0,0.0,0.0,0.0,0.0,0.0,0.0,0.0,0.0,0.0,0.0,0.0,0.0,0.0,0.0,0.0,0.0,0.0,0.0,4.7309,4.7309,4.7309,4.677,4.6711,4.7279,4.6741,4.6741,4.7309,4.7309,4.7309,4.7309,4.7309,4.7396,4.7581,4.788,4.8007,4.8007,4.8427,4.8604,4.8604,4.8604,4.8604,4.8604,4.8604,4.8604,4.8604,4.8604,4.8604,4.8604,0.0,0.0,0.0,0.0,0.0,0.0,0.0,0.0,0.0,0.0,0.0,0.0,0.0,0.0,0.0,0.0,0.0,0.0,0.0,0.0,0.0,3.6938,3.6938,3.6938,3.6938,3.7215,3.743,3.7492,3.8477,4.0047,4.2171,4.291,4.3279,4.3279,4.3587,4.2971,4.1643,4.1309,4.0909,4.0474,4.0166,4.0043,3.9951,3.9,3.8816,3.9,3.8323,3.8446,3.8939,3.8939,3.8692,3.8323,3.8046,0.0,0.0,0.0,3.6445,3.6473,3.6955,3.7997,3.9354,0.0,4.1983,4.312,0.0,0.0,0.0,0.0,0.0,0.0,0.0,0.0,0.0,0.0,0.0,0.0,0.0,0.0,0.0,0.0,0.0,0.0,0.0,0.0,0.0,0.0,4.6411,4.6172,4.6172,4.5903,4.5873,4.6172,4.6262,4.6262,4.6172,4.6561,4.6561,4.6172,4.6659,4.6966,4.7051,4.7824,4.8175,4.8175,4.8438,4.8604,4.8604,4.8604,4.8604,4.8604,4.8604,4.8604,4.8604,4.8604,4.8604,4.8604,0.0,0.0,0.0,0.0,0.0,0.0,0.0,0.0,0.0,0.0,0.0,0.0,0.0,0.0,0.0,0.0,0.0,0.0,0.0,0.0,0.0,3.6507,3.6661,3.6753,3.6753,3.6907,3.7338,3.8015,3.8508,4.0262,4.3125,4.411,4.5072,4.5865,4.5311,4.4264,4.2817,4.214,4.1555,4.0966,4.0443,4.0228,4.0166,3.949,3.9336,3.9398,3.8754,0.0,0.0,0.0,0.0,0.0,0.0,0.0,0.0,0.0,0.0,0.0,0.0,0.0,3.7858,3.9337,4.0164,4.1145,0.0,0.0,0.0,0.0,0.0,0.0,0.0,0.0,0.0,0.0,0.0,0.0,0.0,0.0,0.0,0.0,0.0,0.0,0.0,0.0,0.0,0.0,4.5574,4.5304,4.5304,4.5125,4.5125,4.5274,4.5633,4.5633,4.5304,4.5813,4.5813,4.5304,4.595,4.6448,4.6754,4.7604,4.8118,4.8355,4.8521,4.8604,4.8604,4.8604,4.8604,4.8604,4.8604,4.8604,4.8604,4.8604,4.8604,4.8604,0.0,0.0,0.0,0.0,0.0,0.0,0.0,0.0,0.0,0.0,0.0,0.0,0.0,3.6507,3.6507,3.6507,0.0,0.0,0.0,0.0,0.0,3.6507,3.7123,0.0,3.7461,3.8077,3.8723,3.9398,3.9431,4.1186,4.4517,4.4579,4.6326,4.9343,4.7373,4.5372,4.3501,4.2817,4.254,4.2325,4.0355,3.9521,3.9459,3.8816,0.0,0.0,0.0,0.0,0.0,0.0,0.0,0.0,0.0,0.0,0.0,0.0,0.0,0.0,0.0,3.6616,0.0,3.7741,0.0,0.0,0.0,0.0,0.0,0.0,0.0,0.0,0.0,0.0,0.0,0.0,0.0,0.0,0.0,0.0,0.0,0.0,0.0,0.0,0.0,0.0,0.0,0.0,4.5304,4.5304,4.5304,4.4706,4.4646,4.5274,4.4736,4.4706,4.5274,4.5334,4.5334,4.5304,4.5376,4.5913,4.6963,4.7034,4.7607,4.8563,4.8604,4.8604,4.8604,4.8604,4.8604,4.8604,4.8604,4.8604,4.8604,4.8604,4.8604,4.8604,0.0,0.0,0.0,0.0,0.0,0.0,0.0,0.0,0.0,0.0,0.0,0.0,0.0,3.6507,3.6507,3.6507,3.6507,0.0,0.0,0.0,0.0,3.7123,3.7369,3.7707,3.8138,3.7954,3.82,3.8877,3.8877,4.017,4.2694,4.3987,4.5464,4.7034,4.6726,4.6203,4.5372,4.3433,4.2355,4.1863,4.0628,0.0,0.0,0.0,0.0,0.0,0.0,0.0,0.0,0.0,0.0,0.0,0.0,0.0,0.0,0.0,0.0,0.0,0.0,0.0,0.0,3.7122,0.0,0.0,0.0,0.0,0.0,0.0,0.0,0.0,0.0,0.0,0.0,0.0,0.0,0.0,0.0,0.0,0.0,0.0,0.0,0.0,0.0,0.0,0.0,0.0,0.0,4.4047,4.4047,4.3768,4.3738,4.3977,4.4227,4.4436,4.4676,4.4257,4.4047,4.4047,4.475,4.5324,4.5758,4.6855,4.7579,4.7989,4.8419,4.8604,4.8604,4.8604,4.8604,4.8604,4.8604,4.8604,4.8604,4.8604,4.8604,4.8604,0.0,0.0,0.0,0.0,0.0,0.0,0.0,0.0,0.0,3.6507,0.0,0.0,0.0,0.0,3.6569,3.6815,3.6846,3.6938,3.7153,3.7184,3.7369,3.7831,3.8046,3.8385,3.8846,3.82,3.8292,3.9152,3.8723,3.9677,4.1955,4.331,4.451,4.5588,4.5803,4.6172,4.648,4.4449,0.0,4.2171,0.0,0.0,4.0874,0.0,0.0,0.0,0.0,0.0,0.0,0.0,0.0,0.0,0.0,0.0,0.0,0.0,0.0,0.0,3.6352,0.0,0.0,0.0,0.0,0.0,0.0,0.0,0.0,0.0,0.0,0.0,0.0,0.0,0.0,0.0,0.0,0.0,0.0,0.0,0.0,0.0,0.0,0.0,0.0,0.0,0.0,0.0,0.0,0.0,4.326,4.312,4.312,4.329,4.3818,4.4068,4.3988,4.3499,4.3329,4.3438,4.4206,4.4777,4.5139,4.6517,4.7292,4.765,4.8327,4.8604,4.8604,4.8604,4.8604,4.8604,4.8604,4.8604,4.8604,4.8604,4.8604,4.8604,0.0,0.0,0.0,0.0,0.0,0.0,0.0,0.0,0.0,3.6507,0.0,0.0,0.0,0.0,0.0,3.7461,3.7523,3.78,3.8477,3.8508,3.8508,3.8539,0.0,0.0,3.9521,3.8877,3.9185,4.0505,3.9185,3.9924,4.254,4.2571,4.3618,4.5464,4.4856,4.528,4.6449,0.0,4.4756,4.3501,0.0,4.1617,4.1709,0.0,0.0,0.0,4.2571,4.214,0.0,0.0,0.0,0.0,0.0,0.0,0.0,0.0,0.0,0.0,0.0,0.0,0.0,0.0,0.0,0.0,0.0,0.0,0.0,0.0,0.0,0.0,0.0,0.0,0.0,0.0,0.0,0.0,0.0,0.0,0.0,0.0,0.0,0.0,0.0,0.0,0.0,0.0,4.1782,4.1953,4.32,4.2731,4.2671,4.326,4.3557,4.3557,4.329,4.329,4.3438,4.3675,4.3714,4.4243,4.5275,4.5987,4.6741,4.7619,4.8296,4.8604,4.8604,4.8604,4.8604,4.8604,4.8604,4.8604,4.8604,4.8604,4.8604,4.8604,0.0,0.0,0.0,0.0,0.0,0.0,3.6507,3.6507,3.6507,0.0,0.0,0.0,3.7215,3.7646,3.8015,3.8231,3.8231,3.8323,3.8508,3.8508,3.8723,3.9216,3.9398,3.9705,4.0197,3.9585,3.9613,4.0505,3.9613,3.9859,4.1089,4.1648,4.2448,4.3433,4.371,4.4086,4.4394,4.371,0.0,4.3501,4.214,4.1894,0.0,0.0,0.0,0.0,0.0,4.1432,4.0751,0.0,4.0505,4.0351,0.0,0.0,0.0,0.0,0.0,0.0,3.6507,0.0,0.0,0.0,0.0,0.0,0.0,0.0,0.0,0.0,0.0,0.0,0.0,0.0,0.0,0.0,0.0,0.0,0.0,0.0,0.0,0.0,0.0,0.0,0.0,0.0,0.0,0.0,4.1512,4.1782,4.2581,4.3067,4.3337,4.329,4.3557,4.3557,4.329,4.329,4.3438,4.3675,4.3832,4.4156,4.4611,4.5401,4.6195,4.6911,4.7588,4.8173,4.8604,4.8604,4.8604,4.8604,4.8604,4.8604,4.8604,4.8604,4.8604,4.8604,0.0,0.0,0.0,0.0,0.0,0.0,3.6969,3.7153,3.7338,0.0,0.0,0.0,3.7892,3.8785,3.9213,3.8939,3.8939,3.9062,3.9339,3.9305,3.949,3.989,3.992,4.0105,4.0474,3.9828,3.9828,4.0505,3.9828,3.9982,4.0935,4.1093,4.1524,4.2202,4.2571,0.0,0.0,0.0,0.0,0.0,4.2633,0.0,0.0,4.331,4.2756,0.0,0.0,0.0,4.1678,4.0782,4.029,0.0,0.0,0.0,0.0,0.0,0.0,0.0,0.0,0.0,0.0,0.0,0.0,0.0,3.6196,3.6133,3.6158,0.0,0.0,0.0,0.0,0.0,0.0,0.0,0.0,0.0,0.0,0.0,0.0,0.0,0.0,0.0,0.0,4.0576,4.0666,4.0935,4.0726,4.0965,4.1931,4.3163,4.3563,4.3058,4.3524,4.3563,4.2989,4.318,4.3478,4.3832,4.3949,4.4143,4.445,4.5549,4.6234,4.6634,4.7619,4.8235,4.8604,4.8604,4.8604,4.8604,4.8604,4.8604,4.8604,4.8604,4.8604,4.8604,0.0,0.0,0.0,3.6599,3.7677,3.8323,3.78,3.8231,3.8662,0.0,3.8354,3.8354,3.9093,4.0139,4.0474,3.989,3.9801,3.9982,4.0566,4.0597,4.0597,4.0597,4.0536,4.0536,4.0597,3.9951,3.992,4.0597,3.992,4.0293,4.1586,4.0878,4.0874,4.1586,0.0,0.0,0.0,0.0,0.0,4.2663,4.3402,4.3778,0.0,0.0,4.4363,4.3716,4.3716,4.3655,4.3316,4.1401,4.029,0.0,0.0,0.0,0.0,0.0,3.8108,0.0,0.0,0.0,0.0,0.0,0.0,0.0,3.632,3.6288,3.6256,0.0,0.0,0.0,0.0,0.0,0.0,0.0,0.0,0.0,0.0,0.0,0.0,0.0,0.0,0.0,3.914,3.926,3.9559,4.0127,3.9768,4.0038,4.1205,4.2848,4.3356,4.2522,4.3326,4.3386,4.2612,4.3019,4.3506,4.3988,4.4026,4.4258,4.4641,4.5834,4.6419,4.6542,4.7742,4.8358,4.8512,4.8512,4.8543,4.8604,4.8604,4.8604,4.8604,4.8604,4.8604,4.8604,0.0,0.0,3.6661,3.7215,3.7984,3.8662,3.9062,3.9213,3.949,4.0043,4.1001,4.2078,4.3248,4.2694,4.214,4.2017,4.1494,4.1247,4.137,4.1401,4.1401,4.1401,4.0812,4.0751,4.137,4.0659,4.0659,4.1401,4.0659,4.0755,4.1586,4.0878,4.0874,4.1586,4.1001,0.0,0.0,0.0,0.0,4.2725,4.3895,0.0,4.528,4.5926,4.5434,4.4425,4.4425,4.4086,4.347,0.0,4.174,4.1186,0.0,0.0,0.0,0.0,0.0,0.0,0.0,0.0,0.0,0.0,0.0,0.0,3.6691,3.6876,3.7027,0.0,0.0,0.0,0.0,0.0,0.0,0.0,0.0,0.0,0.0,0.0,0.0,0.0,0.0,0.0,3.7793,3.8272,3.8631,3.8781,3.9679,4.0337,4.0576,4.1588,4.2063,4.1897,4.2025,4.2266,4.2612,4.2724,4.324,4.3988,4.4181,4.4343,4.4641,4.4849,4.528,4.5803,4.6049,4.6788,4.7804,4.7804,4.8112,4.8604,4.8604,4.8604,4.8604,4.8604,4.8604,4.8604,0.0,3.6507,3.6815,3.7831,3.8846,3.9705,4.0447,4.0847,4.1309,4.1955,4.3525,4.4603,4.461,4.3987,4.3464,4.3125,4.1832,4.137,0.0,4.1801,4.174,4.2078,4.174,4.174,4.2078,4.174,4.174,4.2109,4.1401,4.1586,4.2571,4.1186,4.1247,4.2509,4.1155,0.0,0.0,0.0,4.2786,4.3187,4.4172,0.0,4.5618,4.5957,4.568,4.5033,4.4695,4.3925,4.3094,4.3094,4.2417,0.0,0.0,4.1063,4.0847,0.0,3.977,3.9831,0.0,0.0,0.0,3.8169,0.0,0.0,0.0,3.6999,3.6876,3.6444,0.0,0.0,0.0,0.0,0.0,0.0,0.0,0.0,0.0,0.0,0.0,0.0,0.0,0.0,3.7375,3.7773,3.8202,3.8502,3.9385,4.0068,4.0397,4.125,4.1542,4.1203,4.1542,4.1912,4.2282,4.2568,4.3166,4.4143,4.4228,4.4381,4.4641,4.4941,4.528,4.5618,4.6296,4.6973,4.7619,4.7958,4.8296,4.8604,4.8604,4.8604,4.8604,4.8604,4.8604,4.8604,3.6507,0.0,3.6876,3.8108,3.9431,4.0597,4.1463,4.2171,4.3033,4.424,4.5649,4.6326,4.5688,4.5133,0.0,0.0,0.0,0.0,0.0,0.0,4.2048,4.2571,4.2479,4.254,4.2786,4.2663,4.2663,4.2786,4.2109,4.2417,4.3562,4.1771,4.1801,4.3347,0.0,0.0,0.0,0.0,0.0,4.387,0.0,4.5187,4.5803,4.5926,4.6049,4.6049,4.5249,4.4018,4.2879,4.3439,0.0,4.1678,4.097,4.1124,0.0,0.0,0.0,0.0,0.0,0.0,0.0,0.0,0.0,3.8138,0.0,0.0,0.0,3.6538,0.0,0.0,0.0,0.0,0.0,0.0,0.0,0.0,0.0,0.0,0.0,0.0,0.0,0.0,0.0,3.7335,3.7763,3.8426,3.8827,3.9356,4.0014,4.0738,4.0975,4.0656,4.1133,4.1539,4.1808,4.2357,4.3138,4.4083,4.4312,4.4419,4.4641,4.5157,4.5403,4.5464,4.6696,4.7281,4.7465,4.8142,4.8481,4.8604,4.8604,4.8604,4.8604,4.8604,4.8604,4.8604,3.6507,3.6507,0.0,3.7492,3.8723,4.0078,4.1401,0.0,4.371,4.6757,4.6819,4.725,0.0,0.0,0.0,0.0,0.0,0.0,4.4295,0.0,0.0,4.2602,4.2017,4.2263,4.347,4.291,4.2879,4.3501,4.2817,4.2848,4.3593,4.2756,4.2509,4.2694,4.2479,0.0,0.0,0.0,4.387,0.0,4.5226,4.5865,0.0,4.7157,4.7742,4.8112,4.6819,4.5126,4.3501,0.0,4.3094,4.2386,0.0,4.1524,0.0,0.0,0.0,0.0,0.0,0.0,0.0,0.0,4.0293,0.0,0.0,0.0,3.7954,3.6753,0.0,0.0,0.0,0.0,0.0,0.0,0.0,0.0,0.0,0.0,0.0,0.0,0.0,0.0,0.0,3.6438,3.7004,3.7499,3.7751,3.8185,3.8848,3.9003,3.945,4.0318,4.0264,4.0568,4.1296,4.1998,4.2701,4.3448,4.4181,4.4572,4.461,4.4702,4.4733,4.4764,4.5495,4.6142,4.6757,4.7434,4.8081,4.8604,4.8604,4.8604,4.8604,4.8604,4.8604,4.8604,3.6507,3.6507,0.0,0.0,3.8877,4.0139,0.0,0.0,4.6603,4.8019,4.9004,0.0,0.0,0.0,0.0,0.0,0.0,4.4579,0.0,0.0,0.0,0.0,4.2325,0.0,4.3593,4.331,4.3494,4.4178,4.3494,4.3494,4.4178,4.3094,4.2817,0.0,4.2786,0.0,4.2817,0.0,4.4579,0.0,0.0,0.0,0.0,4.6911,4.6942,4.6788,4.6203,4.5218,4.4148,0.0,4.3439,0.0,0.0,0.0,0.0,0.0,0.0,0.0,0.0,0.0,0.0,0.0,0.0,0.0,3.8939,0.0,3.8231,0.0,0.0,0.0,0.0,0.0,0.0,0.0,0.0,0.0,0.0,0.0,0.0,0.0,0.0,0.0,0.0,0.0,0.0,0.0,3.7168,3.7537,3.8099,3.8491,3.8962,3.9508,3.9728,4.0496,4.1821,4.2163,4.2873,4.4058,4.4449,4.461,4.461,4.461,4.4825,4.5187,4.5464,4.6203,4.7188,4.7496,4.8019,4.8604,4.8604,4.8604,4.8604,4.8604,4.8604,4.8604,3.6507,0.0,0.0,0.0,0.0,0.0,0.0,0.0,0.0,0.0,0.0,0.0,5.4022,5.2021,0.0,0.0,0.0,4.6419,0.0,0.0,4.3248,0.0,0.0,0.0,0.0,4.3778,4.4024,4.4332,4.4024,4.4024,4.4332,4.3494,4.3094,0.0,0.0,4.3494,4.3685,0.0,4.5526,4.6172,4.6665,4.688,4.685,4.6665,4.6172,4.5618,4.5803,4.5434,4.4756,4.4117,4.387,0.0,4.2879,0.0,0.0,0.0,0.0,0.0,4.0874,0.0,0.0,0.0,0.0,0.0,0.0,0.0,0.0,0.0,0.0,0.0,0.0,0.0,0.0,0.0,0.0,0.0,0.0,0.0,0.0,0.0,0.0,0.0,0.0,0.0,0.0,0.0,0.0,3.694,3.7473,3.8137,3.8693,3.9078,3.9829,4.0847,4.2113,4.2481,4.3229,4.4332,4.4517,4.461,4.461,4.461,4.4979,4.5588,4.5588,4.6357,4.7619,4.7619,4.8019,4.8604,4.8604,4.8604,4.8604,4.8604,4.8604,4.8604,3.6507,3.6507,3.6722,0.0,0.0,0.0,0.0,0.0,0.0,0.0,0.0,0.0,0.0,0.0,0.0,0.0,0.0,4.9928,4.8543,0.0,4.491,0.0,0.0,4.3593,0.0,0.0,0.0,4.3624,4.4271,4.4271,4.3655,4.4271,4.3494,0.0,4.4356,4.4787,4.3747,4.568,4.6911,4.7558,4.7558,4.7558,4.7496,0.0,4.6172,4.568,4.6326,0.0,0.0,4.4787,4.4579,0.0,0.0,0.0,0.0,0.0,0.0,0.0,0.0,0.0,0.0,4.0659,0.0,0.0,0.0,0.0,3.9308,0.0,0.0,0.0,0.0,0.0,0.0,0.0,0.0,0.0,0.0,0.0,0.0,0.0,0.0,0.0,0.0,0.0,0.0,0.0,0.0,0.0,3.7008,3.7676,3.8412,3.9253,4.0743,4.155,4.1617,4.291,4.3593,4.3655,4.4302,4.461,4.461,4.461,4.4979,4.5588,4.5588,4.6357,4.7619,4.7619,4.8019,4.8604,4.8604,4.8604,4.8604,4.8604,4.8604,4.8604,3.7153,3.7523,3.7769,3.7554,0.0,0.0,0.0,4.6265,0.0,0.0,0.0,0.0,0.0,5.8608,5.7408,0.0,0.0,5.2852,5.0174,4.8943,0.0,0.0,0.0,4.4055,0.0,0.0,0.0,0.0,0.0,4.3156,4.294,4.3156,4.2663,0.0,0.0,4.3587,0.0,0.0,0.0,0.0,0.0,4.7188,4.7527,0.0,0.0,4.6234,4.6018,4.5772,0.0,4.5311,4.5249,4.5157,4.4726,4.4418,4.411,4.3433,4.2602,0.0,0.0,0.0,4.1555,4.1309,0.0,0.0,0.0,0.0,0.0,0.0,0.0,0.0,0.0,0.0,0.0,0.0,0.0,0.0,0.0,0.0,0.0,0.0,0.0,0.0,0.0,0.0,0.0,0.0,0.0,0.0,0.0,3.701,3.7776,3.8747,4.0063,4.1234,4.2263,4.3162,4.384,4.4271,4.4517,4.461,4.461,4.461,4.4979,4.5557,4.5126,4.5926,4.7558,4.7127,4.7588,4.8604,4.8604,4.8604,4.8604,4.8604,4.8604,4.8604,3.8169,3.8385,3.8446,3.8262,0.0,0.0,0.0,0.0,0.0,0.0,5.6638,0.0,6.3164,0.0,6.0794,0.0,5.8485,5.5715,5.2359,5.1713,0.0,4.6819,4.6234,0.0,0.0,0.0,0.0,0.0,0.0,4.3187,4.294,4.2725,0.0,0.0,0.0,4.3525,4.4086,0.0,4.6942,0.0,0.0,4.7157,0.0,0.0,4.6757,4.6911,0.0,4.6296,4.6296,4.6296,4.6296,4.6265,4.6018,4.5772,4.5372,4.4302,4.3464,4.291,4.2663,4.2294,0.0,4.1955,4.1955,0.0,4.1028,0.0,0.0,0.0,0.0,0.0,0.0,0.0,0.0,0.0,0.0,0.0,0.0,3.6507,0.0,0.0,0.0,0.0,0.0,0.0,0.0,0.0,0.0,0.0,0.0,0.0,3.7506,3.8409,3.9941,4.1357,4.2602,4.3494,4.4178,4.461,4.461,4.461,4.461,4.461,4.4979,4.5557,4.5126,4.5957,4.7558,4.7127,4.7619,4.8604,4.8604,4.8604,4.8604,4.8604,4.8604,4.8604,3.9398,3.9123,3.897,3.9647,4.1894,0.0,0.0,0.0,5.3468,0.0,5.8824,6.1994,6.4734,6.381,6.3225,6.3841,6.144,0.0,5.5144,5.4898,0.0,0.0,4.885,4.8142,4.6665,0.0,0.0,0.0,0.0,0.0,4.3531,0.0,0.0,0.0,4.3587,0.0,4.4756,4.6696,4.7927,4.845,4.7157,4.7434,4.8481,4.7157,4.7096,4.7681,4.7619,4.7619,4.7619,4.7619,4.7619,4.7496,4.685,4.6234,4.5588,4.4918,4.4271,4.3624,4.294,4.2725,4.2694,4.2663,0.0,0.0,0.0,0.0,4.1401,0.0,0.0,0.0,0.0,0.0,0.0,0.0,0.0,0.0,0.0,0.0,0.0,0.0,0.0,0.0,0.0,0.0,0.0,0.0,0.0,0.0,0.0,0.0,3.751,3.8277,4.0409,4.1894,4.2602,4.3925,4.461,4.461,4.461,4.461,4.461,4.461,4.4941,4.5526,4.5526,4.6296,4.7558,4.7558,4.7989,4.8604,4.8604,4.8604,4.8604,4.8604,4.8604,4.8604,4.0197,4.134,4.2479,4.3156,4.3864,4.4825,0.0,0.0,0.0,0.0,6.064,6.4087,6.6858,6.5934,6.498,6.4641,6.2579,0.0,0.0,0.0,0.0,5.3238,5.2206,5.0297,4.7404,4.6696,0.0,4.461,0.0,0.0,4.2817,0.0,0.0,0.0,0.0,0.0,4.5372,4.5895,4.6788,4.7835,4.7496,4.7865,0.0,0.0,4.8112,4.9004,4.7989,4.7619,4.7619,4.7619,4.7619,4.7588,4.7404,4.7558,4.7619,4.6419,4.5957,4.568,4.5003,4.4449,4.3956,4.3501,4.3347,4.3193,0.0,0.0,0.0,0.0,0.0,0.0,0.0,0.0,0.0,0.0,0.0,0.0,0.0,0.0,0.0,3.6507,0.0,0.0,0.0,0.0,0.0,0.0,0.0,0.0,0.0,0.0,0.0,3.8411,3.9982,4.137,4.2602,4.3925,4.461,4.461,4.461,4.461,4.461,4.461,4.4664,4.4849,4.4849,4.5618,4.685,4.685,4.7558,4.8604,4.8604,4.8604,4.8604,4.8604,4.8604,4.8604,4.174,4.3987,0.0,4.5495,0.0,0.0,4.8327,0.0,0.0,5.7025,6.1132,0.0,6.5565,6.6088,6.5965,6.498,6.3287,0.0,0.0,0.0,0.0,5.5284,5.4145,5.2144,4.9035,4.7989,0.0,4.5033,0.0,0.0,4.3002,0.0,0.0,0.0,0.0,4.3371,4.5649,4.6542,4.7342,4.8019,4.7711,0.0,0.0,4.7865,4.8266,4.9127,4.8327,4.805,4.805,4.805,4.805,4.805,4.805,4.8296,4.8419,4.7342,4.7034,4.6819,4.5865,4.5311,4.4887,4.4209,4.4055,4.387,4.3187,4.2725,4.2294,0.0,0.0,0.0,0.0,0.0,0.0,0.0,0.0,0.0,0.0,0.0,0.0,0.0,0.0,0.0,0.0,0.0,0.0,0.0,0.0,0.0,0.0,0.0,0.0,3.8477,4.0139,4.1524,4.2602,4.4202,4.4918,4.461,4.461,4.461,4.461,4.461,4.461,4.4603,4.5218,4.5895,4.6634,4.725,4.7927,4.8604,4.8604,4.8604,4.8604,4.8604,4.8604,4.8604,0.0,0.0,0.0,0.0,0.0,0.0,0.0,5.3283,0.0,5.7487,0.0,6.4241,6.3564,6.5442,6.6242,6.4888,0.0,6.1902,6.0055,6.0486,5.9408,5.6238,5.5468,5.3837,5.1005,4.9682,0.0,0.0,0.0,4.4271,4.3562,0.0,0.0,0.0,0.0,0.0,0.0,4.7804,4.8604,4.8573,4.7989,4.8081,4.8543,4.7958,4.8112,4.8604,4.8604,4.8604,4.8604,4.8604,4.8604,4.8604,4.8604,4.8604,4.8512,4.7896,4.7742,4.7465,4.6203,4.5803,4.5588,4.5003,4.4733,4.4486,4.3994,4.3747,4.3285,4.2109,4.1801,4.1524,0.0,0.0,0.0,0.0,0.0,0.0,0.0,0.0,0.0,0.0,0.0,0.0,0.0,0.0,0.0,0.0,0.0,0.0,0.0,0.0,0.0,3.8477,4.0416,4.1925,4.2848,0.0,4.5249,4.4849,4.4664,4.4671,4.4733,4.4733,4.4795,4.4949,4.608,4.6634,4.6819,4.7989,4.8543,4.8604,4.8604,4.8604,4.8604,4.8604,4.8604,4.8604,0.0,0.0,0.0,0.0,0.0,5.3899,5.5516,5.79,6.0301,6.2333,6.575,6.775,6.7104,6.6457,6.5534,6.4118,6.2764,0.0,0.0,0.0,0.0,5.83,5.7592,5.5715,5.2421,5.1559,4.9866,0.0,4.5464,4.4271,4.3562,0.0,0.0,0.0,0.0,0.0,4.6511,4.7989,0.0,4.8604,4.8481,4.8512,4.8604,4.8481,4.8512,4.8604,4.8604,4.8604,4.8604,4.8604,4.8604,4.8604,4.8604,4.8604,4.8604,4.8481,4.8419,4.8266,4.7465,4.685,4.6388,4.6265,4.5403,4.4733,4.5126,4.4394,4.3531,4.3316,4.2786,4.2232,4.1524,0.0,0.0,0.0,0.0,0.0,0.0,0.0,0.0,0.0,0.0,0.0,0.0,0.0,0.0,0.0,0.0,0.0,0.0,0.0,0.0,0.0,3.9955,0.0,0.0,0.0,4.5249,4.6234,4.5126,4.4918,4.5403,4.5403,4.5711,4.6265,4.648,4.6911,4.7434,4.7681,4.8112,4.8604,4.8604,4.8604,4.8604,4.8604,4.8604,4.8604,0.0,0.0,0.0,0.0,0.0,0.0,0.0,6.1902,0.0,6.1409,6.3564,6.4703,6.3318,6.418,6.4272,6.2887,6.2179,6.1532,6.0855,6.0794,6.0363,5.9347,5.83,0.0,5.3314,5.2236,5.0359,4.7619,4.5926,4.461,4.3562,0.0,0.0,0.0,0.0,4.5064,0.0,0.0,0.0,4.8604,4.8604,4.8604,4.8604,4.8604,4.8604,4.8604,4.8604,4.8604,4.8604,4.8604,4.8604,4.8604,4.8604,4.8604,4.8604,4.8604,4.8604,4.845,4.7804,4.7373,4.7034,4.6696,4.6111,4.5618,4.5588,4.5095,4.4456,4.3747,4.3347,4.291,4.2232,4.1555,0.0,0.0,0.0,0.0,0.0,0.0,0.0,0.0,0.0,0.0,0.0,0.0,0.0,0.0,0.0,0.0,0.0,0.0,0.0,0.0,0.0,0.0,0.0,0.0,0.0,4.608,4.5772,4.5803,4.6111,4.6111,4.6296,4.6603,4.6973,4.7311,4.7619,4.7989,4.8327,4.8604,4.8604,4.8604,4.8604,4.8604,4.8604,4.8604,0.0,5.3129,0.0,0.0,5.7192,0.0,6.221,6.4611,6.4888,6.1379,6.221,6.2456,6.0701,6.2641,6.3502,6.2148,6.1902,6.1532,6.0855,6.0794,6.0424,5.9624,5.8547,5.673,5.3945,5.2606,5.0636,0.0,4.6388,4.501,0.0,0.0,0.0,0.0,0.0,0.0,0.0,0.0,4.8112,4.8604,4.8604,4.8604,4.8604,4.8604,4.8604,4.8604,4.8604,4.8604,4.8604,4.8604,4.8604,4.8604,4.8604,4.8604,4.8604,4.8604,4.8604,4.8481,4.7958,4.7711,4.7527,4.7127,4.6819,4.648,4.6111,4.5803,4.528,4.424,4.3809,4.3439,4.291,4.2694,0.0,0.0,0.0,0.0,0.0,0.0,0.0,0.0,0.0,0.0,0.0,0.0,0.0,0.0,0.0,3.6507,3.6507,3.663,3.7246,0.0,0.0,4.214,4.3217,0.0,4.6326,4.6234,4.648,4.6665,4.6819,4.6819,4.688,4.7065,4.7588,4.7804,4.7865,4.8389,4.8604,4.8604,4.8604,4.8604,4.8604,4.8604,4.8604,4.8604,0.0,0.0,0.0,0.0,0.0,0.0,6.1871,6.4703,6.7104,6.7843,6.7596,6.7042,6.6242,6.5349,6.4241,6.2856,6.2148,6.1532,6.0855,6.0794,6.0209,5.8947,5.8762,5.7408,5.4652,5.3314,5.159,0.0,0.0,4.5218,0.0,0.0,0.0,0.0,0.0,0.0,0.0,4.8235,4.8543,4.8604,4.8604,4.8604,4.8604,4.8604,4.8604,4.8604,4.8604,4.8604,4.8604,4.8604,4.8604,4.8604,4.8604,4.8604,4.8604,4.8604,4.8604,4.8604,4.8543,4.8081,4.7742,4.8296,4.7496,4.6726,4.7281,4.648,4.5557,4.5434,4.4456,4.3593,4.3531,4.3002,4.2571,0.0,0.0,0.0,0.0,0.0,0.0,0.0,0.0,0.0,0.0,3.6507,0.0,0.0,3.6507,3.6507,3.6507,3.7061,3.7738,3.8477,0.0,4.2786,4.528,4.5557,4.6573,4.8327,4.7157,4.6911,4.7527,4.7527,4.7835,4.8419,4.8481,4.8512,4.8512,4.8573,4.8604,4.8604,4.8604,4.8604,4.8604,4.8604,4.8604,4.8604,0.0,0.0,0.0,0.0,0.0,0.0,0.0,6.6365,6.7566,6.7689,6.7135,6.615,6.4611,6.3595,6.2825,6.2271,6.1594,6.1101,6.0824,6.0794,6.0363,5.9439,5.9008,5.7685,5.5329,5.3976,5.2329,0.0,0.0,0.0,0.0,0.0,0.0,0.0,0.0,4.7219,4.7619,4.7896,4.8235,4.8604,4.8604,4.8604,4.8604,4.8604,4.8604,4.8604,4.8604,4.8604,4.8604,4.8604,4.8604,4.8604,4.8604,4.8604,4.8604,4.8604,4.8604,4.8604,4.8604,4.8419,4.8266,4.8543,4.8204,4.7773,4.7619,4.688,4.608,4.568,4.4856,4.4209,4.4209,4.3956,4.3648,0.0,0.0,0.0,0.0,0.0,0.0,0.0,0.0,0.0,0.0,0.0,0.0,0.0,0.0,3.6507,3.6507,3.7123,3.7984,3.9093,0.0,4.2694,4.501,4.5803,4.6819,4.8019,4.7865,4.7958,4.8204,4.8204,4.8358,4.8604,4.8604,4.8604,4.8604,4.8604,4.8604,4.8666,4.9097,4.9251,4.9312,4.9712,4.9866,4.9866,6.1286,0.0,6.0855,0.0,6.3349,6.3472,6.5657,6.6581,6.6796,6.6088,6.578,6.5134,6.3872,6.3133,6.2548,6.2148,6.1656,6.1225,6.0824,6.0794,6.0486,5.9809,5.9131,0.0,5.6084,5.4514,5.2914,5.1282,4.9497,0.0,0.0,0.0,0.0,0.0,4.6973,4.7465,4.7896,4.7896,4.8173,4.8604,4.8604,4.8604,4.8604,4.8604,4.8604,4.8604,4.8604,4.8604,4.8604,4.8604,4.8604,4.8604,4.8604,4.8604,4.8604,4.8604,4.8604,4.8604,4.8604,4.8604,4.8604,4.8604,4.8604,4.8481,4.8019,4.7219,4.6357,4.5464,4.4949,4.461,4.461,4.461,4.4456,4.3994,0.0,0.0,0.0,0.0,0.0,0.0,3.9613,3.9062,3.7923,0.0,0.0,0.0,0.0,0.0,3.7369,3.7646,0.0,0.0,0.0,0.0,0.0,4.6203,4.7219,4.7896,4.8389,4.8604,4.8604,4.8604,4.8604,4.8604,4.8604,4.8604,4.8604,4.8604,4.8604,4.8666,4.9158,4.9497,4.9743,5.0236,5.0513,5.0697,6.2394,6.2764,6.3225,6.4641,6.4857,6.4641,6.3964,6.4457,6.4672,6.3964,6.4457,6.5165,6.5811,6.5257,6.4303,6.2918,6.2794,6.221,6.0886,6.0794,6.0486,0.0,0.0,5.8146,5.684,5.476,5.3375,5.2698,0.0,0.0,4.8573,0.0,4.7927,4.8573,4.8573,4.8604,4.8604,4.8604,4.8604,4.8604,4.8604,4.8604,4.8604,4.8604,4.8604,4.8604,4.8604,4.8604,4.8604,4.8604,4.8604,4.8604,4.8604,4.8604,4.8604,4.8604,4.8604,4.8604,4.8604,4.8604,4.8604,4.8604,4.8604,4.8604,4.8604,4.7558,4.6203,4.4918,4.461,4.461,4.461,4.461,4.461,4.461,0.0,0.0,0.0,0.0,0.0,0.0,3.989,3.9213,3.8569,0.0,0.0,0.0,0.0,0.0,0.0,0.0,0.0,4.0443,4.2479,0.0,4.5557,4.6911,4.7927,4.8604,4.8604,4.8604,4.8604,4.8604,4.8604,4.8604,4.8604,4.8604,4.8604,4.8604,4.8604,4.8604,4.8635,4.9066,4.9682,4.9682,5.0112,5.0697,6.4026,6.3841,6.3933,6.5349,6.5596,6.5503,6.5288,6.5842,6.5688,6.4057,6.4457,6.4611,6.3872,6.3595,6.3287,0.0,6.1963,6.1255,0.0,6.0794,6.0486,5.9809,5.9131,5.8146,5.684,5.5222,5.3837,5.2698,0.0,0.0,0.0,4.8635,4.8419,4.8604,4.8604,4.8604,4.8604,4.8604,4.8604,4.8604,4.8604,4.8604,4.8604,4.8604,4.8604,4.8604,4.8604,4.8604,4.8604,4.8604,4.8604,4.8604,4.8604,4.8604,4.8604,4.8604,4.8604,4.8604,4.8604,4.8604,4.8604,4.8604,4.8604,4.8604,4.8604,4.7558,4.6357,4.5434,4.4949,4.461,4.461,4.461,4.461,4.461,4.4055,0.0,0.0,0.0,0.0,0.0,4.0632,3.992,0.0,3.9152,0.0,0.0,0.0,0.0,0.0,0.0,0.0,0.0,4.3433,0.0,4.6942,4.7404,4.7958,4.8604,4.8604,4.8604,4.8604,4.8604,4.8604,4.8604,4.8604,4.8604,4.8604,4.8604,4.8604,4.8696,4.9651,5.0174,5.0482,5.1405,5.1898,5.2082,6.4795,6.4549,6.4426,6.5011,6.5134,6.4949,6.4457,6.4734,6.4549,6.3225,6.3472,6.3502,6.2887,6.2579,0.0,6.2425,6.1656,6.1071,6.0824,6.0794,6.0486,5.9809,5.9131,5.827,5.721,5.5807,0.0,5.3468,5.2298,5.1128,5.0051,4.9589,4.9251,4.9004,4.9004,4.8881,4.8604,4.8604,4.8604,4.8604,4.8604,4.8604,4.8604,4.8604,4.8604,4.8604,4.8604,4.8604,4.8604,4.8604,4.8604,4.8604,4.8604,4.8604,4.8604,4.8604,4.8604,4.8604,4.8604,4.8604,4.8604,4.8604,4.8604,4.8543,4.8296,4.7588,4.6696,4.5772,4.5249,4.4918,4.4671,4.461,4.461,4.461,4.4271,4.3994,4.3994,0.0,0.0,0.0,0.0,0.0,0.0,4.0662,4.072,0.0,0.0,0.0,0.0,0.0,0.0,4.291,4.451,0.0,4.7588,4.7865,4.8204,4.8604,4.8881,4.9004,4.9004,4.9004,4.9004,4.9004,4.8727,4.8604,4.8604,4.8604,4.8604,4.8727,4.9866,5.0482,5.082,5.1929,5.2483,5.2698,6.4826,6.4795,6.4549,0.0,6.3779,0.0,6.2148,6.1902,6.1871,6.1809,6.1809,6.2025,6.261,6.2117,6.1748,6.1748,0.0,0.0,0.0,6.0794,6.0517,5.9901,5.9162,5.8485,5.7869,5.6423,5.5345,5.4621,5.2667,5.1374,5.0759,5.0728,5.0328,4.9682,4.9682,4.9281,4.8604,4.8604,4.8604,4.8604,4.8604,4.8604,4.8604,4.8604,4.8604,4.8604,4.8604,4.8604,4.8604,4.8604,4.8604,4.8604,4.8604,4.8604,4.8604,4.8604,4.8604,4.8604,4.8604,4.8604,4.8604,4.8604,4.8604,4.845,4.7804,4.765,4.725,4.5988,4.568,4.5434,4.4795,4.4702,4.4671,4.4641,4.461,4.461,4.461,0.0,0.0,0.0,0.0,0.0,0.0,4.2602,4.2355,0.0,0.0,0.0,0.0,0.0,4.2448,4.3716,4.5618,4.7004,4.7681,4.8296,4.8635,4.8696,4.9374,4.9712,4.9743,4.9743,4.9743,4.9712,4.9035,4.8727,4.8696,4.8696,4.8696,4.8758,4.9466,5.0174,5.0851,5.1528,5.2175,5.2698,0.0,0.0,6.341,6.3779,6.341,6.3133,6.3318,6.2918,6.2394,6.1871,6.1809,6.1686,6.1317,6.1132,6.104,6.104,6.104,6.0978,6.0824,6.0794,6.0732,6.0578,5.9408,5.8701,5.8547,5.6669,5.513,5.3914,5.2452,5.1621,5.1436,5.0944,5.0328,4.9682,4.9682,4.9281,4.8604,4.8604,4.8604,4.8604,4.8604,4.8604,4.8604,4.8604,4.8604,4.8604,4.8604,4.8604,4.8604,4.8604,4.8604,4.8604,4.8604,4.8604,4.8604,4.8604,4.8604,4.8604,4.8604,4.8604,4.8604,4.8604,4.8604,4.8573,4.8419,4.7989,4.7527,4.7188,4.6726,4.6142,4.5464,4.5341,4.5187,4.4664,4.461,4.461,4.461,4.4024,0.0,0.0,4.3002,4.2602,4.2602,4.2602,4.2756,0.0,0.0,0.0,0.0,4.4079,4.4787,4.5133,4.6573,4.7681,4.8358,4.8543,4.8881,4.9435,4.962,4.9959,5.0451,5.0451,5.0451,5.0451,5.0266,4.9897,4.9435,4.9435,4.9435,4.9497,5.0205,5.0882,5.1559,5.2236,5.2575,5.2698,6.3841,6.3287,6.2825,6.2887,6.261,6.2364,6.2425,6.2148,6.1779,6.1379,6.1348,6.1194,6.0824,6.0794,6.0794,6.0794,6.0794,6.0794,6.0794,6.0794,6.0517,5.9901,5.9162,5.8485,5.7919,5.681,5.553,5.4129,5.3129,5.2483,5.2144,5.1467,5.079,5.0143,4.9835,4.9281,4.8604,4.8604,4.8604,4.8604,4.8604,4.8604,4.8604,4.8604,4.8604,4.8604,4.8604,4.8604,4.8604,4.8604,4.8604,4.8604,4.8604,4.8604,4.8604,4.8604,4.8604,4.8604,4.8604,4.8604,4.8604,4.8604,4.8604,4.8604,4.8604,4.8327,4.7989,4.7681,4.7311,4.6757,4.5772,4.5588,4.5372,4.4733,4.461,4.461,4.461,4.4302,0.0,4.4486,4.4172,4.4079,4.4387,4.4449,4.4326,4.4086,4.4264,0.0,4.4086,4.5618,4.6234,4.5618,4.7527,4.8727,4.9097,4.9404,4.9774,5.0143,5.0451,5.079,5.1159,5.1159,5.1159,5.1128,5.082,5.0482,5.0112,4.9805,4.9866,5.0174,5.0543,5.1097,5.1775,5.2452,5.2698,5.2698,6.3787,6.3349,6.2794,6.221,6.1933,6.1656,6.1163,6.0917,6.0794,6.0794,6.0794,6.0794,6.0794,6.0794,6.0794,6.0794,6.0701,6.064,6.064,6.064,6.0086,5.8824,5.867,5.8134,5.6994,5.6748,5.5992,5.4683,5.4052,5.3375,5.2698,5.2021,5.1344,5.0667,4.9989,4.9281,4.8604,4.8604,4.8604,4.8604,4.8604,4.8604,4.8604,4.8604,4.8604,4.8604,4.8604,4.8604,4.8604,4.8604,4.8604,4.8604,4.8604,4.8604,4.8604,4.8604,4.8604,4.8604,4.8604,4.8604,4.8604,4.8604,4.8604,4.8604,4.8604,4.8604,4.845,4.7865,4.7742,4.7373,4.6111,4.5803,4.5526,4.4849,4.4671,4.461,4.461,0.0,4.4941,4.5526,4.568,4.5957,4.6542,4.6603,4.6172,4.5126,4.5988,4.6142,4.5095,4.6757,4.7219,4.608,4.8419,4.9743,4.9835,5.042,5.0759,5.0851,5.1436,5.1744,5.1867,5.1867,5.1867,5.1836,5.1251,5.0944,5.082,5.0236,5.0328,5.0851,5.0851,5.1251,5.1929,5.2513,5.2698,5.2698,6.3933,6.3749,6.3626,6.3533,6.2579,6.1963,6.2425,6.1532,6.0794,6.0794,6.0794,6.0794,6.0794,6.0794,6.0794,6.0794,6.027,5.9963,5.9963,5.9963,5.9593,5.8824,5.8239,5.7888,5.7672,5.6453,5.5499,5.4683,5.4052,5.3375,5.2698,5.2021,5.1344,5.0667,4.9989,4.9281,4.8604,4.8604,4.8604,4.8604,4.8604,4.8604,4.8604,4.8604,4.8604,4.8604,4.8604,4.8604,4.8604,4.8604,4.8604,4.8604,4.8604,4.8604,4.8604,4.8604,4.8604,4.8604,4.8604,4.8604,4.8604,4.8604,4.8604,4.8604,4.8604,4.8604,4.8573,4.8481,4.845,4.8235,4.7434,4.6819,4.6234,4.5526,4.4941,4.461,4.461,0.0,4.5464,4.5588,4.608,4.648,4.6573,4.6603,4.6757,4.7127,4.6788,4.6757,4.7127,4.7989,4.8358,4.8142,4.9158,4.9959,5.0543,5.0636,5.0974,5.1559,5.1652,5.2021,5.2544,5.2544,5.2544,5.2544,5.2452,5.2082,5.1528,5.1436,5.1436,5.1559,5.1559,5.1959,5.2575,5.2667,5.2698,5.2698,6.3903,6.3533,6.3164,6.2794,6.221,6.1779,6.1748,6.1194,6.0794,6.0794,6.0794,6.0794,6.0794,6.0794,6.0794,6.0794,6.0517,6.0024,5.9285,5.9255,5.8947,5.827,5.798,5.7641,5.7303,5.6656,5.593,5.5253,5.4607,5.3883,5.3221,5.2206,5.1528,5.119,5.0143,4.9497,4.9158,4.8789,4.8604,4.8604,4.8604,4.8604,4.8604,4.8604,4.8604,4.8604,4.8604,4.8604,4.8604,4.8604,4.8604,4.8604,4.8604,4.8604,4.8604,4.8604,4.8604,4.8604,4.8604,4.8604,4.8604,4.8604,4.8604,4.8604,4.8604,4.8604,4.8604,4.8604,4.8604,4.8419,4.7742,4.7342,4.6911,4.6234,4.5557,0.0,0.0,4.5618,4.5865,4.6573,4.6942,4.7281,4.765,4.8019,4.8235,4.8142,4.8543,4.8789,4.8727,4.9374,4.9897,5.0266,5.0605,5.1097,5.1775,5.1775,5.1929,5.2236,5.2236,5.2421,5.2698,5.2698,5.2698,5.2698,5.2698,5.2544,5.2206,5.1867,5.1929,5.2206,5.1836,5.2113,5.2698,5.2698,5.2698,5.2698,6.3841,6.3533,6.3071,6.2394,6.2148,6.1809,6.1132,6.0886,6.0794,6.0794,6.0794,6.0794,6.0794,6.0794,6.0794,6.0794,6.0671,6.0055,5.8854,5.8639,5.8288,5.7611,5.758,5.7333,5.681,5.681,5.6471,5.5684,5.5037,5.4345,5.3637,5.2329,5.1713,5.1652,5.0451,4.9835,4.9651,4.9097,4.8758,4.8604,4.8604,4.8604,4.8604,4.8604,4.8604,4.8604,4.8604,4.8604,4.8604,4.8604,4.8604,4.8604,4.8604,4.8604,4.8604,4.8604,4.8604,4.8604,4.8604,4.8604,4.8604,4.8604,4.8604,4.8604,4.8604,4.8604,4.8604,4.8604,4.8604,4.845,4.7927,4.7711,4.7434,4.6911,0.0,0.0,0.0,4.6296,4.648,4.7681,4.7989,4.8358,4.9035,4.9589,4.9682,4.9127,5.0082,5.0482,4.9959,5.0574,5.1251,5.1929,5.1929,5.2175,5.2698,5.2698,5.279,5.2944,5.2944,5.2944,5.2944,5.2944,5.2852,5.2698,5.2698,5.2698,5.2667,5.2144,5.2236,5.2667,5.2329,5.239,5.276,5.3067,5.3098,5.2975,6.3841,6.4334,6.4518,6.381,6.3164,6.2517,6.184,6.1194,6.0794,6.0794,6.0794,6.0794,6.0794,6.0794,6.0794,6.0794,6.024,5.9562,5.8824,5.8227,5.758,5.6902,5.6871,5.6871,5.681,5.681,5.6471,5.5684,5.5037,5.4345,5.3637,5.2329,5.1713,5.1682,5.0944,5.0266,4.9682,4.962,4.922,4.8604,4.8604,4.8604,4.8604,4.8604,4.8604,4.8604,4.8604,4.8604,4.8604,4.8604,4.8604,4.8604,4.8604,4.8604,4.8604,4.8604,4.8604,4.8604,4.8604,4.8604,4.8604,4.8604,4.8604,4.8604,4.8604,4.8604,4.8604,4.8604,4.8604,4.8604,4.8543,4.8019,4.7588,4.7527,0.0,0.0,4.6573,4.7096,4.7742,4.845,4.9127,4.9805,5.0482,5.0574,5.0605,5.0543,5.0636,5.0667,5.0636,5.1251,5.1929,5.2606,5.2637,5.2667,5.2698,5.2698,5.3037,5.3652,5.3652,5.3652,5.3652,5.3652,5.3314,5.2698,5.2698,5.2698,5.2698,5.2667,5.2667,5.276,5.3345,5.3221,5.2852,5.4068,5.4129,5.3745,6.3841,6.4395,6.4672,6.3964,6.3626,6.3071,6.1963,6.1594,6.1286,6.0855,6.0794,6.0794,6.0794,6.0794,6.0794,6.0794,6.0578,5.9963,5.8854,5.8547,5.7949,5.6871,5.681,5.681,5.681,5.681,5.6686,5.6361,5.5653,5.5007,5.4283,5.3375,5.2729,5.2298,5.1621,5.119,5.0882,5.0051,4.9528,4.9251,4.8789,4.8604,4.8604,4.8604,4.8604,4.8604,4.8604,4.8604,4.8604,4.8604,4.8604,4.8696,4.9127,4.9281,4.9343,4.9774,4.9897,4.9897,4.9897,4.9589,4.9374,4.9805,4.9589,4.9374,4.9805,4.9251,4.885,4.9712,4.9558,4.9404,4.9835,4.9343,4.9035,4.9435,0.0,4.8142,4.9004,4.9004,4.9158,4.9835,5.0143,5.042,5.0667,5.1067,5.1313,5.1313,5.1713,5.1959,5.1959,5.2206,5.2452,5.2698,5.3129,5.3129,5.2698,5.3129,5.3468,5.3714,5.4099,5.4314,5.4314,5.4314,5.416,5.3914,5.3914,5.3914,5.3914,5.3914,5.3914,5.3991,5.4191,5.4129,5.3976,5.4498,5.4529,5.4345,6.3225,6.3749,6.4026,6.3318,6.3379,6.3041,6.1686,6.1656,6.1563,6.0886,6.0978,6.1101,6.1101,6.1101,6.1101,6.1101,6.0917,6.0301,5.9162,5.8701,5.7962,5.6871,5.681,5.681,5.681,5.681,5.681,5.681,5.5838,5.5161,5.4652,5.3837,5.316,5.2698,5.2236,5.1898,5.1652,5.0697,5.0205,4.9959,4.9466,4.9127,4.8943,4.8943,4.8943,4.8912,4.8696,4.8881,4.9251,4.9035,4.9097,4.9343,4.9835,4.9989,5.0082,5.0574,5.0697,5.0759,5.0944,5.0667,5.0389,5.0636,5.0328,5.0112,5.0605,4.9959,4.9528,5.0513,5.0328,5.0143,5.0605,5.0328,5.0143,5.0636,4.9897,4.9589,5.0574,5.0297,5.0266,5.0944,5.1005,5.119,5.159,5.2082,5.2421,5.2637,5.3098,5.3345,5.3345,5.3345,5.3345,5.3345,5.376,5.3806,5.3345,5.376,5.4145,5.436,5.4791,5.5037,5.5037,5.5037,5.4914,5.4683,5.4683,5.4683,5.4683,5.4683,5.4683,5.4714,5.4945,5.4914,5.4745,5.5222,5.5222,5.5068,6.1963,6.2364,6.261,6.1933,6.2394,6.2364,6.1009,6.1379,6.1563,6.0886,6.1379,6.1809,6.1809,6.1809,6.1809,6.1809,6.1194,6.0517,5.9839,5.8516,5.7518,5.684,5.681,5.681,5.681,5.681,5.681,5.681,5.5407,5.4683,5.4652,5.3345,5.2729,5.2729,5.2698,5.2329,5.1713,5.1713,5.1313,5.0697,5.0697,5.0297,4.9682,4.9682,4.9682,4.9589,4.8881,4.9528,5.0605,4.9928,5.0143,5.0697,5.0697,5.0697,5.0697,5.0697,5.0697,5.0851,5.1528,5.1713,5.1559,5.0882,5.0697,5.0697,5.0697,5.0697,5.0697,5.0697,5.0697,5.0697,5.0697,5.0697,5.0697,5.0697,5.0697,5.0697,5.0728,5.0728,5.0974,5.1652,5.1713,5.2236,5.3591,5.3714,5.3976,5.4621,5.4683,5.4683,5.4683,5.4683,5.4683,5.4683,5.4683,5.4683,5.4683,5.4683,5.5068,5.5684,5.5684,5.5715,5.5715,5.5715,5.5345,5.4714,5.4714,5.4714,5.4714,5.4714,5.4714,5.4775,5.5438,5.5315,5.4914,5.6269,5.6347,5.5807,6.3164,6.3379,6.3472,6.3256,6.3379,6.3071,6.1717,6.1686,6.1748,6.1532,6.1686,6.1994,6.2456,6.2086,6.1809,6.1809,6.1194,6.0301,5.9162,5.7857,5.7025,5.681,5.681,5.681,5.681,5.681,5.681,5.681,5.6361,5.5899,5.5376,5.4545,5.3822,5.3406,5.2914,5.2606,5.239,5.1898,5.159,5.1374,5.0882,5.0574,5.0389,5.0389,5.0389,5.0359,5.0143,5.0328,5.0667,5.0451,5.0513,5.079,5.1251,5.1713,5.2113,5.2113,5.2113,5.2267,5.2944,5.276,5.2359,5.2144,5.1744,5.1528,5.2021,5.1374,5.0974,5.1929,5.1744,5.1559,5.2021,5.1713,5.1559,5.2021,5.1713,5.1744,5.2698,5.2821,5.2883,5.3098,5.3529,5.3622,5.3067,5.3822,5.4283,5.4052,5.4406,5.4683,5.4683,5.4683,5.4683,5.4683,5.5161,5.5407,5.5407,5.5407,5.5499,5.5684,5.6207,5.6502,5.6502,5.6502,5.6378,5.6146,5.6146,5.6146,5.6146,5.6146,5.6146,5.6176,5.6361,5.633,5.6207,5.6656,5.6686,5.6532,6.341,6.3195,6.3041,6.3041,6.3041,6.2671,6.1563,6.1871,6.2117,6.184,6.2271,6.2764,6.3164,6.2856,6.261,6.261,6.1748,6.0517,5.8885,5.827,5.7765,5.7241,5.7457,5.7364,5.681,5.681,5.681,5.681,5.6532,5.6115,5.5684,5.476,5.4068,5.3637,5.3006,5.2698,5.2698,5.2267,5.2113,5.2082,5.1652,5.1344,5.1097,5.1097,5.1097,5.1067,5.079,5.1036,5.1436,5.119,5.1282,5.1559,5.1959,5.239,5.276,5.3037,5.3129,5.3252,5.3883,5.3837,5.3498,5.3498,5.3006,5.2606,5.3006,5.2698,5.2513,5.3345,5.3191,5.3037,5.3437,5.3191,5.3037,5.3437,5.316,5.3191,5.3976,5.4068,5.4068,5.4068,5.4437,5.4514,5.3929,5.4637,5.5068,5.4945,5.5315,5.553,5.553,5.5776,5.5807,5.553,5.6176,5.6392,5.6115,5.6392,5.6392,5.6115,5.6594,5.681,5.681,5.681,5.681,5.681,5.681,5.681,5.681,5.681,5.681,5.681,5.681,5.681,5.681,5.681,5.681,5.681,6.3102,6.2456,6.1994,6.1994,6.1933,6.1686,6.1071,6.1963,6.2548,6.2056,6.3071,6.3841,6.3903,6.3872,6.3841,6.3841,6.2548,6.0917,5.9008,5.9347,5.907,5.7857,5.8362,5.8196,5.7025,5.6933,5.6902,5.6902,5.6146,5.5776,5.5745,5.4422,5.3806,5.373,5.3037,5.2698,5.2698,5.2698,5.2698,5.2698,5.2698,5.2329,5.1805,5.1805,5.1805,5.1713,5.1097,5.1652,5.2637,5.2082,5.2298,5.2821,5.2883,5.2883,5.3006,5.3622,5.3806,5.3914,5.4591,5.4745,5.4714,5.4837,5.4391,5.3868,5.3837,5.4252,5.4683,5.4683,5.4683,5.4683,5.4683,5.4683,5.4683,5.4683,5.4683,5.4714,5.4775,5.4775,5.4775,5.4775,5.4884,5.5099,5.5561,5.5653,5.5992,5.6748,5.6871,5.6902,5.6902,5.7549,5.7641,5.7025,5.758,5.7611,5.6994,5.7611,5.7549,5.681,5.6871,5.6871,5.681,5.681,5.681,5.681,5.681,5.681,5.681,5.681,5.681,5.681,5.681,5.681,5.681,5.681,5.6858,5.6954,6.4364,6.3872,6.3379,6.3379,6.2948,6.2548,6.2394,6.2179,6.2364,6.3256,6.3656,6.4026,6.4611,6.418,6.3841,6.3841,6.2117,6.0609,5.9624,5.8731,5.8134,5.7826,5.7949,5.8165,5.8331,5.7857,5.7611,5.7611,5.6902,5.6594,5.6532,5.5161,5.4468,5.4406,5.3252,5.2698,5.2698,5.2698,5.2698,5.2698,5.2698,5.2637,5.2483,5.2483,5.2483,5.2483,5.2329,5.2452,5.276,5.316,5.3375,5.3591,5.4068,5.4252,5.4283,5.4406,5.4468,5.4621,5.5315,5.513,5.4929,5.6053,5.5776,5.513,5.4591,5.4591,5.4683,5.4683,5.4683,5.4683,5.4683,5.4683,5.4683,5.4683,5.4683,5.4868,5.5407,5.5468,5.5468,5.5468,5.5992,5.5961,5.5037,5.5407,5.5992,5.6748,5.7303,5.7611,5.7611,5.8208,5.8485,5.8362,5.8485,5.8485,5.8381,5.8485,5.7962,5.681,5.7364,5.7333,5.681,5.681,5.681,5.681,5.681,5.681,5.681,5.681,5.681,5.681,5.681,5.681,5.681,5.681,5.7258,5.798,6.4826,6.4334,6.3841,6.3841,6.301,6.2456,6.2764,6.2517,6.2641,6.3687,6.4118,6.4487,6.4857,6.458,6.421,6.3841,6.2856,6.1532,5.9901,5.9439,5.8793,5.7857,5.8393,5.8885,5.9255,5.8916,5.8423,5.7826,5.7148,5.681,5.6779,5.5684,5.5191,5.513,5.3806,5.3191,5.316,5.2852,5.2698,5.2698,5.2698,5.2698,5.2698,5.2698,5.2914,5.3191,5.3191,5.3406,5.3745,5.4037,5.416,5.4222,5.456,5.4683,5.4745,5.5099,5.5191,5.5345,5.6023,5.5961,5.5961,5.7025,5.7025,5.6515,5.5838,5.5961,5.6084,5.5776,5.5961,5.6176,5.6176,5.593,5.5899,5.6546,5.6392,5.63,5.6638,5.6669,5.6577,5.6238,5.6594,5.6656,5.6207,5.6792,5.7315,5.7734,5.8104,5.8288,5.8288,5.8885,5.9101,5.8793,5.9101,5.9101,5.8793,5.9101,5.8731,5.7795,5.8085,5.8104,5.7765,5.7426,5.7303,5.7272,5.6964,5.681,5.681,5.681,5.681,5.681,5.681,5.681,5.681,5.681,5.7401,5.8349,6.4888,6.4426,6.4026,6.4026,6.2979,6.2394,6.3071,6.3071,6.3225,6.3933,6.4518,6.4888,6.4888,6.4888,6.4641,6.4057,6.3903,6.2825,6.0455,6.0517,5.9932,5.8412,5.9131,5.9716,5.9963,5.9839,5.9193,5.798,5.7303,5.6933,5.6779,5.6023,5.5622,5.5468,5.4268,5.3652,5.3498,5.2944,5.2698,5.2698,5.2698,5.2698,5.2698,5.2698,5.3067,5.3514,5.3683,5.4099,5.4714,5.4806,5.4837,5.4868,5.5037,5.5161,5.5345,5.5899,5.6115,5.6361,5.6994,5.7148,5.7303,5.798,5.8073,5.7888,5.7426,5.758,5.7703,5.7241,5.7518,5.7857,5.798,5.7549,5.7518,5.8608,5.83,5.798,5.798,5.798,5.7795,5.7241,5.7148,5.7364,5.7949,5.8454,5.8793,5.8793,5.9008,5.907,5.8947,5.9716,5.9809,5.9131,5.9655,5.9686,5.9131,5.9686,5.9686,5.9131,5.9131,5.9008,5.8762,5.8208,5.798,5.7949,5.7395,5.7087,5.6994,5.6994,5.6902,5.681,5.681,5.681,5.6858,5.7163,5.7746,5.8592,6.4888,6.4826,6.4764,6.4764,6.4087,6.3779,6.4518,6.4087,6.3933,6.4672,6.4826,6.4888,6.4888,6.4888,6.4857,6.4764,6.418,6.341,6.2456,6.0855,6.0055,6.0363,5.9439,5.947,6.064,6.0086,5.9408,5.8639,5.8011,5.7395,5.6779,5.6023,5.5407,5.4775,5.4006,5.3406,5.2852,5.276,5.2698,5.2698,5.2698,5.2698,5.2698,5.2698,5.276,5.2914,5.3498,5.4099,5.4775,5.5376,5.5561,5.5684,5.63,5.6884,5.7377,5.7518,5.79,5.8393,5.8485,5.8516,5.867,5.9347,5.907,5.8762,5.9255,5.8547,5.7949,5.8393,5.8165,5.8011,5.8547,5.8577,5.8577,5.8762,5.8701,5.8639,5.8639,5.8639,5.8608,5.8516,5.8516,5.8547,5.8639,5.8731,5.8793,5.8793,5.987,6.027,5.9686,6.0855,6.1225,6.0547,6.0609,6.0609,6.0517,6.0609,6.0609,6.0517,6.0517,5.9901,5.8793,5.8701,5.8639,5.8639,5.8547,5.8177,5.7672,5.7672,5.7333,5.681,5.681,5.681,5.7002,5.8637,5.9278,5.9631,6.4888,6.4888,6.4888,6.4888,6.4303,6.4057,6.4795,6.4272,6.4087,6.4795,6.4888,6.4888,6.4888,6.4888,6.4888,6.4888,6.4241,6.3379,6.2333,6.1409,6.0363,5.9162,5.9624,5.9839,5.9686,6.0116,6.0024,5.9347,5.83,5.7672,5.7364,5.6656,5.6146,5.5838,5.513,5.4668,5.436,5.3991,5.3837,5.3837,5.3837,5.3622,5.3314,5.3637,5.3837,5.3991,5.5037,5.5622,5.5899,5.6207,5.6546,5.6915,5.7272,5.7857,5.8331,5.8331,5.8547,5.8793,5.8793,5.8793,5.8947,5.9624,5.9562,5.9532,6.0209,5.9593,5.8885,5.8793,5.8854,5.9008,5.9285,5.9039,5.9039,5.9778,5.9593,5.9347,5.9347,5.9347,5.9193,5.8824,5.9101,5.9501,5.987,6.024,6.064,6.1009,6.1255,6.1225,6.0948,6.1132,6.1101,6.0824,6.0794,6.0794,6.0794,6.0794,6.0794,6.0794,6.0794,6.0486,5.9901,5.9501,5.9347,5.9316,5.8947,5.8608,5.835,5.798,5.7641,5.7333,5.6964,5.681,5.7081,5.937,5.9943,5.9914]}]]